<?xml version="1.0" encoding="UTF-8" standalone="no" ?>
<gpx xmlns="http://www.topografix.com/GPX/1/1" xmlns:xsi="http://www.w3.org/2001/XMLSchema-instance" xsi:schemaLocation="http://www.topografix.com/GPX/1/1 http://www.topografix.com/GPX/1/1/gpx.xsd" version="1.1" creator="VisuGPX - https://www.visugpx.com">
  <metadata>
    <name>Estadens, Larrieu, Pénenère</name>
    <desc><![CDATA[Boucle depuis Estadens, toute la montée de la première partie environ 10 km est une piste assez roulante. quelques montées et descentes technique. 
 avec un seuil de 5 mètres]]></desc>
  </metadata>
  <trk>
    <name><![CDATA[Estadens, Larrieu, Pénenère_1]]></name>
    <trkseg>
      <trkpt lat="43.04211" lon="0.84566">
        <ele>494.9</ele>
        <time>2017-09-03T13:33:28Z</time>
      </trkpt>
      <trkpt lat="43.04224" lon="0.8458">
        <ele>494</ele>
        <time>2017-09-03T13:33:52Z</time>
      </trkpt>
      <trkpt lat="43.04238" lon="0.846">
        <ele>493.7</ele>
        <time>2017-09-03T13:33:56Z</time>
      </trkpt>
      <trkpt lat="43.0426" lon="0.8459">
        <ele>493</ele>
        <time>2017-09-03T13:34:00Z</time>
      </trkpt>
      <trkpt lat="43.04279" lon="0.8458">
        <ele>492.2</ele>
        <time>2017-09-03T13:34:04Z</time>
      </trkpt>
      <trkpt lat="43.0429" lon="0.84593">
        <ele>489.7</ele>
        <time>2017-09-03T13:34:08Z</time>
      </trkpt>
      <trkpt lat="43.04285" lon="0.84618">
        <ele>488.8</ele>
        <time>2017-09-03T13:34:12Z</time>
      </trkpt>
      <trkpt lat="43.04278" lon="0.84649">
        <ele>489.6</ele>
        <time>2017-09-03T13:34:16Z</time>
      </trkpt>
      <trkpt lat="43.04272" lon="0.8468">
        <ele>489.4</ele>
        <time>2017-09-03T13:34:20Z</time>
      </trkpt>
      <trkpt lat="43.04267" lon="0.84714">
        <ele>490.8</ele>
        <time>2017-09-03T13:34:24Z</time>
      </trkpt>
      <trkpt lat="43.04263" lon="0.84748">
        <ele>491</ele>
        <time>2017-09-03T13:34:28Z</time>
      </trkpt>
      <trkpt lat="43.04257" lon="0.84787">
        <ele>482.5</ele>
        <time>2017-09-03T13:34:32Z</time>
      </trkpt>
      <trkpt lat="43.04251" lon="0.84829">
        <ele>483.5</ele>
        <time>2017-09-03T13:34:36Z</time>
      </trkpt>
      <trkpt lat="43.04241" lon="0.8485">
        <ele>485.9</ele>
        <time>2017-09-03T13:34:40Z</time>
      </trkpt>
      <trkpt lat="43.04241" lon="0.84883">
        <ele>484.2</ele>
        <time>2017-09-03T13:34:44Z</time>
      </trkpt>
      <trkpt lat="43.04243" lon="0.84928">
        <ele>483.3</ele>
        <time>2017-09-03T13:34:48Z</time>
      </trkpt>
      <trkpt lat="43.04248" lon="0.84981">
        <ele>481.7</ele>
        <time>2017-09-03T13:34:52Z</time>
      </trkpt>
      <trkpt lat="43.04261" lon="0.85037">
        <ele>479.4</ele>
        <time>2017-09-03T13:34:56Z</time>
      </trkpt>
      <trkpt lat="43.04285" lon="0.85096">
        <ele>475.7</ele>
        <time>2017-09-03T13:35:00Z</time>
      </trkpt>
      <trkpt lat="43.0431" lon="0.85163">
        <ele>470.5</ele>
        <time>2017-09-03T13:35:04Z</time>
      </trkpt>
      <trkpt lat="43.04334" lon="0.85235">
        <ele>469.4</ele>
        <time>2017-09-03T13:35:08Z</time>
      </trkpt>
      <trkpt lat="43.04355" lon="0.85303">
        <ele>463</ele>
        <time>2017-09-03T13:35:12Z</time>
      </trkpt>
      <trkpt lat="43.04365" lon="0.8534">
        <ele>459</ele>
        <time>2017-09-03T13:35:16Z</time>
      </trkpt>
      <trkpt lat="43.04351" lon="0.8535">
        <ele>457.3</ele>
        <time>2017-09-03T13:35:20Z</time>
      </trkpt>
      <trkpt lat="43.04328" lon="0.85349">
        <ele>456.9</ele>
        <time>2017-09-03T13:35:24Z</time>
      </trkpt>
      <trkpt lat="43.04292" lon="0.8535">
        <ele>455.1</ele>
        <time>2017-09-03T13:35:28Z</time>
      </trkpt>
      <trkpt lat="43.04249" lon="0.85352">
        <ele>452.7</ele>
        <time>2017-09-03T13:35:32Z</time>
      </trkpt>
      <trkpt lat="43.04206" lon="0.85354">
        <ele>450</ele>
        <time>2017-09-03T13:35:36Z</time>
      </trkpt>
      <trkpt lat="43.04165" lon="0.85355">
        <ele>448.2</ele>
        <time>2017-09-03T13:35:40Z</time>
      </trkpt>
      <trkpt lat="43.04124" lon="0.8535">
        <ele>446.9</ele>
        <time>2017-09-03T13:35:44Z</time>
      </trkpt>
      <trkpt lat="43.04086" lon="0.85348">
        <ele>444.4</ele>
        <time>2017-09-03T13:35:48Z</time>
      </trkpt>
      <trkpt lat="43.04053" lon="0.85375">
        <ele>441.7</ele>
        <time>2017-09-03T13:35:52Z</time>
      </trkpt>
      <trkpt lat="43.04023" lon="0.85404">
        <ele>439.2</ele>
        <time>2017-09-03T13:35:56Z</time>
      </trkpt>
      <trkpt lat="43.04012" lon="0.85422">
        <ele>438.2</ele>
        <time>2017-09-03T13:36:00Z</time>
      </trkpt>
      <trkpt lat="43.04022" lon="0.85444">
        <ele>437.5</ele>
        <time>2017-09-03T13:36:04Z</time>
      </trkpt>
      <trkpt lat="43.0404" lon="0.85469">
        <ele>437.7</ele>
        <time>2017-09-03T13:36:08Z</time>
      </trkpt>
      <trkpt lat="43.04058" lon="0.85494">
        <ele>438</ele>
        <time>2017-09-03T13:36:12Z</time>
      </trkpt>
      <trkpt lat="43.04075" lon="0.8552">
        <ele>438.2</ele>
        <time>2017-09-03T13:36:16Z</time>
      </trkpt>
      <trkpt lat="43.04088" lon="0.8555">
        <ele>438.3</ele>
        <time>2017-09-03T13:36:20Z</time>
      </trkpt>
      <trkpt lat="43.04097" lon="0.85581">
        <ele>438.5</ele>
        <time>2017-09-03T13:36:24Z</time>
      </trkpt>
      <trkpt lat="43.04104" lon="0.85613">
        <ele>439.1</ele>
        <time>2017-09-03T13:36:28Z</time>
      </trkpt>
      <trkpt lat="43.04111" lon="0.85644">
        <ele>439.1</ele>
        <time>2017-09-03T13:36:32Z</time>
      </trkpt>
      <trkpt lat="43.04121" lon="0.85671">
        <ele>439.2</ele>
        <time>2017-09-03T13:36:36Z</time>
      </trkpt>
      <trkpt lat="43.04135" lon="0.85695">
        <ele>439.5</ele>
        <time>2017-09-03T13:36:40Z</time>
      </trkpt>
      <trkpt lat="43.04143" lon="0.85713">
        <ele>438.9</ele>
        <time>2017-09-03T13:36:44Z</time>
      </trkpt>
      <trkpt lat="43.04127" lon="0.85731">
        <ele>438.6</ele>
        <time>2017-09-03T13:36:48Z</time>
      </trkpt>
      <trkpt lat="43.04103" lon="0.85754">
        <ele>437.7</ele>
        <time>2017-09-03T13:36:52Z</time>
      </trkpt>
      <trkpt lat="43.04077" lon="0.8578">
        <ele>436.1</ele>
        <time>2017-09-03T13:36:56Z</time>
      </trkpt>
      <trkpt lat="43.04053" lon="0.85808">
        <ele>434.7</ele>
        <time>2017-09-03T13:37:00Z</time>
      </trkpt>
      <trkpt lat="43.04051" lon="0.85843">
        <ele>434</ele>
        <time>2017-09-03T13:37:04Z</time>
      </trkpt>
      <trkpt lat="43.04053" lon="0.85871">
        <ele>434.1</ele>
        <time>2017-09-03T13:37:08Z</time>
      </trkpt>
      <trkpt lat="43.04048" lon="0.859">
        <ele>435.1</ele>
        <time>2017-09-03T13:37:12Z</time>
      </trkpt>
      <trkpt lat="43.04044" lon="0.85925">
        <ele>436.8</ele>
        <time>2017-09-03T13:37:16Z</time>
      </trkpt>
      <trkpt lat="43.04039" lon="0.85943">
        <ele>437.1</ele>
        <time>2017-09-03T13:37:20Z</time>
      </trkpt>
      <trkpt lat="43.04035" lon="0.8596">
        <ele>440.4</ele>
        <time>2017-09-03T13:37:24Z</time>
      </trkpt>
      <trkpt lat="43.04031" lon="0.8598">
        <ele>442</ele>
        <time>2017-09-03T13:37:28Z</time>
      </trkpt>
      <trkpt lat="43.04025" lon="0.85999">
        <ele>443.1</ele>
        <time>2017-09-03T13:37:32Z</time>
      </trkpt>
      <trkpt lat="43.04016" lon="0.86017">
        <ele>443.2</ele>
        <time>2017-09-03T13:37:36Z</time>
      </trkpt>
      <trkpt lat="43.04004" lon="0.86041">
        <ele>444</ele>
        <time>2017-09-03T13:37:40Z</time>
      </trkpt>
      <trkpt lat="43.03993" lon="0.86063">
        <ele>444.6</ele>
        <time>2017-09-03T13:37:44Z</time>
      </trkpt>
      <trkpt lat="43.03981" lon="0.86087">
        <ele>444.6</ele>
        <time>2017-09-03T13:37:48Z</time>
      </trkpt>
      <trkpt lat="43.03968" lon="0.8611">
        <ele>444.2</ele>
        <time>2017-09-03T13:37:52Z</time>
      </trkpt>
      <trkpt lat="43.03956" lon="0.86136">
        <ele>444.1</ele>
        <time>2017-09-03T13:37:56Z</time>
      </trkpt>
      <trkpt lat="43.03944" lon="0.86158">
        <ele>445.3</ele>
        <time>2017-09-03T13:38:00Z</time>
      </trkpt>
      <trkpt lat="43.03934" lon="0.86182">
        <ele>445.6</ele>
        <time>2017-09-03T13:38:04Z</time>
      </trkpt>
      <trkpt lat="43.0392" lon="0.86195">
        <ele>445.5</ele>
        <time>2017-09-03T13:38:08Z</time>
      </trkpt>
      <trkpt lat="43.03905" lon="0.86209">
        <ele>446.5</ele>
        <time>2017-09-03T13:38:12Z</time>
      </trkpt>
      <trkpt lat="43.03887" lon="0.86225">
        <ele>446.2</ele>
        <time>2017-09-03T13:38:16Z</time>
      </trkpt>
      <trkpt lat="43.03871" lon="0.86247">
        <ele>446.3</ele>
        <time>2017-09-03T13:38:20Z</time>
      </trkpt>
      <trkpt lat="43.0386" lon="0.86278">
        <ele>446.3</ele>
        <time>2017-09-03T13:38:24Z</time>
      </trkpt>
      <trkpt lat="43.03851" lon="0.86307">
        <ele>445.9</ele>
        <time>2017-09-03T13:38:28Z</time>
      </trkpt>
      <trkpt lat="43.03836" lon="0.8633">
        <ele>445.7</ele>
        <time>2017-09-03T13:38:32Z</time>
      </trkpt>
      <trkpt lat="43.03819" lon="0.86344">
        <ele>446.8</ele>
        <time>2017-09-03T13:38:36Z</time>
      </trkpt>
      <trkpt lat="43.03801" lon="0.86357">
        <ele>446.7</ele>
        <time>2017-09-03T13:38:40Z</time>
      </trkpt>
      <trkpt lat="43.03784" lon="0.86367">
        <ele>447.3</ele>
        <time>2017-09-03T13:38:44Z</time>
      </trkpt>
      <trkpt lat="43.03767" lon="0.86373">
        <ele>447</ele>
        <time>2017-09-03T13:38:48Z</time>
      </trkpt>
      <trkpt lat="43.0375" lon="0.86378">
        <ele>448.2</ele>
        <time>2017-09-03T13:38:52Z</time>
      </trkpt>
      <trkpt lat="43.03732" lon="0.86388">
        <ele>448.4</ele>
        <time>2017-09-03T13:38:56Z</time>
      </trkpt>
      <trkpt lat="43.03716" lon="0.86402">
        <ele>448.5</ele>
        <time>2017-09-03T13:39:00Z</time>
      </trkpt>
      <trkpt lat="43.03701" lon="0.86414">
        <ele>448.9</ele>
        <time>2017-09-03T13:39:04Z</time>
      </trkpt>
      <trkpt lat="43.03688" lon="0.8642">
        <ele>449.1</ele>
        <time>2017-09-03T13:39:08Z</time>
      </trkpt>
      <trkpt lat="43.03671" lon="0.86423">
        <ele>449.4</ele>
        <time>2017-09-03T13:39:12Z</time>
      </trkpt>
      <trkpt lat="43.03655" lon="0.86427">
        <ele>449.5</ele>
        <time>2017-09-03T13:39:16Z</time>
      </trkpt>
      <trkpt lat="43.03638" lon="0.86434">
        <ele>449.6</ele>
        <time>2017-09-03T13:39:20Z</time>
      </trkpt>
      <trkpt lat="43.0362" lon="0.86443">
        <ele>449.3</ele>
        <time>2017-09-03T13:39:24Z</time>
      </trkpt>
      <trkpt lat="43.03603" lon="0.86451">
        <ele>449.9</ele>
        <time>2017-09-03T13:39:28Z</time>
      </trkpt>
      <trkpt lat="43.03586" lon="0.86459">
        <ele>449.5</ele>
        <time>2017-09-03T13:39:32Z</time>
      </trkpt>
      <trkpt lat="43.03573" lon="0.86464">
        <ele>450</ele>
        <time>2017-09-03T13:39:36Z</time>
      </trkpt>
      <trkpt lat="43.0356" lon="0.86466">
        <ele>451</ele>
        <time>2017-09-03T13:39:40Z</time>
      </trkpt>
      <trkpt lat="43.03544" lon="0.86472">
        <ele>451.8</ele>
        <time>2017-09-03T13:39:44Z</time>
      </trkpt>
      <trkpt lat="43.03529" lon="0.86479">
        <ele>452</ele>
        <time>2017-09-03T13:39:48Z</time>
      </trkpt>
      <trkpt lat="43.03516" lon="0.86486">
        <ele>452.2</ele>
        <time>2017-09-03T13:39:52Z</time>
      </trkpt>
      <trkpt lat="43.03505" lon="0.86492">
        <ele>452.7</ele>
        <time>2017-09-03T13:39:56Z</time>
      </trkpt>
      <trkpt lat="43.03496" lon="0.865">
        <ele>453.1</ele>
        <time>2017-09-03T13:40:00Z</time>
      </trkpt>
      <trkpt lat="43.03491" lon="0.8651">
        <ele>453.8</ele>
        <time>2017-09-03T13:40:04Z</time>
      </trkpt>
      <trkpt lat="43.03486" lon="0.86521">
        <ele>454.5</ele>
        <time>2017-09-03T13:40:08Z</time>
      </trkpt>
      <trkpt lat="43.03481" lon="0.86531">
        <ele>455.2</ele>
        <time>2017-09-03T13:40:12Z</time>
      </trkpt>
      <trkpt lat="43.03476" lon="0.8654">
        <ele>455.9</ele>
        <time>2017-09-03T13:40:16Z</time>
      </trkpt>
      <trkpt lat="43.03471" lon="0.86554">
        <ele>456.7</ele>
        <time>2017-09-03T13:40:20Z</time>
      </trkpt>
      <trkpt lat="43.03465" lon="0.86566">
        <ele>458.3</ele>
        <time>2017-09-03T13:40:24Z</time>
      </trkpt>
      <trkpt lat="43.0346" lon="0.86578">
        <ele>459.5</ele>
        <time>2017-09-03T13:40:28Z</time>
      </trkpt>
      <trkpt lat="43.03456" lon="0.86593">
        <ele>460.4</ele>
        <time>2017-09-03T13:40:32Z</time>
      </trkpt>
      <trkpt lat="43.03455" lon="0.86612">
        <ele>460.6</ele>
        <time>2017-09-03T13:40:36Z</time>
      </trkpt>
      <trkpt lat="43.03455" lon="0.8663">
        <ele>460.8</ele>
        <time>2017-09-03T13:40:40Z</time>
      </trkpt>
      <trkpt lat="43.03453" lon="0.86644">
        <ele>461.5</ele>
        <time>2017-09-03T13:40:44Z</time>
      </trkpt>
      <trkpt lat="43.03451" lon="0.86656">
        <ele>462.6</ele>
        <time>2017-09-03T13:40:48Z</time>
      </trkpt>
      <trkpt lat="43.03449" lon="0.86665">
        <ele>463.6</ele>
        <time>2017-09-03T13:40:52Z</time>
      </trkpt>
      <trkpt lat="43.03453" lon="0.86679">
        <ele>463.9</ele>
        <time>2017-09-03T13:40:56Z</time>
      </trkpt>
      <trkpt lat="43.03458" lon="0.867">
        <ele>465.1</ele>
        <time>2017-09-03T13:41:00Z</time>
      </trkpt>
      <trkpt lat="43.03465" lon="0.86718">
        <ele>465.4</ele>
        <time>2017-09-03T13:41:04Z</time>
      </trkpt>
      <trkpt lat="43.0347" lon="0.86734">
        <ele>466.9</ele>
        <time>2017-09-03T13:41:08Z</time>
      </trkpt>
      <trkpt lat="43.03474" lon="0.86747">
        <ele>467.8</ele>
        <time>2017-09-03T13:41:11Z</time>
      </trkpt>
      <trkpt lat="43.03479" lon="0.86762">
        <ele>468.2</ele>
        <time>2017-09-03T13:41:15Z</time>
      </trkpt>
      <trkpt lat="43.03483" lon="0.86775">
        <ele>469.8</ele>
        <time>2017-09-03T13:41:19Z</time>
      </trkpt>
      <trkpt lat="43.03487" lon="0.8679">
        <ele>470.4</ele>
        <time>2017-09-03T13:41:23Z</time>
      </trkpt>
      <trkpt lat="43.03493" lon="0.86803">
        <ele>470.9</ele>
        <time>2017-09-03T13:41:27Z</time>
      </trkpt>
      <trkpt lat="43.03496" lon="0.86818">
        <ele>472.4</ele>
        <time>2017-09-03T13:41:31Z</time>
      </trkpt>
      <trkpt lat="43.03499" lon="0.86833">
        <ele>472.8</ele>
        <time>2017-09-03T13:41:35Z</time>
      </trkpt>
      <trkpt lat="43.03502" lon="0.86848">
        <ele>473.5</ele>
        <time>2017-09-03T13:41:39Z</time>
      </trkpt>
      <trkpt lat="43.03503" lon="0.86863">
        <ele>474.5</ele>
        <time>2017-09-03T13:41:43Z</time>
      </trkpt>
      <trkpt lat="43.03504" lon="0.86876">
        <ele>475.6</ele>
        <time>2017-09-03T13:41:47Z</time>
      </trkpt>
      <trkpt lat="43.03505" lon="0.86887">
        <ele>477.3</ele>
        <time>2017-09-03T13:41:51Z</time>
      </trkpt>
      <trkpt lat="43.03506" lon="0.869">
        <ele>478.1</ele>
        <time>2017-09-03T13:41:55Z</time>
      </trkpt>
      <trkpt lat="43.03504" lon="0.86911">
        <ele>479.8</ele>
        <time>2017-09-03T13:41:59Z</time>
      </trkpt>
      <trkpt lat="43.03499" lon="0.86909">
        <ele>480.8</ele>
        <time>2017-09-03T13:42:03Z</time>
      </trkpt>
      <trkpt lat="43.03499" lon="0.86901">
        <ele>481.5</ele>
        <time>2017-09-03T13:42:07Z</time>
      </trkpt>
      <trkpt lat="43.03498" lon="0.86892">
        <ele>482</ele>
        <time>2017-09-03T13:42:11Z</time>
      </trkpt>
      <trkpt lat="43.03496" lon="0.86886">
        <ele>483.3</ele>
        <time>2017-09-03T13:42:15Z</time>
      </trkpt>
      <trkpt lat="43.03493" lon="0.8688">
        <ele>483.6</ele>
        <time>2017-09-03T13:42:19Z</time>
      </trkpt>
      <trkpt lat="43.03491" lon="0.86873">
        <ele>484.6</ele>
        <time>2017-09-03T13:42:23Z</time>
      </trkpt>
      <trkpt lat="43.03484" lon="0.86862">
        <ele>485.1</ele>
        <time>2017-09-03T13:42:27Z</time>
      </trkpt>
      <trkpt lat="43.03479" lon="0.86851">
        <ele>485.7</ele>
        <time>2017-09-03T13:42:31Z</time>
      </trkpt>
      <trkpt lat="43.03475" lon="0.86842">
        <ele>487.1</ele>
        <time>2017-09-03T13:42:35Z</time>
      </trkpt>
      <trkpt lat="43.03468" lon="0.86832">
        <ele>488.3</ele>
        <time>2017-09-03T13:42:39Z</time>
      </trkpt>
      <trkpt lat="43.03463" lon="0.86824">
        <ele>488.7</ele>
        <time>2017-09-03T13:42:43Z</time>
      </trkpt>
      <trkpt lat="43.03457" lon="0.86814">
        <ele>489.2</ele>
        <time>2017-09-03T13:42:47Z</time>
      </trkpt>
      <trkpt lat="43.03449" lon="0.86803">
        <ele>490.3</ele>
        <time>2017-09-03T13:42:51Z</time>
      </trkpt>
      <trkpt lat="43.03444" lon="0.86792">
        <ele>490.7</ele>
        <time>2017-09-03T13:42:55Z</time>
      </trkpt>
      <trkpt lat="43.03438" lon="0.86782">
        <ele>491.5</ele>
        <time>2017-09-03T13:42:59Z</time>
      </trkpt>
      <trkpt lat="43.03433" lon="0.86774">
        <ele>491.7</ele>
        <time>2017-09-03T13:43:03Z</time>
      </trkpt>
      <trkpt lat="43.03429" lon="0.86757">
        <ele>493.2</ele>
        <time>2017-09-03T13:43:07Z</time>
      </trkpt>
      <trkpt lat="43.03422" lon="0.86745">
        <ele>494.5</ele>
        <time>2017-09-03T13:43:11Z</time>
      </trkpt>
      <trkpt lat="43.03419" lon="0.86733">
        <ele>495</ele>
        <time>2017-09-03T13:43:15Z</time>
      </trkpt>
      <trkpt lat="43.03409" lon="0.86717">
        <ele>494.9</ele>
        <time>2017-09-03T13:43:19Z</time>
      </trkpt>
      <trkpt lat="43.03401" lon="0.86704">
        <ele>496.1</ele>
        <time>2017-09-03T13:43:23Z</time>
      </trkpt>
      <trkpt lat="43.03396" lon="0.86691">
        <ele>497</ele>
        <time>2017-09-03T13:43:27Z</time>
      </trkpt>
      <trkpt lat="43.03387" lon="0.86674">
        <ele>498.5</ele>
        <time>2017-09-03T13:43:31Z</time>
      </trkpt>
      <trkpt lat="43.03382" lon="0.86666">
        <ele>498.9</ele>
        <time>2017-09-03T13:43:35Z</time>
      </trkpt>
      <trkpt lat="43.03375" lon="0.86652">
        <ele>499.7</ele>
        <time>2017-09-03T13:43:39Z</time>
      </trkpt>
      <trkpt lat="43.03368" lon="0.86638">
        <ele>500.2</ele>
        <time>2017-09-03T13:43:43Z</time>
      </trkpt>
      <trkpt lat="43.0336" lon="0.86633">
        <ele>501.2</ele>
        <time>2017-09-03T13:43:47Z</time>
      </trkpt>
      <trkpt lat="43.03353" lon="0.86627">
        <ele>502.7</ele>
        <time>2017-09-03T13:43:51Z</time>
      </trkpt>
      <trkpt lat="43.03346" lon="0.86619">
        <ele>503.5</ele>
        <time>2017-09-03T13:43:55Z</time>
      </trkpt>
      <trkpt lat="43.03338" lon="0.86611">
        <ele>504.6</ele>
        <time>2017-09-03T13:43:59Z</time>
      </trkpt>
      <trkpt lat="43.03327" lon="0.86605">
        <ele>505.3</ele>
        <time>2017-09-03T13:44:03Z</time>
      </trkpt>
      <trkpt lat="43.03318" lon="0.86597">
        <ele>505.5</ele>
        <time>2017-09-03T13:44:07Z</time>
      </trkpt>
      <trkpt lat="43.0331" lon="0.86593">
        <ele>507.6</ele>
        <time>2017-09-03T13:44:11Z</time>
      </trkpt>
      <trkpt lat="43.03303" lon="0.86593">
        <ele>508.4</ele>
        <time>2017-09-03T13:44:15Z</time>
      </trkpt>
      <trkpt lat="43.03297" lon="0.86587">
        <ele>509.3</ele>
        <time>2017-09-03T13:44:19Z</time>
      </trkpt>
      <trkpt lat="43.03286" lon="0.8658">
        <ele>510</ele>
        <time>2017-09-03T13:44:23Z</time>
      </trkpt>
      <trkpt lat="43.03278" lon="0.86582">
        <ele>511.6</ele>
        <time>2017-09-03T13:44:27Z</time>
      </trkpt>
      <trkpt lat="43.03278" lon="0.86591">
        <ele>511.9</ele>
        <time>2017-09-03T13:44:31Z</time>
      </trkpt>
      <trkpt lat="43.03285" lon="0.86594">
        <ele>512.5</ele>
        <time>2017-09-03T13:44:35Z</time>
      </trkpt>
      <trkpt lat="43.03295" lon="0.86598">
        <ele>513.3</ele>
        <time>2017-09-03T13:44:39Z</time>
      </trkpt>
      <trkpt lat="43.03304" lon="0.86608">
        <ele>514.2</ele>
        <time>2017-09-03T13:44:43Z</time>
      </trkpt>
      <trkpt lat="43.03313" lon="0.8662">
        <ele>514.6</ele>
        <time>2017-09-03T13:44:47Z</time>
      </trkpt>
      <trkpt lat="43.0332" lon="0.8663">
        <ele>515.5</ele>
        <time>2017-09-03T13:44:51Z</time>
      </trkpt>
      <trkpt lat="43.03324" lon="0.86641">
        <ele>516.3</ele>
        <time>2017-09-03T13:44:55Z</time>
      </trkpt>
      <trkpt lat="43.03324" lon="0.86649">
        <ele>517.7</ele>
        <time>2017-09-03T13:44:59Z</time>
      </trkpt>
      <trkpt lat="43.03329" lon="0.8666">
        <ele>519</ele>
        <time>2017-09-03T13:45:03Z</time>
      </trkpt>
      <trkpt lat="43.03333" lon="0.86674">
        <ele>520.5</ele>
        <time>2017-09-03T13:45:07Z</time>
      </trkpt>
      <trkpt lat="43.03338" lon="0.86682">
        <ele>520.9</ele>
        <time>2017-09-03T13:45:11Z</time>
      </trkpt>
      <trkpt lat="43.03344" lon="0.86694">
        <ele>522.3</ele>
        <time>2017-09-03T13:45:15Z</time>
      </trkpt>
      <trkpt lat="43.03346" lon="0.86706">
        <ele>523.7</ele>
        <time>2017-09-03T13:45:19Z</time>
      </trkpt>
      <trkpt lat="43.03349" lon="0.8672">
        <ele>524.3</ele>
        <time>2017-09-03T13:45:23Z</time>
      </trkpt>
      <trkpt lat="43.03347" lon="0.8673">
        <ele>525.9</ele>
        <time>2017-09-03T13:45:27Z</time>
      </trkpt>
      <trkpt lat="43.03351" lon="0.8674">
        <ele>526.9</ele>
        <time>2017-09-03T13:45:31Z</time>
      </trkpt>
      <trkpt lat="43.03351" lon="0.86748">
        <ele>528.2</ele>
        <time>2017-09-03T13:45:35Z</time>
      </trkpt>
      <trkpt lat="43.03354" lon="0.86761">
        <ele>529</ele>
        <time>2017-09-03T13:45:39Z</time>
      </trkpt>
      <trkpt lat="43.03355" lon="0.86778">
        <ele>530.8</ele>
        <time>2017-09-03T13:45:43Z</time>
      </trkpt>
      <trkpt lat="43.03354" lon="0.86787">
        <ele>532</ele>
        <time>2017-09-03T13:45:47Z</time>
      </trkpt>
      <trkpt lat="43.03355" lon="0.86794">
        <ele>533.3</ele>
        <time>2017-09-03T13:45:51Z</time>
      </trkpt>
      <trkpt lat="43.03359" lon="0.86812">
        <ele>533.8</ele>
        <time>2017-09-03T13:45:55Z</time>
      </trkpt>
      <trkpt lat="43.03367" lon="0.86827">
        <ele>534.8</ele>
        <time>2017-09-03T13:45:59Z</time>
      </trkpt>
      <trkpt lat="43.03371" lon="0.86842">
        <ele>535.8</ele>
        <time>2017-09-03T13:46:03Z</time>
      </trkpt>
      <trkpt lat="43.03372" lon="0.86853">
        <ele>537.2</ele>
        <time>2017-09-03T13:46:07Z</time>
      </trkpt>
      <trkpt lat="43.0337" lon="0.86867">
        <ele>537.5</ele>
        <time>2017-09-03T13:46:11Z</time>
      </trkpt>
      <trkpt lat="43.03372" lon="0.86878">
        <ele>538.5</ele>
        <time>2017-09-03T13:46:15Z</time>
      </trkpt>
      <trkpt lat="43.0337" lon="0.86893">
        <ele>540.2</ele>
        <time>2017-09-03T13:46:19Z</time>
      </trkpt>
      <trkpt lat="43.0337" lon="0.86908">
        <ele>540.7</ele>
        <time>2017-09-03T13:46:23Z</time>
      </trkpt>
      <trkpt lat="43.03374" lon="0.86924">
        <ele>540.8</ele>
        <time>2017-09-03T13:46:27Z</time>
      </trkpt>
      <trkpt lat="43.03373" lon="0.86936">
        <ele>542</ele>
        <time>2017-09-03T13:46:31Z</time>
      </trkpt>
      <trkpt lat="43.03372" lon="0.86951">
        <ele>542</ele>
        <time>2017-09-03T13:46:35Z</time>
      </trkpt>
      <trkpt lat="43.03376" lon="0.86973">
        <ele>542</ele>
        <time>2017-09-03T13:46:39Z</time>
      </trkpt>
      <trkpt lat="43.03371" lon="0.86987">
        <ele>542.6</ele>
        <time>2017-09-03T13:46:43Z</time>
      </trkpt>
      <trkpt lat="43.03371" lon="0.87009">
        <ele>542.4</ele>
        <time>2017-09-03T13:46:47Z</time>
      </trkpt>
      <trkpt lat="43.03367" lon="0.87024">
        <ele>543.2</ele>
        <time>2017-09-03T13:46:51Z</time>
      </trkpt>
      <trkpt lat="43.03363" lon="0.87034">
        <ele>544.4</ele>
        <time>2017-09-03T13:46:55Z</time>
      </trkpt>
      <trkpt lat="43.03355" lon="0.8705">
        <ele>545.1</ele>
        <time>2017-09-03T13:46:59Z</time>
      </trkpt>
      <trkpt lat="43.03347" lon="0.87062">
        <ele>546.3</ele>
        <time>2017-09-03T13:47:03Z</time>
      </trkpt>
      <trkpt lat="43.03337" lon="0.87072">
        <ele>547.8</ele>
        <time>2017-09-03T13:47:07Z</time>
      </trkpt>
      <trkpt lat="43.03336" lon="0.87082">
        <ele>548</ele>
        <time>2017-09-03T13:47:11Z</time>
      </trkpt>
      <trkpt lat="43.03328" lon="0.8709">
        <ele>549.2</ele>
        <time>2017-09-03T13:47:15Z</time>
      </trkpt>
      <trkpt lat="43.03319" lon="0.871">
        <ele>550.2</ele>
        <time>2017-09-03T13:47:19Z</time>
      </trkpt>
      <trkpt lat="43.0331" lon="0.87109">
        <ele>551.5</ele>
        <time>2017-09-03T13:47:23Z</time>
      </trkpt>
      <trkpt lat="43.033" lon="0.87116">
        <ele>551.7</ele>
        <time>2017-09-03T13:47:27Z</time>
      </trkpt>
      <trkpt lat="43.03289" lon="0.87121">
        <ele>552.8</ele>
        <time>2017-09-03T13:47:31Z</time>
      </trkpt>
      <trkpt lat="43.03278" lon="0.8712">
        <ele>553.7</ele>
        <time>2017-09-03T13:47:35Z</time>
      </trkpt>
      <trkpt lat="43.03264" lon="0.87124">
        <ele>555.2</ele>
        <time>2017-09-03T13:47:39Z</time>
      </trkpt>
      <trkpt lat="43.03253" lon="0.87127">
        <ele>556.6</ele>
        <time>2017-09-03T13:47:43Z</time>
      </trkpt>
      <trkpt lat="43.03243" lon="0.87133">
        <ele>556.8</ele>
        <time>2017-09-03T13:47:47Z</time>
      </trkpt>
      <trkpt lat="43.03233" lon="0.87136">
        <ele>557.9</ele>
        <time>2017-09-03T13:47:51Z</time>
      </trkpt>
      <trkpt lat="43.03222" lon="0.87143">
        <ele>558.9</ele>
        <time>2017-09-03T13:47:55Z</time>
      </trkpt>
      <trkpt lat="43.03214" lon="0.87143">
        <ele>558.7</ele>
        <time>2017-09-03T13:47:59Z</time>
      </trkpt>
      <trkpt lat="43.03202" lon="0.87144">
        <ele>560.7</ele>
        <time>2017-09-03T13:48:03Z</time>
      </trkpt>
      <trkpt lat="43.03191" lon="0.87146">
        <ele>561.7</ele>
        <time>2017-09-03T13:48:07Z</time>
      </trkpt>
      <trkpt lat="43.03178" lon="0.87149">
        <ele>562.3</ele>
        <time>2017-09-03T13:48:11Z</time>
      </trkpt>
      <trkpt lat="43.03166" lon="0.87151">
        <ele>563.6</ele>
        <time>2017-09-03T13:48:15Z</time>
      </trkpt>
      <trkpt lat="43.03163" lon="0.87158">
        <ele>563.6</ele>
        <time>2017-09-03T13:48:19Z</time>
      </trkpt>
      <trkpt lat="43.03153" lon="0.87158">
        <ele>564.6</ele>
        <time>2017-09-03T13:48:23Z</time>
      </trkpt>
      <trkpt lat="43.03143" lon="0.87162">
        <ele>566.4</ele>
        <time>2017-09-03T13:48:27Z</time>
      </trkpt>
      <trkpt lat="43.03131" lon="0.87171">
        <ele>567.4</ele>
        <time>2017-09-03T13:48:31Z</time>
      </trkpt>
      <trkpt lat="43.0312" lon="0.87179">
        <ele>567.7</ele>
        <time>2017-09-03T13:48:35Z</time>
      </trkpt>
      <trkpt lat="43.03111" lon="0.87181">
        <ele>569.2</ele>
        <time>2017-09-03T13:48:39Z</time>
      </trkpt>
      <trkpt lat="43.03098" lon="0.87182">
        <ele>570.3</ele>
        <time>2017-09-03T13:48:43Z</time>
      </trkpt>
      <trkpt lat="43.03089" lon="0.8718">
        <ele>571.4</ele>
        <time>2017-09-03T13:48:47Z</time>
      </trkpt>
      <trkpt lat="43.03078" lon="0.87182">
        <ele>571.9</ele>
        <time>2017-09-03T13:48:51Z</time>
      </trkpt>
      <trkpt lat="43.03071" lon="0.87188">
        <ele>572.5</ele>
        <time>2017-09-03T13:48:55Z</time>
      </trkpt>
      <trkpt lat="43.03058" lon="0.8719">
        <ele>573.8</ele>
        <time>2017-09-03T13:48:59Z</time>
      </trkpt>
      <trkpt lat="43.03047" lon="0.87192">
        <ele>574.8</ele>
        <time>2017-09-03T13:49:03Z</time>
      </trkpt>
      <trkpt lat="43.03041" lon="0.872">
        <ele>575.6</ele>
        <time>2017-09-03T13:49:07Z</time>
      </trkpt>
      <trkpt lat="43.03032" lon="0.87208">
        <ele>577.4</ele>
        <time>2017-09-03T13:49:11Z</time>
      </trkpt>
      <trkpt lat="43.03021" lon="0.87216">
        <ele>577.7</ele>
        <time>2017-09-03T13:49:15Z</time>
      </trkpt>
      <trkpt lat="43.03016" lon="0.87224">
        <ele>579</ele>
        <time>2017-09-03T13:49:19Z</time>
      </trkpt>
      <trkpt lat="43.0301" lon="0.87234">
        <ele>579.3</ele>
        <time>2017-09-03T13:49:23Z</time>
      </trkpt>
      <trkpt lat="43.03003" lon="0.87246">
        <ele>579.6</ele>
        <time>2017-09-03T13:49:27Z</time>
      </trkpt>
      <trkpt lat="43.02997" lon="0.87262">
        <ele>580.2</ele>
        <time>2017-09-03T13:49:31Z</time>
      </trkpt>
      <trkpt lat="43.02993" lon="0.87272">
        <ele>581.1</ele>
        <time>2017-09-03T13:49:35Z</time>
      </trkpt>
      <trkpt lat="43.02987" lon="0.87286">
        <ele>583.3</ele>
        <time>2017-09-03T13:49:39Z</time>
      </trkpt>
      <trkpt lat="43.02985" lon="0.873">
        <ele>584.2</ele>
        <time>2017-09-03T13:49:43Z</time>
      </trkpt>
      <trkpt lat="43.02978" lon="0.87314">
        <ele>584.9</ele>
        <time>2017-09-03T13:49:47Z</time>
      </trkpt>
      <trkpt lat="43.02973" lon="0.87328">
        <ele>585.5</ele>
        <time>2017-09-03T13:49:51Z</time>
      </trkpt>
      <trkpt lat="43.02973" lon="0.87339">
        <ele>587</ele>
        <time>2017-09-03T13:49:55Z</time>
      </trkpt>
      <trkpt lat="43.02973" lon="0.8736">
        <ele>588.2</ele>
        <time>2017-09-03T13:49:59Z</time>
      </trkpt>
      <trkpt lat="43.02971" lon="0.87377">
        <ele>588.8</ele>
        <time>2017-09-03T13:50:03Z</time>
      </trkpt>
      <trkpt lat="43.02969" lon="0.87389">
        <ele>589.3</ele>
        <time>2017-09-03T13:50:07Z</time>
      </trkpt>
      <trkpt lat="43.02977" lon="0.87401">
        <ele>589.9</ele>
        <time>2017-09-03T13:50:11Z</time>
      </trkpt>
      <trkpt lat="43.02988" lon="0.87413">
        <ele>590.4</ele>
        <time>2017-09-03T13:50:15Z</time>
      </trkpt>
      <trkpt lat="43.02994" lon="0.87426">
        <ele>591</ele>
        <time>2017-09-03T13:50:19Z</time>
      </trkpt>
      <trkpt lat="43.02989" lon="0.87436">
        <ele>592</ele>
        <time>2017-09-03T13:50:23Z</time>
      </trkpt>
      <trkpt lat="43.0298" lon="0.87432">
        <ele>592.4</ele>
        <time>2017-09-03T13:50:27Z</time>
      </trkpt>
      <trkpt lat="43.02968" lon="0.87417">
        <ele>594</ele>
        <time>2017-09-03T13:50:31Z</time>
      </trkpt>
      <trkpt lat="43.02961" lon="0.874">
        <ele>594.5</ele>
        <time>2017-09-03T13:50:35Z</time>
      </trkpt>
      <trkpt lat="43.02957" lon="0.87381">
        <ele>595.1</ele>
        <time>2017-09-03T13:50:39Z</time>
      </trkpt>
      <trkpt lat="43.02955" lon="0.87357">
        <ele>594.5</ele>
        <time>2017-09-03T13:50:43Z</time>
      </trkpt>
      <trkpt lat="43.02957" lon="0.87337">
        <ele>594.4</ele>
        <time>2017-09-03T13:50:47Z</time>
      </trkpt>
      <trkpt lat="43.02959" lon="0.87314">
        <ele>596.5</ele>
        <time>2017-09-03T13:50:51Z</time>
      </trkpt>
      <trkpt lat="43.02959" lon="0.87292">
        <ele>597.2</ele>
        <time>2017-09-03T13:50:55Z</time>
      </trkpt>
      <trkpt lat="43.02964" lon="0.87275">
        <ele>597.7</ele>
        <time>2017-09-03T13:50:59Z</time>
      </trkpt>
      <trkpt lat="43.02964" lon="0.87254">
        <ele>598.4</ele>
        <time>2017-09-03T13:51:03Z</time>
      </trkpt>
      <trkpt lat="43.02966" lon="0.87235">
        <ele>598.4</ele>
        <time>2017-09-03T13:51:07Z</time>
      </trkpt>
      <trkpt lat="43.02969" lon="0.87215">
        <ele>600</ele>
        <time>2017-09-03T13:51:11Z</time>
      </trkpt>
      <trkpt lat="43.02978" lon="0.87197">
        <ele>600</ele>
        <time>2017-09-03T13:51:15Z</time>
      </trkpt>
      <trkpt lat="43.0299" lon="0.87184">
        <ele>600</ele>
        <time>2017-09-03T13:51:19Z</time>
      </trkpt>
      <trkpt lat="43.02996" lon="0.87167">
        <ele>601.6</ele>
        <time>2017-09-03T13:51:23Z</time>
      </trkpt>
      <trkpt lat="43.0301" lon="0.87154">
        <ele>602.2</ele>
        <time>2017-09-03T13:51:27Z</time>
      </trkpt>
      <trkpt lat="43.03018" lon="0.87139">
        <ele>603.4</ele>
        <time>2017-09-03T13:51:31Z</time>
      </trkpt>
      <trkpt lat="43.03025" lon="0.87121">
        <ele>603.4</ele>
        <time>2017-09-03T13:51:35Z</time>
      </trkpt>
      <trkpt lat="43.03033" lon="0.87107">
        <ele>604.3</ele>
        <time>2017-09-03T13:51:39Z</time>
      </trkpt>
      <trkpt lat="43.03043" lon="0.87092">
        <ele>605.1</ele>
        <time>2017-09-03T13:51:43Z</time>
      </trkpt>
      <trkpt lat="43.03056" lon="0.87083">
        <ele>605.9</ele>
        <time>2017-09-03T13:51:47Z</time>
      </trkpt>
      <trkpt lat="43.03067" lon="0.87078">
        <ele>606.6</ele>
        <time>2017-09-03T13:51:51Z</time>
      </trkpt>
      <trkpt lat="43.03075" lon="0.8707">
        <ele>607.7</ele>
        <time>2017-09-03T13:51:55Z</time>
      </trkpt>
      <trkpt lat="43.03088" lon="0.87066">
        <ele>609.3</ele>
        <time>2017-09-03T13:51:59Z</time>
      </trkpt>
      <trkpt lat="43.03102" lon="0.87062">
        <ele>609.7</ele>
        <time>2017-09-03T13:52:03Z</time>
      </trkpt>
      <trkpt lat="43.03114" lon="0.87055">
        <ele>610.7</ele>
        <time>2017-09-03T13:52:07Z</time>
      </trkpt>
      <trkpt lat="43.03126" lon="0.87044">
        <ele>611.6</ele>
        <time>2017-09-03T13:52:11Z</time>
      </trkpt>
      <trkpt lat="43.0313" lon="0.8703">
        <ele>612.7</ele>
        <time>2017-09-03T13:52:15Z</time>
      </trkpt>
      <trkpt lat="43.03128" lon="0.87014">
        <ele>613.6</ele>
        <time>2017-09-03T13:52:19Z</time>
      </trkpt>
      <trkpt lat="43.03123" lon="0.86998">
        <ele>615</ele>
        <time>2017-09-03T13:52:23Z</time>
      </trkpt>
      <trkpt lat="43.03111" lon="0.86986">
        <ele>615.2</ele>
        <time>2017-09-03T13:52:27Z</time>
      </trkpt>
      <trkpt lat="43.031" lon="0.86976">
        <ele>617.1</ele>
        <time>2017-09-03T13:52:31Z</time>
      </trkpt>
      <trkpt lat="43.03092" lon="0.86962">
        <ele>617.5</ele>
        <time>2017-09-03T13:52:35Z</time>
      </trkpt>
      <trkpt lat="43.03085" lon="0.86952">
        <ele>617.7</ele>
        <time>2017-09-03T13:52:39Z</time>
      </trkpt>
      <trkpt lat="43.03082" lon="0.86943">
        <ele>618.4</ele>
        <time>2017-09-03T13:52:43Z</time>
      </trkpt>
      <trkpt lat="43.03079" lon="0.86925">
        <ele>620.3</ele>
        <time>2017-09-03T13:52:47Z</time>
      </trkpt>
      <trkpt lat="43.03074" lon="0.86911">
        <ele>620.8</ele>
        <time>2017-09-03T13:52:51Z</time>
      </trkpt>
      <trkpt lat="43.03071" lon="0.86891">
        <ele>622.6</ele>
        <time>2017-09-03T13:52:55Z</time>
      </trkpt>
      <trkpt lat="43.03068" lon="0.86876">
        <ele>622.9</ele>
        <time>2017-09-03T13:52:59Z</time>
      </trkpt>
      <trkpt lat="43.03062" lon="0.86859">
        <ele>623.7</ele>
        <time>2017-09-03T13:53:03Z</time>
      </trkpt>
      <trkpt lat="43.03059" lon="0.86846">
        <ele>624.3</ele>
        <time>2017-09-03T13:53:07Z</time>
      </trkpt>
      <trkpt lat="43.03051" lon="0.86832">
        <ele>625.6</ele>
        <time>2017-09-03T13:53:11Z</time>
      </trkpt>
      <trkpt lat="43.03042" lon="0.86816">
        <ele>626.4</ele>
        <time>2017-09-03T13:53:15Z</time>
      </trkpt>
      <trkpt lat="43.03032" lon="0.86806">
        <ele>626.4</ele>
        <time>2017-09-03T13:53:19Z</time>
      </trkpt>
      <trkpt lat="43.03023" lon="0.86794">
        <ele>627.3</ele>
        <time>2017-09-03T13:53:23Z</time>
      </trkpt>
      <trkpt lat="43.03013" lon="0.86784">
        <ele>628.9</ele>
        <time>2017-09-03T13:53:27Z</time>
      </trkpt>
      <trkpt lat="43.03005" lon="0.86781">
        <ele>630</ele>
        <time>2017-09-03T13:53:31Z</time>
      </trkpt>
      <trkpt lat="43.02994" lon="0.86778">
        <ele>630.1</ele>
        <time>2017-09-03T13:53:35Z</time>
      </trkpt>
      <trkpt lat="43.02982" lon="0.86778">
        <ele>631.7</ele>
        <time>2017-09-03T13:53:39Z</time>
      </trkpt>
      <trkpt lat="43.02971" lon="0.86776">
        <ele>632.6</ele>
        <time>2017-09-03T13:53:43Z</time>
      </trkpt>
      <trkpt lat="43.02962" lon="0.86778">
        <ele>633.6</ele>
        <time>2017-09-03T13:53:47Z</time>
      </trkpt>
      <trkpt lat="43.0295" lon="0.86781">
        <ele>634.6</ele>
        <time>2017-09-03T13:53:51Z</time>
      </trkpt>
      <trkpt lat="43.0294" lon="0.86783">
        <ele>634.6</ele>
        <time>2017-09-03T13:53:55Z</time>
      </trkpt>
      <trkpt lat="43.0293" lon="0.86788">
        <ele>636</ele>
        <time>2017-09-03T13:53:59Z</time>
      </trkpt>
      <trkpt lat="43.02914" lon="0.86786">
        <ele>637.2</ele>
        <time>2017-09-03T13:54:03Z</time>
      </trkpt>
      <trkpt lat="43.02906" lon="0.86783">
        <ele>638.7</ele>
        <time>2017-09-03T13:54:07Z</time>
      </trkpt>
      <trkpt lat="43.02897" lon="0.8678">
        <ele>639.3</ele>
        <time>2017-09-03T13:54:11Z</time>
      </trkpt>
      <trkpt lat="43.02886" lon="0.86774">
        <ele>640.1</ele>
        <time>2017-09-03T13:54:15Z</time>
      </trkpt>
      <trkpt lat="43.02878" lon="0.86769">
        <ele>640.9</ele>
        <time>2017-09-03T13:54:19Z</time>
      </trkpt>
      <trkpt lat="43.02871" lon="0.86759">
        <ele>641.8</ele>
        <time>2017-09-03T13:54:23Z</time>
      </trkpt>
      <trkpt lat="43.02865" lon="0.8675">
        <ele>642.9</ele>
        <time>2017-09-03T13:54:27Z</time>
      </trkpt>
      <trkpt lat="43.02862" lon="0.86738">
        <ele>643.9</ele>
        <time>2017-09-03T13:54:31Z</time>
      </trkpt>
      <trkpt lat="43.02858" lon="0.86728">
        <ele>645.2</ele>
        <time>2017-09-03T13:54:35Z</time>
      </trkpt>
      <trkpt lat="43.02855" lon="0.86717">
        <ele>646.3</ele>
        <time>2017-09-03T13:54:39Z</time>
      </trkpt>
      <trkpt lat="43.02852" lon="0.86704">
        <ele>647</ele>
        <time>2017-09-03T13:54:43Z</time>
      </trkpt>
      <trkpt lat="43.02849" lon="0.86691">
        <ele>647.7</ele>
        <time>2017-09-03T13:54:47Z</time>
      </trkpt>
      <trkpt lat="43.02842" lon="0.86679">
        <ele>648.8</ele>
        <time>2017-09-03T13:54:51Z</time>
      </trkpt>
      <trkpt lat="43.02838" lon="0.86665">
        <ele>649.9</ele>
        <time>2017-09-03T13:54:55Z</time>
      </trkpt>
      <trkpt lat="43.02833" lon="0.86657">
        <ele>651</ele>
        <time>2017-09-03T13:54:59Z</time>
      </trkpt>
      <trkpt lat="43.02826" lon="0.86645">
        <ele>652.2</ele>
        <time>2017-09-03T13:55:03Z</time>
      </trkpt>
      <trkpt lat="43.02823" lon="0.86633">
        <ele>652.6</ele>
        <time>2017-09-03T13:55:07Z</time>
      </trkpt>
      <trkpt lat="43.02822" lon="0.8662">
        <ele>653.8</ele>
        <time>2017-09-03T13:55:11Z</time>
      </trkpt>
      <trkpt lat="43.02825" lon="0.86606">
        <ele>654.2</ele>
        <time>2017-09-03T13:55:15Z</time>
      </trkpt>
      <trkpt lat="43.02827" lon="0.86593">
        <ele>655.7</ele>
        <time>2017-09-03T13:55:19Z</time>
      </trkpt>
      <trkpt lat="43.02822" lon="0.86577">
        <ele>656</ele>
        <time>2017-09-03T13:55:23Z</time>
      </trkpt>
      <trkpt lat="43.02818" lon="0.86564">
        <ele>656.7</ele>
        <time>2017-09-03T13:55:27Z</time>
      </trkpt>
      <trkpt lat="43.02811" lon="0.86554">
        <ele>658.3</ele>
        <time>2017-09-03T13:55:31Z</time>
      </trkpt>
      <trkpt lat="43.02798" lon="0.86549">
        <ele>659.5</ele>
        <time>2017-09-03T13:55:35Z</time>
      </trkpt>
      <trkpt lat="43.02783" lon="0.86551">
        <ele>660</ele>
        <time>2017-09-03T13:55:39Z</time>
      </trkpt>
      <trkpt lat="43.02772" lon="0.86557">
        <ele>660.3</ele>
        <time>2017-09-03T13:55:43Z</time>
      </trkpt>
      <trkpt lat="43.02761" lon="0.86559">
        <ele>661.3</ele>
        <time>2017-09-03T13:55:47Z</time>
      </trkpt>
      <trkpt lat="43.02753" lon="0.86563">
        <ele>662.4</ele>
        <time>2017-09-03T13:55:51Z</time>
      </trkpt>
      <trkpt lat="43.02739" lon="0.86565">
        <ele>663.1</ele>
        <time>2017-09-03T13:55:55Z</time>
      </trkpt>
      <trkpt lat="43.02727" lon="0.86565">
        <ele>663.5</ele>
        <time>2017-09-03T13:55:59Z</time>
      </trkpt>
      <trkpt lat="43.02719" lon="0.86571">
        <ele>664.7</ele>
        <time>2017-09-03T13:56:03Z</time>
      </trkpt>
      <trkpt lat="43.02705" lon="0.86577">
        <ele>665.5</ele>
        <time>2017-09-03T13:56:07Z</time>
      </trkpt>
      <trkpt lat="43.02691" lon="0.86583">
        <ele>666.1</ele>
        <time>2017-09-03T13:56:11Z</time>
      </trkpt>
      <trkpt lat="43.02678" lon="0.86582">
        <ele>666.5</ele>
        <time>2017-09-03T13:56:15Z</time>
      </trkpt>
      <trkpt lat="43.02665" lon="0.86579">
        <ele>667.5</ele>
        <time>2017-09-03T13:56:19Z</time>
      </trkpt>
      <trkpt lat="43.0265" lon="0.86581">
        <ele>668.8</ele>
        <time>2017-09-03T13:56:23Z</time>
      </trkpt>
      <trkpt lat="43.02637" lon="0.86582">
        <ele>670.2</ele>
        <time>2017-09-03T13:56:27Z</time>
      </trkpt>
      <trkpt lat="43.02623" lon="0.86582">
        <ele>670.2</ele>
        <time>2017-09-03T13:56:31Z</time>
      </trkpt>
      <trkpt lat="43.02613" lon="0.86582">
        <ele>671.6</ele>
        <time>2017-09-03T13:56:35Z</time>
      </trkpt>
      <trkpt lat="43.02601" lon="0.86581">
        <ele>672.3</ele>
        <time>2017-09-03T13:56:39Z</time>
      </trkpt>
      <trkpt lat="43.02589" lon="0.86578">
        <ele>673.1</ele>
        <time>2017-09-03T13:56:43Z</time>
      </trkpt>
      <trkpt lat="43.02578" lon="0.86571">
        <ele>673.8</ele>
        <time>2017-09-03T13:56:47Z</time>
      </trkpt>
      <trkpt lat="43.02564" lon="0.86566">
        <ele>674.6</ele>
        <time>2017-09-03T13:56:51Z</time>
      </trkpt>
      <trkpt lat="43.0255" lon="0.86564">
        <ele>674.8</ele>
        <time>2017-09-03T13:56:55Z</time>
      </trkpt>
      <trkpt lat="43.02539" lon="0.86558">
        <ele>676</ele>
        <time>2017-09-03T13:56:59Z</time>
      </trkpt>
      <trkpt lat="43.02529" lon="0.86549">
        <ele>676.7</ele>
        <time>2017-09-03T13:57:03Z</time>
      </trkpt>
      <trkpt lat="43.0252" lon="0.8654">
        <ele>677.4</ele>
        <time>2017-09-03T13:57:07Z</time>
      </trkpt>
      <trkpt lat="43.02508" lon="0.86531">
        <ele>678.7</ele>
        <time>2017-09-03T13:57:11Z</time>
      </trkpt>
      <trkpt lat="43.02493" lon="0.86523">
        <ele>679.7</ele>
        <time>2017-09-03T13:57:15Z</time>
      </trkpt>
      <trkpt lat="43.02481" lon="0.86519">
        <ele>679.9</ele>
        <time>2017-09-03T13:57:19Z</time>
      </trkpt>
      <trkpt lat="43.02467" lon="0.86519">
        <ele>679.6</ele>
        <time>2017-09-03T13:57:23Z</time>
      </trkpt>
      <trkpt lat="43.02454" lon="0.86519">
        <ele>681.5</ele>
        <time>2017-09-03T13:57:27Z</time>
      </trkpt>
      <trkpt lat="43.02444" lon="0.86519">
        <ele>682.3</ele>
        <time>2017-09-03T13:57:31Z</time>
      </trkpt>
      <trkpt lat="43.02434" lon="0.86522">
        <ele>682.7</ele>
        <time>2017-09-03T13:57:35Z</time>
      </trkpt>
      <trkpt lat="43.02421" lon="0.86522">
        <ele>683.5</ele>
        <time>2017-09-03T13:57:39Z</time>
      </trkpt>
      <trkpt lat="43.02408" lon="0.8652">
        <ele>684.3</ele>
        <time>2017-09-03T13:57:43Z</time>
      </trkpt>
      <trkpt lat="43.02394" lon="0.8652">
        <ele>685.6</ele>
        <time>2017-09-03T13:57:47Z</time>
      </trkpt>
      <trkpt lat="43.02383" lon="0.86521">
        <ele>686.6</ele>
        <time>2017-09-03T13:57:51Z</time>
      </trkpt>
      <trkpt lat="43.02372" lon="0.86519">
        <ele>687.2</ele>
        <time>2017-09-03T13:57:55Z</time>
      </trkpt>
      <trkpt lat="43.0236" lon="0.86516">
        <ele>688.4</ele>
        <time>2017-09-03T13:57:59Z</time>
      </trkpt>
      <trkpt lat="43.02348" lon="0.86518">
        <ele>688.9</ele>
        <time>2017-09-03T13:58:03Z</time>
      </trkpt>
      <trkpt lat="43.02336" lon="0.86517">
        <ele>689.6</ele>
        <time>2017-09-03T13:58:07Z</time>
      </trkpt>
      <trkpt lat="43.02327" lon="0.86518">
        <ele>690.5</ele>
        <time>2017-09-03T13:58:11Z</time>
      </trkpt>
      <trkpt lat="43.02313" lon="0.86511">
        <ele>690.8</ele>
        <time>2017-09-03T13:58:15Z</time>
      </trkpt>
      <trkpt lat="43.023" lon="0.8651">
        <ele>692.7</ele>
        <time>2017-09-03T13:58:19Z</time>
      </trkpt>
      <trkpt lat="43.02285" lon="0.86508">
        <ele>693.9</ele>
        <time>2017-09-03T13:58:23Z</time>
      </trkpt>
      <trkpt lat="43.02276" lon="0.86507">
        <ele>694.6</ele>
        <time>2017-09-03T13:58:27Z</time>
      </trkpt>
      <trkpt lat="43.02262" lon="0.86508">
        <ele>695.4</ele>
        <time>2017-09-03T13:58:31Z</time>
      </trkpt>
      <trkpt lat="43.02247" lon="0.86508">
        <ele>696.1</ele>
        <time>2017-09-03T13:58:35Z</time>
      </trkpt>
      <trkpt lat="43.02235" lon="0.86503">
        <ele>697.1</ele>
        <time>2017-09-03T13:58:39Z</time>
      </trkpt>
      <trkpt lat="43.0222" lon="0.86508">
        <ele>698.2</ele>
        <time>2017-09-03T13:58:43Z</time>
      </trkpt>
      <trkpt lat="43.02207" lon="0.86513">
        <ele>699.2</ele>
        <time>2017-09-03T13:58:47Z</time>
      </trkpt>
      <trkpt lat="43.02189" lon="0.86521">
        <ele>699.2</ele>
        <time>2017-09-03T13:58:51Z</time>
      </trkpt>
      <trkpt lat="43.02169" lon="0.8653">
        <ele>700.5</ele>
        <time>2017-09-03T13:58:55Z</time>
      </trkpt>
      <trkpt lat="43.02143" lon="0.86526">
        <ele>699.9</ele>
        <time>2017-09-03T13:58:59Z</time>
      </trkpt>
      <trkpt lat="43.02122" lon="0.86522">
        <ele>697.9</ele>
        <time>2017-09-03T13:59:03Z</time>
      </trkpt>
      <trkpt lat="43.02103" lon="0.86519">
        <ele>695.7</ele>
        <time>2017-09-03T13:59:07Z</time>
      </trkpt>
      <trkpt lat="43.02101" lon="0.86517">
        <ele>693.8</ele>
        <time>2017-09-03T13:59:11Z</time>
      </trkpt>
      <trkpt lat="43.02104" lon="0.86515">
        <ele>693.8</ele>
        <time>2017-09-03T13:59:15Z</time>
      </trkpt>
      <trkpt lat="43.021" lon="0.8652">
        <ele>693.8</ele>
        <time>2017-09-03T13:59:19Z</time>
      </trkpt>
      <trkpt lat="43.02088" lon="0.86519">
        <ele>693.7</ele>
        <time>2017-09-03T13:59:27Z</time>
      </trkpt>
      <trkpt lat="43.02066" lon="0.86522">
        <ele>692.6</ele>
        <time>2017-09-03T13:59:31Z</time>
      </trkpt>
      <trkpt lat="43.02039" lon="0.86509">
        <ele>692</ele>
        <time>2017-09-03T13:59:35Z</time>
      </trkpt>
      <trkpt lat="43.02015" lon="0.86498">
        <ele>692.5</ele>
        <time>2017-09-03T13:59:39Z</time>
      </trkpt>
      <trkpt lat="43.01997" lon="0.86493">
        <ele>692.7</ele>
        <time>2017-09-03T13:59:43Z</time>
      </trkpt>
      <trkpt lat="43.01981" lon="0.86492">
        <ele>694.9</ele>
        <time>2017-09-03T13:59:47Z</time>
      </trkpt>
      <trkpt lat="43.01967" lon="0.86485">
        <ele>696</ele>
        <time>2017-09-03T13:59:51Z</time>
      </trkpt>
      <trkpt lat="43.01951" lon="0.86473">
        <ele>697.3</ele>
        <time>2017-09-03T13:59:55Z</time>
      </trkpt>
      <trkpt lat="43.01939" lon="0.86461">
        <ele>697.7</ele>
        <time>2017-09-03T13:59:59Z</time>
      </trkpt>
      <trkpt lat="43.0193" lon="0.86444">
        <ele>699.4</ele>
        <time>2017-09-03T14:00:03Z</time>
      </trkpt>
      <trkpt lat="43.01921" lon="0.8643">
        <ele>700.3</ele>
        <time>2017-09-03T14:00:07Z</time>
      </trkpt>
      <trkpt lat="43.01913" lon="0.86411">
        <ele>701.7</ele>
        <time>2017-09-03T14:00:11Z</time>
      </trkpt>
      <trkpt lat="43.01901" lon="0.86391">
        <ele>701.9</ele>
        <time>2017-09-03T14:00:15Z</time>
      </trkpt>
      <trkpt lat="43.0189" lon="0.86374">
        <ele>703.3</ele>
        <time>2017-09-03T14:00:19Z</time>
      </trkpt>
      <trkpt lat="43.01885" lon="0.86354">
        <ele>704.1</ele>
        <time>2017-09-03T14:00:23Z</time>
      </trkpt>
      <trkpt lat="43.01881" lon="0.86336">
        <ele>705.2</ele>
        <time>2017-09-03T14:00:27Z</time>
      </trkpt>
      <trkpt lat="43.01884" lon="0.86318">
        <ele>706.5</ele>
        <time>2017-09-03T14:00:31Z</time>
      </trkpt>
      <trkpt lat="43.01887" lon="0.86296">
        <ele>706.6</ele>
        <time>2017-09-03T14:00:35Z</time>
      </trkpt>
      <trkpt lat="43.01891" lon="0.86274">
        <ele>706.6</ele>
        <time>2017-09-03T14:00:39Z</time>
      </trkpt>
      <trkpt lat="43.01892" lon="0.86257">
        <ele>708.4</ele>
        <time>2017-09-03T14:00:43Z</time>
      </trkpt>
      <trkpt lat="43.01887" lon="0.86242">
        <ele>709.3</ele>
        <time>2017-09-03T14:00:47Z</time>
      </trkpt>
      <trkpt lat="43.01879" lon="0.86231">
        <ele>709.6</ele>
        <time>2017-09-03T14:00:51Z</time>
      </trkpt>
      <trkpt lat="43.01871" lon="0.86221">
        <ele>710.8</ele>
        <time>2017-09-03T14:00:55Z</time>
      </trkpt>
      <trkpt lat="43.01866" lon="0.86217">
        <ele>712.6</ele>
        <time>2017-09-03T14:00:59Z</time>
      </trkpt>
      <trkpt lat="43.01861" lon="0.8621">
        <ele>713.8</ele>
        <time>2017-09-03T14:01:03Z</time>
      </trkpt>
      <trkpt lat="43.01855" lon="0.86201">
        <ele>715.1</ele>
        <time>2017-09-03T14:01:07Z</time>
      </trkpt>
      <trkpt lat="43.01851" lon="0.8619">
        <ele>715.7</ele>
        <time>2017-09-03T14:01:11Z</time>
      </trkpt>
      <trkpt lat="43.01844" lon="0.86172">
        <ele>717.2</ele>
        <time>2017-09-03T14:01:15Z</time>
      </trkpt>
      <trkpt lat="43.01837" lon="0.86152">
        <ele>718.2</ele>
        <time>2017-09-03T14:01:19Z</time>
      </trkpt>
      <trkpt lat="43.01827" lon="0.86127">
        <ele>718.7</ele>
        <time>2017-09-03T14:01:23Z</time>
      </trkpt>
      <trkpt lat="43.01815" lon="0.86099">
        <ele>717.4</ele>
        <time>2017-09-03T14:01:27Z</time>
      </trkpt>
      <trkpt lat="43.01798" lon="0.86076">
        <ele>717.4</ele>
        <time>2017-09-03T14:01:31Z</time>
      </trkpt>
      <trkpt lat="43.01783" lon="0.8605">
        <ele>716.6</ele>
        <time>2017-09-03T14:01:35Z</time>
      </trkpt>
      <trkpt lat="43.01768" lon="0.86027">
        <ele>717.3</ele>
        <time>2017-09-03T14:01:39Z</time>
      </trkpt>
      <trkpt lat="43.01746" lon="0.86005">
        <ele>717.3</ele>
        <time>2017-09-03T14:01:43Z</time>
      </trkpt>
      <trkpt lat="43.01713" lon="0.85983">
        <ele>715.5</ele>
        <time>2017-09-03T14:01:47Z</time>
      </trkpt>
      <trkpt lat="43.01673" lon="0.85955">
        <ele>711.3</ele>
        <time>2017-09-03T14:01:51Z</time>
      </trkpt>
      <trkpt lat="43.01638" lon="0.85947">
        <ele>709.2</ele>
        <time>2017-09-03T14:01:55Z</time>
      </trkpt>
      <trkpt lat="43.01615" lon="0.85943">
        <ele>708</ele>
        <time>2017-09-03T14:01:59Z</time>
      </trkpt>
      <trkpt lat="43.01601" lon="0.85934">
        <ele>707.8</ele>
        <time>2017-09-03T14:02:03Z</time>
      </trkpt>
      <trkpt lat="43.01607" lon="0.8591">
        <ele>708.6</ele>
        <time>2017-09-03T14:02:07Z</time>
      </trkpt>
      <trkpt lat="43.01605" lon="0.85893">
        <ele>710.2</ele>
        <time>2017-09-03T14:02:11Z</time>
      </trkpt>
      <trkpt lat="43.01603" lon="0.85872">
        <ele>710.6</ele>
        <time>2017-09-03T14:02:15Z</time>
      </trkpt>
      <trkpt lat="43.01602" lon="0.85855">
        <ele>712.2</ele>
        <time>2017-09-03T14:02:19Z</time>
      </trkpt>
      <trkpt lat="43.01598" lon="0.85839">
        <ele>712.2</ele>
        <time>2017-09-03T14:02:23Z</time>
      </trkpt>
      <trkpt lat="43.01593" lon="0.85824">
        <ele>712.2</ele>
        <time>2017-09-03T14:02:27Z</time>
      </trkpt>
      <trkpt lat="43.01582" lon="0.85809">
        <ele>713.6</ele>
        <time>2017-09-03T14:02:31Z</time>
      </trkpt>
      <trkpt lat="43.01571" lon="0.85796">
        <ele>713.6</ele>
        <time>2017-09-03T14:02:35Z</time>
      </trkpt>
      <trkpt lat="43.01557" lon="0.85789">
        <ele>714.9</ele>
        <time>2017-09-03T14:02:39Z</time>
      </trkpt>
      <trkpt lat="43.01543" lon="0.85785">
        <ele>715.1</ele>
        <time>2017-09-03T14:02:43Z</time>
      </trkpt>
      <trkpt lat="43.0153" lon="0.85784">
        <ele>716.9</ele>
        <time>2017-09-03T14:02:47Z</time>
      </trkpt>
      <trkpt lat="43.01514" lon="0.85782">
        <ele>717.2</ele>
        <time>2017-09-03T14:02:51Z</time>
      </trkpt>
      <trkpt lat="43.01501" lon="0.85781">
        <ele>717.9</ele>
        <time>2017-09-03T14:02:55Z</time>
      </trkpt>
      <trkpt lat="43.01487" lon="0.85779">
        <ele>719.2</ele>
        <time>2017-09-03T14:02:59Z</time>
      </trkpt>
      <trkpt lat="43.01473" lon="0.85781">
        <ele>720.1</ele>
        <time>2017-09-03T14:03:03Z</time>
      </trkpt>
      <trkpt lat="43.01459" lon="0.85777">
        <ele>720.9</ele>
        <time>2017-09-03T14:03:07Z</time>
      </trkpt>
      <trkpt lat="43.01446" lon="0.85771">
        <ele>722.1</ele>
        <time>2017-09-03T14:03:11Z</time>
      </trkpt>
      <trkpt lat="43.01433" lon="0.85764">
        <ele>723.4</ele>
        <time>2017-09-03T14:03:15Z</time>
      </trkpt>
      <trkpt lat="43.01421" lon="0.85759">
        <ele>723.8</ele>
        <time>2017-09-03T14:03:19Z</time>
      </trkpt>
      <trkpt lat="43.01409" lon="0.85752">
        <ele>724.1</ele>
        <time>2017-09-03T14:03:23Z</time>
      </trkpt>
      <trkpt lat="43.01395" lon="0.85743">
        <ele>725.2</ele>
        <time>2017-09-03T14:03:27Z</time>
      </trkpt>
      <trkpt lat="43.01385" lon="0.85735">
        <ele>725.9</ele>
        <time>2017-09-03T14:03:31Z</time>
      </trkpt>
      <trkpt lat="43.01377" lon="0.85723">
        <ele>726.9</ele>
        <time>2017-09-03T14:03:35Z</time>
      </trkpt>
      <trkpt lat="43.01371" lon="0.85701">
        <ele>727.3</ele>
        <time>2017-09-03T14:03:39Z</time>
      </trkpt>
      <trkpt lat="43.01363" lon="0.85686">
        <ele>728.3</ele>
        <time>2017-09-03T14:03:43Z</time>
      </trkpt>
      <trkpt lat="43.0136" lon="0.85674">
        <ele>729</ele>
        <time>2017-09-03T14:03:47Z</time>
      </trkpt>
      <trkpt lat="43.01358" lon="0.85657">
        <ele>730.1</ele>
        <time>2017-09-03T14:03:51Z</time>
      </trkpt>
      <trkpt lat="43.01348" lon="0.85637">
        <ele>730.3</ele>
        <time>2017-09-03T14:03:55Z</time>
      </trkpt>
      <trkpt lat="43.01341" lon="0.85615">
        <ele>731.4</ele>
        <time>2017-09-03T14:03:59Z</time>
      </trkpt>
      <trkpt lat="43.01333" lon="0.85599">
        <ele>731.6</ele>
        <time>2017-09-03T14:04:03Z</time>
      </trkpt>
      <trkpt lat="43.01326" lon="0.85582">
        <ele>732.2</ele>
        <time>2017-09-03T14:04:07Z</time>
      </trkpt>
      <trkpt lat="43.01317" lon="0.85566">
        <ele>732.9</ele>
        <time>2017-09-03T14:04:11Z</time>
      </trkpt>
      <trkpt lat="43.01303" lon="0.85557">
        <ele>733.4</ele>
        <time>2017-09-03T14:04:15Z</time>
      </trkpt>
      <trkpt lat="43.01285" lon="0.85552">
        <ele>734.1</ele>
        <time>2017-09-03T14:04:19Z</time>
      </trkpt>
      <trkpt lat="43.01268" lon="0.85546">
        <ele>734.6</ele>
        <time>2017-09-03T14:04:23Z</time>
      </trkpt>
      <trkpt lat="43.01255" lon="0.85544">
        <ele>736</ele>
        <time>2017-09-03T14:04:27Z</time>
      </trkpt>
      <trkpt lat="43.0124" lon="0.8554">
        <ele>736.9</ele>
        <time>2017-09-03T14:04:31Z</time>
      </trkpt>
      <trkpt lat="43.01226" lon="0.85531">
        <ele>737.8</ele>
        <time>2017-09-03T14:04:35Z</time>
      </trkpt>
      <trkpt lat="43.01211" lon="0.85526">
        <ele>738.5</ele>
        <time>2017-09-03T14:04:39Z</time>
      </trkpt>
      <trkpt lat="43.01197" lon="0.85522">
        <ele>739.5</ele>
        <time>2017-09-03T14:04:43Z</time>
      </trkpt>
      <trkpt lat="43.01184" lon="0.85519">
        <ele>740</ele>
        <time>2017-09-03T14:04:47Z</time>
      </trkpt>
      <trkpt lat="43.0117" lon="0.85516">
        <ele>740.5</ele>
        <time>2017-09-03T14:04:51Z</time>
      </trkpt>
      <trkpt lat="43.01155" lon="0.85518">
        <ele>741.5</ele>
        <time>2017-09-03T14:04:55Z</time>
      </trkpt>
      <trkpt lat="43.01139" lon="0.85517">
        <ele>742.1</ele>
        <time>2017-09-03T14:04:59Z</time>
      </trkpt>
      <trkpt lat="43.01125" lon="0.85513">
        <ele>743.5</ele>
        <time>2017-09-03T14:05:03Z</time>
      </trkpt>
      <trkpt lat="43.01113" lon="0.85512">
        <ele>743.8</ele>
        <time>2017-09-03T14:05:07Z</time>
      </trkpt>
      <trkpt lat="43.01099" lon="0.8551">
        <ele>744.8</ele>
        <time>2017-09-03T14:05:11Z</time>
      </trkpt>
      <trkpt lat="43.01085" lon="0.85508">
        <ele>745.4</ele>
        <time>2017-09-03T14:05:15Z</time>
      </trkpt>
      <trkpt lat="43.01071" lon="0.85501">
        <ele>746.4</ele>
        <time>2017-09-03T14:05:19Z</time>
      </trkpt>
      <trkpt lat="43.01059" lon="0.85491">
        <ele>747.4</ele>
        <time>2017-09-03T14:05:23Z</time>
      </trkpt>
      <trkpt lat="43.01048" lon="0.85477">
        <ele>747.5</ele>
        <time>2017-09-03T14:05:27Z</time>
      </trkpt>
      <trkpt lat="43.01037" lon="0.85463">
        <ele>748.9</ele>
        <time>2017-09-03T14:05:31Z</time>
      </trkpt>
      <trkpt lat="43.01021" lon="0.85452">
        <ele>749.9</ele>
        <time>2017-09-03T14:05:35Z</time>
      </trkpt>
      <trkpt lat="43.01004" lon="0.85443">
        <ele>750.7</ele>
        <time>2017-09-03T14:05:39Z</time>
      </trkpt>
      <trkpt lat="43.00986" lon="0.85438">
        <ele>750.8</ele>
        <time>2017-09-03T14:05:43Z</time>
      </trkpt>
      <trkpt lat="43.00973" lon="0.85438">
        <ele>752.3</ele>
        <time>2017-09-03T14:05:47Z</time>
      </trkpt>
      <trkpt lat="43.00961" lon="0.85443">
        <ele>753.1</ele>
        <time>2017-09-03T14:05:51Z</time>
      </trkpt>
      <trkpt lat="43.00948" lon="0.85452">
        <ele>753.7</ele>
        <time>2017-09-03T14:05:55Z</time>
      </trkpt>
      <trkpt lat="43.00934" lon="0.8546">
        <ele>754.4</ele>
        <time>2017-09-03T14:05:59Z</time>
      </trkpt>
      <trkpt lat="43.00921" lon="0.85469">
        <ele>755</ele>
        <time>2017-09-03T14:06:03Z</time>
      </trkpt>
      <trkpt lat="43.00907" lon="0.85475">
        <ele>756</ele>
        <time>2017-09-03T14:06:07Z</time>
      </trkpt>
      <trkpt lat="43.00895" lon="0.85482">
        <ele>756.9</ele>
        <time>2017-09-03T14:06:11Z</time>
      </trkpt>
      <trkpt lat="43.00882" lon="0.85489">
        <ele>757.1</ele>
        <time>2017-09-03T14:06:15Z</time>
      </trkpt>
      <trkpt lat="43.00868" lon="0.85496">
        <ele>758.2</ele>
        <time>2017-09-03T14:06:19Z</time>
      </trkpt>
      <trkpt lat="43.00852" lon="0.85497">
        <ele>758.8</ele>
        <time>2017-09-03T14:06:23Z</time>
      </trkpt>
      <trkpt lat="43.00839" lon="0.85493">
        <ele>758.6</ele>
        <time>2017-09-03T14:06:27Z</time>
      </trkpt>
      <trkpt lat="43.00827" lon="0.85485">
        <ele>760.1</ele>
        <time>2017-09-03T14:06:31Z</time>
      </trkpt>
      <trkpt lat="43.00819" lon="0.85474">
        <ele>761.3</ele>
        <time>2017-09-03T14:06:35Z</time>
      </trkpt>
      <trkpt lat="43.00809" lon="0.85462">
        <ele>762.6</ele>
        <time>2017-09-03T14:06:39Z</time>
      </trkpt>
      <trkpt lat="43.00796" lon="0.85448">
        <ele>763.1</ele>
        <time>2017-09-03T14:06:43Z</time>
      </trkpt>
      <trkpt lat="43.00792" lon="0.85434">
        <ele>764.3</ele>
        <time>2017-09-03T14:06:47Z</time>
      </trkpt>
      <trkpt lat="43.00785" lon="0.85421">
        <ele>765.6</ele>
        <time>2017-09-03T14:06:51Z</time>
      </trkpt>
      <trkpt lat="43.00776" lon="0.85407">
        <ele>766.5</ele>
        <time>2017-09-03T14:06:55Z</time>
      </trkpt>
      <trkpt lat="43.00771" lon="0.85395">
        <ele>767.1</ele>
        <time>2017-09-03T14:06:59Z</time>
      </trkpt>
      <trkpt lat="43.00766" lon="0.85384">
        <ele>768.3</ele>
        <time>2017-09-03T14:07:03Z</time>
      </trkpt>
      <trkpt lat="43.00764" lon="0.85367">
        <ele>769.1</ele>
        <time>2017-09-03T14:07:07Z</time>
      </trkpt>
      <trkpt lat="43.00759" lon="0.85351">
        <ele>770.4</ele>
        <time>2017-09-03T14:07:11Z</time>
      </trkpt>
      <trkpt lat="43.00761" lon="0.85334">
        <ele>771.4</ele>
        <time>2017-09-03T14:07:15Z</time>
      </trkpt>
      <trkpt lat="43.0076" lon="0.85322">
        <ele>771.7</ele>
        <time>2017-09-03T14:07:19Z</time>
      </trkpt>
      <trkpt lat="43.00755" lon="0.85309">
        <ele>773.5</ele>
        <time>2017-09-03T14:07:23Z</time>
      </trkpt>
      <trkpt lat="43.00749" lon="0.85295">
        <ele>774.6</ele>
        <time>2017-09-03T14:07:27Z</time>
      </trkpt>
      <trkpt lat="43.00751" lon="0.85283">
        <ele>775.7</ele>
        <time>2017-09-03T14:07:31Z</time>
      </trkpt>
      <trkpt lat="43.00748" lon="0.85271">
        <ele>776.1</ele>
        <time>2017-09-03T14:07:35Z</time>
      </trkpt>
      <trkpt lat="43.00744" lon="0.85259">
        <ele>776.7</ele>
        <time>2017-09-03T14:07:39Z</time>
      </trkpt>
      <trkpt lat="43.00744" lon="0.85248">
        <ele>777.3</ele>
        <time>2017-09-03T14:07:43Z</time>
      </trkpt>
      <trkpt lat="43.0074" lon="0.85234">
        <ele>779.2</ele>
        <time>2017-09-03T14:07:47Z</time>
      </trkpt>
      <trkpt lat="43.00735" lon="0.85218">
        <ele>780.3</ele>
        <time>2017-09-03T14:07:51Z</time>
      </trkpt>
      <trkpt lat="43.00727" lon="0.85204">
        <ele>780.5</ele>
        <time>2017-09-03T14:07:55Z</time>
      </trkpt>
      <trkpt lat="43.00725" lon="0.8519">
        <ele>781.5</ele>
        <time>2017-09-03T14:07:59Z</time>
      </trkpt>
      <trkpt lat="43.00721" lon="0.85181">
        <ele>782.4</ele>
        <time>2017-09-03T14:08:03Z</time>
      </trkpt>
      <trkpt lat="43.00712" lon="0.85167">
        <ele>782.5</ele>
        <time>2017-09-03T14:08:07Z</time>
      </trkpt>
      <trkpt lat="43.00703" lon="0.8516">
        <ele>783.6</ele>
        <time>2017-09-03T14:08:11Z</time>
      </trkpt>
      <trkpt lat="43.00695" lon="0.85151">
        <ele>784.4</ele>
        <time>2017-09-03T14:08:15Z</time>
      </trkpt>
      <trkpt lat="43.00688" lon="0.85146">
        <ele>785.4</ele>
        <time>2017-09-03T14:08:19Z</time>
      </trkpt>
      <trkpt lat="43.00677" lon="0.85139">
        <ele>786.3</ele>
        <time>2017-09-03T14:08:23Z</time>
      </trkpt>
      <trkpt lat="43.00676" lon="0.85128">
        <ele>787</ele>
        <time>2017-09-03T14:08:27Z</time>
      </trkpt>
      <trkpt lat="43.00669" lon="0.85117">
        <ele>787.8</ele>
        <time>2017-09-03T14:08:31Z</time>
      </trkpt>
      <trkpt lat="43.00674" lon="0.85102">
        <ele>788.8</ele>
        <time>2017-09-03T14:08:35Z</time>
      </trkpt>
      <trkpt lat="43.00681" lon="0.85095">
        <ele>790.1</ele>
        <time>2017-09-03T14:08:39Z</time>
      </trkpt>
      <trkpt lat="43.00689" lon="0.85084">
        <ele>791.5</ele>
        <time>2017-09-03T14:08:43Z</time>
      </trkpt>
      <trkpt lat="43.00699" lon="0.85076">
        <ele>791.9</ele>
        <time>2017-09-03T14:08:47Z</time>
      </trkpt>
      <trkpt lat="43.00702" lon="0.85066">
        <ele>791.9</ele>
        <time>2017-09-03T14:08:51Z</time>
      </trkpt>
      <trkpt lat="43.00708" lon="0.85054">
        <ele>792.6</ele>
        <time>2017-09-03T14:08:55Z</time>
      </trkpt>
      <trkpt lat="43.00717" lon="0.85032">
        <ele>792.6</ele>
        <time>2017-09-03T14:08:59Z</time>
      </trkpt>
      <trkpt lat="43.00723" lon="0.85016">
        <ele>793.5</ele>
        <time>2017-09-03T14:09:03Z</time>
      </trkpt>
      <trkpt lat="43.00728" lon="0.84998">
        <ele>794.1</ele>
        <time>2017-09-03T14:09:07Z</time>
      </trkpt>
      <trkpt lat="43.00736" lon="0.84984">
        <ele>794.7</ele>
        <time>2017-09-03T14:09:11Z</time>
      </trkpt>
      <trkpt lat="43.00742" lon="0.84971">
        <ele>795.3</ele>
        <time>2017-09-03T14:09:15Z</time>
      </trkpt>
      <trkpt lat="43.00751" lon="0.84955">
        <ele>795.8</ele>
        <time>2017-09-03T14:09:19Z</time>
      </trkpt>
      <trkpt lat="43.0076" lon="0.84937">
        <ele>795.8</ele>
        <time>2017-09-03T14:09:23Z</time>
      </trkpt>
      <trkpt lat="43.00769" lon="0.84924">
        <ele>796.8</ele>
        <time>2017-09-03T14:09:27Z</time>
      </trkpt>
      <trkpt lat="43.00783" lon="0.84911">
        <ele>796.9</ele>
        <time>2017-09-03T14:09:31Z</time>
      </trkpt>
      <trkpt lat="43.008" lon="0.849">
        <ele>797.9</ele>
        <time>2017-09-03T14:09:35Z</time>
      </trkpt>
      <trkpt lat="43.00817" lon="0.84887">
        <ele>797.7</ele>
        <time>2017-09-03T14:09:39Z</time>
      </trkpt>
      <trkpt lat="43.00833" lon="0.84873">
        <ele>797.5</ele>
        <time>2017-09-03T14:09:43Z</time>
      </trkpt>
      <trkpt lat="43.00841" lon="0.84852">
        <ele>798.4</ele>
        <time>2017-09-03T14:09:47Z</time>
      </trkpt>
      <trkpt lat="43.00846" lon="0.84826">
        <ele>798.6</ele>
        <time>2017-09-03T14:09:51Z</time>
      </trkpt>
      <trkpt lat="43.00849" lon="0.848">
        <ele>798.2</ele>
        <time>2017-09-03T14:09:55Z</time>
      </trkpt>
      <trkpt lat="43.00847" lon="0.8477">
        <ele>798.2</ele>
        <time>2017-09-03T14:09:59Z</time>
      </trkpt>
      <trkpt lat="43.00836" lon="0.84742">
        <ele>798.6</ele>
        <time>2017-09-03T14:10:03Z</time>
      </trkpt>
      <trkpt lat="43.0082" lon="0.84726">
        <ele>798.9</ele>
        <time>2017-09-03T14:10:07Z</time>
      </trkpt>
      <trkpt lat="43.008" lon="0.84718">
        <ele>798.7</ele>
        <time>2017-09-03T14:10:11Z</time>
      </trkpt>
      <trkpt lat="43.00777" lon="0.84722">
        <ele>799</ele>
        <time>2017-09-03T14:10:15Z</time>
      </trkpt>
      <trkpt lat="43.00755" lon="0.84726">
        <ele>799</ele>
        <time>2017-09-03T14:10:19Z</time>
      </trkpt>
      <trkpt lat="43.00737" lon="0.84733">
        <ele>799.5</ele>
        <time>2017-09-03T14:10:23Z</time>
      </trkpt>
      <trkpt lat="43.00718" lon="0.84737">
        <ele>800.3</ele>
        <time>2017-09-03T14:10:27Z</time>
      </trkpt>
      <trkpt lat="43.00701" lon="0.84737">
        <ele>800.4</ele>
        <time>2017-09-03T14:10:31Z</time>
      </trkpt>
      <trkpt lat="43.00686" lon="0.84738">
        <ele>801.3</ele>
        <time>2017-09-03T14:10:35Z</time>
      </trkpt>
      <trkpt lat="43.0067" lon="0.84737">
        <ele>803</ele>
        <time>2017-09-03T14:10:39Z</time>
      </trkpt>
      <trkpt lat="43.00658" lon="0.8474">
        <ele>804.3</ele>
        <time>2017-09-03T14:10:43Z</time>
      </trkpt>
      <trkpt lat="43.00645" lon="0.84742">
        <ele>805.5</ele>
        <time>2017-09-03T14:10:47Z</time>
      </trkpt>
      <trkpt lat="43.00631" lon="0.84745">
        <ele>806.7</ele>
        <time>2017-09-03T14:10:51Z</time>
      </trkpt>
      <trkpt lat="43.00619" lon="0.8475">
        <ele>807</ele>
        <time>2017-09-03T14:10:55Z</time>
      </trkpt>
      <trkpt lat="43.00608" lon="0.8475">
        <ele>808.2</ele>
        <time>2017-09-03T14:10:59Z</time>
      </trkpt>
      <trkpt lat="43.00596" lon="0.84749">
        <ele>809.5</ele>
        <time>2017-09-03T14:11:03Z</time>
      </trkpt>
      <trkpt lat="43.00582" lon="0.84753">
        <ele>810.2</ele>
        <time>2017-09-03T14:11:07Z</time>
      </trkpt>
      <trkpt lat="43.00569" lon="0.84759">
        <ele>810.3</ele>
        <time>2017-09-03T14:11:11Z</time>
      </trkpt>
      <trkpt lat="43.00554" lon="0.84764">
        <ele>811</ele>
        <time>2017-09-03T14:11:15Z</time>
      </trkpt>
      <trkpt lat="43.00539" lon="0.8477">
        <ele>811.3</ele>
        <time>2017-09-03T14:11:19Z</time>
      </trkpt>
      <trkpt lat="43.00526" lon="0.84774">
        <ele>812.2</ele>
        <time>2017-09-03T14:11:23Z</time>
      </trkpt>
      <trkpt lat="43.00511" lon="0.8478">
        <ele>813.1</ele>
        <time>2017-09-03T14:11:27Z</time>
      </trkpt>
      <trkpt lat="43.00498" lon="0.84788">
        <ele>813.3</ele>
        <time>2017-09-03T14:11:31Z</time>
      </trkpt>
      <trkpt lat="43.00487" lon="0.84794">
        <ele>814.3</ele>
        <time>2017-09-03T14:11:35Z</time>
      </trkpt>
      <trkpt lat="43.00475" lon="0.84798">
        <ele>814.7</ele>
        <time>2017-09-03T14:11:39Z</time>
      </trkpt>
      <trkpt lat="43.00465" lon="0.84804">
        <ele>816.1</ele>
        <time>2017-09-03T14:11:43Z</time>
      </trkpt>
      <trkpt lat="43.00454" lon="0.84813">
        <ele>816.5</ele>
        <time>2017-09-03T14:11:47Z</time>
      </trkpt>
      <trkpt lat="43.00443" lon="0.84824">
        <ele>817.3</ele>
        <time>2017-09-03T14:11:51Z</time>
      </trkpt>
      <trkpt lat="43.00434" lon="0.84832">
        <ele>818</ele>
        <time>2017-09-03T14:11:55Z</time>
      </trkpt>
      <trkpt lat="43.00425" lon="0.84843">
        <ele>819.4</ele>
        <time>2017-09-03T14:11:59Z</time>
      </trkpt>
      <trkpt lat="43.00414" lon="0.84849">
        <ele>820.6</ele>
        <time>2017-09-03T14:12:03Z</time>
      </trkpt>
      <trkpt lat="43.00401" lon="0.84857">
        <ele>820.9</ele>
        <time>2017-09-03T14:12:07Z</time>
      </trkpt>
      <trkpt lat="43.00391" lon="0.84866">
        <ele>822.6</ele>
        <time>2017-09-03T14:12:11Z</time>
      </trkpt>
      <trkpt lat="43.00383" lon="0.84872">
        <ele>823</ele>
        <time>2017-09-03T14:12:15Z</time>
      </trkpt>
      <trkpt lat="43.00372" lon="0.84876">
        <ele>825.1</ele>
        <time>2017-09-03T14:12:19Z</time>
      </trkpt>
      <trkpt lat="43.00362" lon="0.84881">
        <ele>825.7</ele>
        <time>2017-09-03T14:12:23Z</time>
      </trkpt>
      <trkpt lat="43.00351" lon="0.84887">
        <ele>826.7</ele>
        <time>2017-09-03T14:12:27Z</time>
      </trkpt>
      <trkpt lat="43.0034" lon="0.84889">
        <ele>827.6</ele>
        <time>2017-09-03T14:12:31Z</time>
      </trkpt>
      <trkpt lat="43.00329" lon="0.84894">
        <ele>828.3</ele>
        <time>2017-09-03T14:12:35Z</time>
      </trkpt>
      <trkpt lat="43.00319" lon="0.84898">
        <ele>829</ele>
        <time>2017-09-03T14:12:39Z</time>
      </trkpt>
      <trkpt lat="43.00308" lon="0.84902">
        <ele>829</ele>
        <time>2017-09-03T14:12:43Z</time>
      </trkpt>
      <trkpt lat="43.00297" lon="0.84906">
        <ele>830.3</ele>
        <time>2017-09-03T14:12:47Z</time>
      </trkpt>
      <trkpt lat="43.00288" lon="0.84913">
        <ele>830.6</ele>
        <time>2017-09-03T14:12:51Z</time>
      </trkpt>
      <trkpt lat="43.00278" lon="0.84921">
        <ele>831.7</ele>
        <time>2017-09-03T14:12:55Z</time>
      </trkpt>
      <trkpt lat="43.00269" lon="0.84932">
        <ele>831.7</ele>
        <time>2017-09-03T14:12:59Z</time>
      </trkpt>
      <trkpt lat="43.00259" lon="0.84937">
        <ele>832.5</ele>
        <time>2017-09-03T14:13:03Z</time>
      </trkpt>
      <trkpt lat="43.00252" lon="0.84939">
        <ele>832.8</ele>
        <time>2017-09-03T14:13:07Z</time>
      </trkpt>
      <trkpt lat="43.00241" lon="0.84946">
        <ele>833.3</ele>
        <time>2017-09-03T14:13:11Z</time>
      </trkpt>
      <trkpt lat="43.0023" lon="0.84956">
        <ele>833.6</ele>
        <time>2017-09-03T14:13:15Z</time>
      </trkpt>
      <trkpt lat="43.00221" lon="0.84959">
        <ele>834.7</ele>
        <time>2017-09-03T14:13:19Z</time>
      </trkpt>
      <trkpt lat="43.00212" lon="0.84957">
        <ele>835.6</ele>
        <time>2017-09-03T14:13:23Z</time>
      </trkpt>
      <trkpt lat="43.00196" lon="0.84962">
        <ele>836.4</ele>
        <time>2017-09-03T14:13:27Z</time>
      </trkpt>
      <trkpt lat="43.00183" lon="0.84954">
        <ele>836.7</ele>
        <time>2017-09-03T14:13:31Z</time>
      </trkpt>
      <trkpt lat="43.00172" lon="0.84953">
        <ele>837.1</ele>
        <time>2017-09-03T14:13:35Z</time>
      </trkpt>
      <trkpt lat="43.00161" lon="0.84946">
        <ele>837.7</ele>
        <time>2017-09-03T14:13:39Z</time>
      </trkpt>
      <trkpt lat="43.00151" lon="0.84944">
        <ele>838.5</ele>
        <time>2017-09-03T14:13:43Z</time>
      </trkpt>
      <trkpt lat="43.00137" lon="0.8495">
        <ele>839.5</ele>
        <time>2017-09-03T14:13:47Z</time>
      </trkpt>
      <trkpt lat="43.00124" lon="0.84952">
        <ele>840.1</ele>
        <time>2017-09-03T14:13:51Z</time>
      </trkpt>
      <trkpt lat="43.00102" lon="0.84951">
        <ele>840.7</ele>
        <time>2017-09-03T14:13:55Z</time>
      </trkpt>
      <trkpt lat="43.0009" lon="0.8495">
        <ele>841.9</ele>
        <time>2017-09-03T14:13:59Z</time>
      </trkpt>
      <trkpt lat="43.00074" lon="0.84953">
        <ele>843.1</ele>
        <time>2017-09-03T14:14:03Z</time>
      </trkpt>
      <trkpt lat="43.00058" lon="0.84959">
        <ele>844</ele>
        <time>2017-09-03T14:14:07Z</time>
      </trkpt>
      <trkpt lat="43.00045" lon="0.84963">
        <ele>844.5</ele>
        <time>2017-09-03T14:14:11Z</time>
      </trkpt>
      <trkpt lat="43.00031" lon="0.84963">
        <ele>844.6</ele>
        <time>2017-09-03T14:14:15Z</time>
      </trkpt>
      <trkpt lat="43.00018" lon="0.84963">
        <ele>845.5</ele>
        <time>2017-09-03T14:14:19Z</time>
      </trkpt>
      <trkpt lat="43.00007" lon="0.8497">
        <ele>846.7</ele>
        <time>2017-09-03T14:14:23Z</time>
      </trkpt>
      <trkpt lat="42.99999" lon="0.84972">
        <ele>847.3</ele>
        <time>2017-09-03T14:14:27Z</time>
      </trkpt>
      <trkpt lat="42.99988" lon="0.84977">
        <ele>848</ele>
        <time>2017-09-03T14:14:31Z</time>
      </trkpt>
      <trkpt lat="42.99976" lon="0.84979">
        <ele>849</ele>
        <time>2017-09-03T14:14:35Z</time>
      </trkpt>
      <trkpt lat="42.99962" lon="0.84978">
        <ele>849.8</ele>
        <time>2017-09-03T14:14:39Z</time>
      </trkpt>
      <trkpt lat="42.9995" lon="0.84983">
        <ele>850.9</ele>
        <time>2017-09-03T14:14:43Z</time>
      </trkpt>
      <trkpt lat="42.99939" lon="0.84985">
        <ele>851.4</ele>
        <time>2017-09-03T14:14:47Z</time>
      </trkpt>
      <trkpt lat="42.99928" lon="0.84982">
        <ele>851.7</ele>
        <time>2017-09-03T14:14:51Z</time>
      </trkpt>
      <trkpt lat="42.99916" lon="0.84985">
        <ele>852.4</ele>
        <time>2017-09-03T14:14:55Z</time>
      </trkpt>
      <trkpt lat="42.99903" lon="0.84986">
        <ele>853.2</ele>
        <time>2017-09-03T14:14:59Z</time>
      </trkpt>
      <trkpt lat="42.99892" lon="0.84992">
        <ele>853.7</ele>
        <time>2017-09-03T14:15:03Z</time>
      </trkpt>
      <trkpt lat="42.99882" lon="0.84989">
        <ele>854.5</ele>
        <time>2017-09-03T14:15:07Z</time>
      </trkpt>
      <trkpt lat="42.9987" lon="0.84992">
        <ele>855.3</ele>
        <time>2017-09-03T14:15:11Z</time>
      </trkpt>
      <trkpt lat="42.99853" lon="0.84984">
        <ele>856.2</ele>
        <time>2017-09-03T14:15:15Z</time>
      </trkpt>
      <trkpt lat="42.99836" lon="0.84987">
        <ele>857.3</ele>
        <time>2017-09-03T14:15:19Z</time>
      </trkpt>
      <trkpt lat="42.99825" lon="0.84985">
        <ele>857.4</ele>
        <time>2017-09-03T14:15:23Z</time>
      </trkpt>
      <trkpt lat="42.99814" lon="0.84986">
        <ele>858.6</ele>
        <time>2017-09-03T14:15:27Z</time>
      </trkpt>
      <trkpt lat="42.99802" lon="0.84981">
        <ele>859.2</ele>
        <time>2017-09-03T14:15:31Z</time>
      </trkpt>
      <trkpt lat="42.99787" lon="0.84976">
        <ele>859.9</ele>
        <time>2017-09-03T14:15:35Z</time>
      </trkpt>
      <trkpt lat="42.99778" lon="0.84971">
        <ele>860.2</ele>
        <time>2017-09-03T14:15:39Z</time>
      </trkpt>
      <trkpt lat="42.99769" lon="0.84963">
        <ele>860.1</ele>
        <time>2017-09-03T14:15:43Z</time>
      </trkpt>
      <trkpt lat="42.99751" lon="0.84959">
        <ele>861.5</ele>
        <time>2017-09-03T14:15:47Z</time>
      </trkpt>
      <trkpt lat="42.99739" lon="0.84955">
        <ele>862</ele>
        <time>2017-09-03T14:15:51Z</time>
      </trkpt>
      <trkpt lat="42.99726" lon="0.84951">
        <ele>862.6</ele>
        <time>2017-09-03T14:15:55Z</time>
      </trkpt>
      <trkpt lat="42.99716" lon="0.8495">
        <ele>862.9</ele>
        <time>2017-09-03T14:15:59Z</time>
      </trkpt>
      <trkpt lat="42.99696" lon="0.84948">
        <ele>864.5</ele>
        <time>2017-09-03T14:16:03Z</time>
      </trkpt>
      <trkpt lat="42.99682" lon="0.84945">
        <ele>865.7</ele>
        <time>2017-09-03T14:16:07Z</time>
      </trkpt>
      <trkpt lat="42.99667" lon="0.84941">
        <ele>866.2</ele>
        <time>2017-09-03T14:16:11Z</time>
      </trkpt>
      <trkpt lat="42.99655" lon="0.84943">
        <ele>866.7</ele>
        <time>2017-09-03T14:16:15Z</time>
      </trkpt>
      <trkpt lat="42.99642" lon="0.84947">
        <ele>868.1</ele>
        <time>2017-09-03T14:16:19Z</time>
      </trkpt>
      <trkpt lat="42.9963" lon="0.84944">
        <ele>868.8</ele>
        <time>2017-09-03T14:16:23Z</time>
      </trkpt>
      <trkpt lat="42.99618" lon="0.84945">
        <ele>870</ele>
        <time>2017-09-03T14:16:27Z</time>
      </trkpt>
      <trkpt lat="42.99603" lon="0.84946">
        <ele>871.3</ele>
        <time>2017-09-03T14:16:31Z</time>
      </trkpt>
      <trkpt lat="42.99593" lon="0.84947">
        <ele>871.6</ele>
        <time>2017-09-03T14:16:35Z</time>
      </trkpt>
      <trkpt lat="42.99582" lon="0.84948">
        <ele>872.2</ele>
        <time>2017-09-03T14:16:39Z</time>
      </trkpt>
      <trkpt lat="42.99571" lon="0.84946">
        <ele>873.7</ele>
        <time>2017-09-03T14:16:43Z</time>
      </trkpt>
      <trkpt lat="42.99561" lon="0.84941">
        <ele>874.5</ele>
        <time>2017-09-03T14:16:47Z</time>
      </trkpt>
      <trkpt lat="42.99548" lon="0.84937">
        <ele>874.8</ele>
        <time>2017-09-03T14:16:51Z</time>
      </trkpt>
      <trkpt lat="42.99534" lon="0.84938">
        <ele>875.9</ele>
        <time>2017-09-03T14:16:55Z</time>
      </trkpt>
      <trkpt lat="42.99521" lon="0.84935">
        <ele>876.7</ele>
        <time>2017-09-03T14:16:59Z</time>
      </trkpt>
      <trkpt lat="42.99506" lon="0.84925">
        <ele>877.7</ele>
        <time>2017-09-03T14:17:03Z</time>
      </trkpt>
      <trkpt lat="42.99493" lon="0.84923">
        <ele>878.5</ele>
        <time>2017-09-03T14:17:07Z</time>
      </trkpt>
      <trkpt lat="42.99483" lon="0.84914">
        <ele>879</ele>
        <time>2017-09-03T14:17:11Z</time>
      </trkpt>
      <trkpt lat="42.99471" lon="0.84904">
        <ele>879.9</ele>
        <time>2017-09-03T14:17:15Z</time>
      </trkpt>
      <trkpt lat="42.99463" lon="0.84896">
        <ele>880.3</ele>
        <time>2017-09-03T14:17:19Z</time>
      </trkpt>
      <trkpt lat="42.99454" lon="0.84883">
        <ele>881</ele>
        <time>2017-09-03T14:17:23Z</time>
      </trkpt>
      <trkpt lat="42.99447" lon="0.84874">
        <ele>881.2</ele>
        <time>2017-09-03T14:17:27Z</time>
      </trkpt>
      <trkpt lat="42.99447" lon="0.84859">
        <ele>881.2</ele>
        <time>2017-09-03T14:17:31Z</time>
      </trkpt>
      <trkpt lat="42.99452" lon="0.84847">
        <ele>882.5</ele>
        <time>2017-09-03T14:17:35Z</time>
      </trkpt>
      <trkpt lat="42.99465" lon="0.84838">
        <ele>883.6</ele>
        <time>2017-09-03T14:17:39Z</time>
      </trkpt>
      <trkpt lat="42.99478" lon="0.84827">
        <ele>884.1</ele>
        <time>2017-09-03T14:17:43Z</time>
      </trkpt>
      <trkpt lat="42.99486" lon="0.84812">
        <ele>884.3</ele>
        <time>2017-09-03T14:17:47Z</time>
      </trkpt>
      <trkpt lat="42.99486" lon="0.84794">
        <ele>884.8</ele>
        <time>2017-09-03T14:17:51Z</time>
      </trkpt>
      <trkpt lat="42.99479" lon="0.8478">
        <ele>885.4</ele>
        <time>2017-09-03T14:17:55Z</time>
      </trkpt>
      <trkpt lat="42.99465" lon="0.84772">
        <ele>885.9</ele>
        <time>2017-09-03T14:17:59Z</time>
      </trkpt>
      <trkpt lat="42.99456" lon="0.84759">
        <ele>887.5</ele>
        <time>2017-09-03T14:18:03Z</time>
      </trkpt>
      <trkpt lat="42.9945" lon="0.84747">
        <ele>887.7</ele>
        <time>2017-09-03T14:18:07Z</time>
      </trkpt>
      <trkpt lat="42.99445" lon="0.84733">
        <ele>889</ele>
        <time>2017-09-03T14:18:11Z</time>
      </trkpt>
      <trkpt lat="42.99441" lon="0.8472">
        <ele>890.2</ele>
        <time>2017-09-03T14:18:15Z</time>
      </trkpt>
      <trkpt lat="42.99453" lon="0.84709">
        <ele>891</ele>
        <time>2017-09-03T14:18:19Z</time>
      </trkpt>
      <trkpt lat="42.99469" lon="0.847">
        <ele>891.2</ele>
        <time>2017-09-03T14:18:23Z</time>
      </trkpt>
      <trkpt lat="42.99485" lon="0.84685">
        <ele>892.1</ele>
        <time>2017-09-03T14:18:27Z</time>
      </trkpt>
      <trkpt lat="42.99496" lon="0.84668">
        <ele>892</ele>
        <time>2017-09-03T14:18:31Z</time>
      </trkpt>
      <trkpt lat="42.99509" lon="0.84649">
        <ele>892.8</ele>
        <time>2017-09-03T14:18:35Z</time>
      </trkpt>
      <trkpt lat="42.99528" lon="0.84639">
        <ele>892.9</ele>
        <time>2017-09-03T14:18:39Z</time>
      </trkpt>
      <trkpt lat="42.99546" lon="0.84632">
        <ele>893.9</ele>
        <time>2017-09-03T14:18:43Z</time>
      </trkpt>
      <trkpt lat="42.9956" lon="0.84626">
        <ele>893.7</ele>
        <time>2017-09-03T14:18:47Z</time>
      </trkpt>
      <trkpt lat="42.99577" lon="0.84608">
        <ele>893.7</ele>
        <time>2017-09-03T14:18:51Z</time>
      </trkpt>
      <trkpt lat="42.99594" lon="0.84592">
        <ele>895.6</ele>
        <time>2017-09-03T14:18:55Z</time>
      </trkpt>
      <trkpt lat="42.99611" lon="0.84589">
        <ele>896</ele>
        <time>2017-09-03T14:18:59Z</time>
      </trkpt>
      <trkpt lat="42.99627" lon="0.8458">
        <ele>896.8</ele>
        <time>2017-09-03T14:19:03Z</time>
      </trkpt>
      <trkpt lat="42.99637" lon="0.8457">
        <ele>897.2</ele>
        <time>2017-09-03T14:19:07Z</time>
      </trkpt>
      <trkpt lat="42.99655" lon="0.84553">
        <ele>897.5</ele>
        <time>2017-09-03T14:19:11Z</time>
      </trkpt>
      <trkpt lat="42.99668" lon="0.8455">
        <ele>898</ele>
        <time>2017-09-03T14:19:15Z</time>
      </trkpt>
      <trkpt lat="42.99682" lon="0.8454">
        <ele>898.6</ele>
        <time>2017-09-03T14:19:19Z</time>
      </trkpt>
      <trkpt lat="42.99702" lon="0.84517">
        <ele>899.7</ele>
        <time>2017-09-03T14:19:23Z</time>
      </trkpt>
      <trkpt lat="42.99709" lon="0.84495">
        <ele>900.5</ele>
        <time>2017-09-03T14:19:27Z</time>
      </trkpt>
      <trkpt lat="42.99706" lon="0.84471">
        <ele>900.6</ele>
        <time>2017-09-03T14:19:31Z</time>
      </trkpt>
      <trkpt lat="42.99703" lon="0.84456">
        <ele>900.4</ele>
        <time>2017-09-03T14:19:35Z</time>
      </trkpt>
      <trkpt lat="42.99695" lon="0.84439">
        <ele>901.7</ele>
        <time>2017-09-03T14:19:39Z</time>
      </trkpt>
      <trkpt lat="42.99684" lon="0.84425">
        <ele>901.9</ele>
        <time>2017-09-03T14:19:43Z</time>
      </trkpt>
      <trkpt lat="42.99674" lon="0.84413">
        <ele>902.5</ele>
        <time>2017-09-03T14:19:47Z</time>
      </trkpt>
      <trkpt lat="42.99663" lon="0.84398">
        <ele>902.9</ele>
        <time>2017-09-03T14:19:51Z</time>
      </trkpt>
      <trkpt lat="42.99654" lon="0.84388">
        <ele>904</ele>
        <time>2017-09-03T14:19:55Z</time>
      </trkpt>
      <trkpt lat="42.99644" lon="0.84378">
        <ele>904.2</ele>
        <time>2017-09-03T14:19:59Z</time>
      </trkpt>
      <trkpt lat="42.99631" lon="0.84365">
        <ele>905.3</ele>
        <time>2017-09-03T14:20:03Z</time>
      </trkpt>
      <trkpt lat="42.99616" lon="0.84351">
        <ele>906.4</ele>
        <time>2017-09-03T14:20:07Z</time>
      </trkpt>
      <trkpt lat="42.996" lon="0.84337">
        <ele>906.7</ele>
        <time>2017-09-03T14:20:11Z</time>
      </trkpt>
      <trkpt lat="42.99584" lon="0.84325">
        <ele>907.2</ele>
        <time>2017-09-03T14:20:15Z</time>
      </trkpt>
      <trkpt lat="42.99569" lon="0.84317">
        <ele>908</ele>
        <time>2017-09-03T14:20:19Z</time>
      </trkpt>
      <trkpt lat="42.99556" lon="0.84318">
        <ele>908.8</ele>
        <time>2017-09-03T14:20:23Z</time>
      </trkpt>
      <trkpt lat="42.99544" lon="0.84315">
        <ele>909.4</ele>
        <time>2017-09-03T14:20:27Z</time>
      </trkpt>
      <trkpt lat="42.99527" lon="0.84313">
        <ele>910.2</ele>
        <time>2017-09-03T14:20:31Z</time>
      </trkpt>
      <trkpt lat="42.99513" lon="0.84312">
        <ele>911.3</ele>
        <time>2017-09-03T14:20:35Z</time>
      </trkpt>
      <trkpt lat="42.99497" lon="0.84307">
        <ele>912</ele>
        <time>2017-09-03T14:20:39Z</time>
      </trkpt>
      <trkpt lat="42.99486" lon="0.84302">
        <ele>912.2</ele>
        <time>2017-09-03T14:20:43Z</time>
      </trkpt>
      <trkpt lat="42.99471" lon="0.84297">
        <ele>912.4</ele>
        <time>2017-09-03T14:20:47Z</time>
      </trkpt>
      <trkpt lat="42.99459" lon="0.84292">
        <ele>913</ele>
        <time>2017-09-03T14:20:51Z</time>
      </trkpt>
      <trkpt lat="42.99445" lon="0.84287">
        <ele>913.7</ele>
        <time>2017-09-03T14:20:55Z</time>
      </trkpt>
      <trkpt lat="42.99432" lon="0.84281">
        <ele>914.4</ele>
        <time>2017-09-03T14:20:59Z</time>
      </trkpt>
      <trkpt lat="42.99418" lon="0.8427">
        <ele>914.7</ele>
        <time>2017-09-03T14:21:03Z</time>
      </trkpt>
      <trkpt lat="42.99406" lon="0.84257">
        <ele>915.1</ele>
        <time>2017-09-03T14:21:07Z</time>
      </trkpt>
      <trkpt lat="42.99398" lon="0.84242">
        <ele>915.8</ele>
        <time>2017-09-03T14:21:11Z</time>
      </trkpt>
      <trkpt lat="42.99393" lon="0.84219">
        <ele>915.6</ele>
        <time>2017-09-03T14:21:15Z</time>
      </trkpt>
      <trkpt lat="42.99402" lon="0.842">
        <ele>915.6</ele>
        <time>2017-09-03T14:21:19Z</time>
      </trkpt>
      <trkpt lat="42.99416" lon="0.84181">
        <ele>916.8</ele>
        <time>2017-09-03T14:21:23Z</time>
      </trkpt>
      <trkpt lat="42.9943" lon="0.84159">
        <ele>916.8</ele>
        <time>2017-09-03T14:21:27Z</time>
      </trkpt>
      <trkpt lat="42.99448" lon="0.84137">
        <ele>916.5</ele>
        <time>2017-09-03T14:21:31Z</time>
      </trkpt>
      <trkpt lat="42.99465" lon="0.84127">
        <ele>918.1</ele>
        <time>2017-09-03T14:21:35Z</time>
      </trkpt>
      <trkpt lat="42.99481" lon="0.84116">
        <ele>918.3</ele>
        <time>2017-09-03T14:21:39Z</time>
      </trkpt>
      <trkpt lat="42.99499" lon="0.84106">
        <ele>918.3</ele>
        <time>2017-09-03T14:21:43Z</time>
      </trkpt>
      <trkpt lat="42.99519" lon="0.84086">
        <ele>918.7</ele>
        <time>2017-09-03T14:21:47Z</time>
      </trkpt>
      <trkpt lat="42.99536" lon="0.84071">
        <ele>918.6</ele>
        <time>2017-09-03T14:21:51Z</time>
      </trkpt>
      <trkpt lat="42.9956" lon="0.84054">
        <ele>919.2</ele>
        <time>2017-09-03T14:21:55Z</time>
      </trkpt>
      <trkpt lat="42.99577" lon="0.8404">
        <ele>919.4</ele>
        <time>2017-09-03T14:21:59Z</time>
      </trkpt>
      <trkpt lat="42.99594" lon="0.84032">
        <ele>919.7</ele>
        <time>2017-09-03T14:22:03Z</time>
      </trkpt>
      <trkpt lat="42.99618" lon="0.84028">
        <ele>920.4</ele>
        <time>2017-09-03T14:22:07Z</time>
      </trkpt>
      <trkpt lat="42.99636" lon="0.84026">
        <ele>920.7</ele>
        <time>2017-09-03T14:22:11Z</time>
      </trkpt>
      <trkpt lat="42.99654" lon="0.84018">
        <ele>920.4</ele>
        <time>2017-09-03T14:22:15Z</time>
      </trkpt>
      <trkpt lat="42.99673" lon="0.84012">
        <ele>920.4</ele>
        <time>2017-09-03T14:22:19Z</time>
      </trkpt>
      <trkpt lat="42.99689" lon="0.83994">
        <ele>921</ele>
        <time>2017-09-03T14:22:23Z</time>
      </trkpt>
      <trkpt lat="42.997" lon="0.83971">
        <ele>921.5</ele>
        <time>2017-09-03T14:22:27Z</time>
      </trkpt>
      <trkpt lat="42.99706" lon="0.83944">
        <ele>922.1</ele>
        <time>2017-09-03T14:22:31Z</time>
      </trkpt>
      <trkpt lat="42.99706" lon="0.83921">
        <ele>922.4</ele>
        <time>2017-09-03T14:22:35Z</time>
      </trkpt>
      <trkpt lat="42.99709" lon="0.83896">
        <ele>923.9</ele>
        <time>2017-09-03T14:22:39Z</time>
      </trkpt>
      <trkpt lat="42.99717" lon="0.83877">
        <ele>925</ele>
        <time>2017-09-03T14:22:43Z</time>
      </trkpt>
      <trkpt lat="42.99731" lon="0.83861">
        <ele>925.1</ele>
        <time>2017-09-03T14:22:47Z</time>
      </trkpt>
      <trkpt lat="42.9975" lon="0.83846">
        <ele>925.7</ele>
        <time>2017-09-03T14:22:51Z</time>
      </trkpt>
      <trkpt lat="42.99767" lon="0.83826">
        <ele>925.6</ele>
        <time>2017-09-03T14:22:55Z</time>
      </trkpt>
      <trkpt lat="42.9978" lon="0.83801">
        <ele>926</ele>
        <time>2017-09-03T14:22:59Z</time>
      </trkpt>
      <trkpt lat="42.99783" lon="0.83771">
        <ele>926</ele>
        <time>2017-09-03T14:23:03Z</time>
      </trkpt>
      <trkpt lat="42.99783" lon="0.83744">
        <ele>926.2</ele>
        <time>2017-09-03T14:23:07Z</time>
      </trkpt>
      <trkpt lat="42.99781" lon="0.83718">
        <ele>927.1</ele>
        <time>2017-09-03T14:23:11Z</time>
      </trkpt>
      <trkpt lat="42.99783" lon="0.83692">
        <ele>927.7</ele>
        <time>2017-09-03T14:23:15Z</time>
      </trkpt>
      <trkpt lat="42.99783" lon="0.83663">
        <ele>927.3</ele>
        <time>2017-09-03T14:23:19Z</time>
      </trkpt>
      <trkpt lat="42.99776" lon="0.83637">
        <ele>927.6</ele>
        <time>2017-09-03T14:23:23Z</time>
      </trkpt>
      <trkpt lat="42.99765" lon="0.83613">
        <ele>927.1</ele>
        <time>2017-09-03T14:23:27Z</time>
      </trkpt>
      <trkpt lat="42.9975" lon="0.83598">
        <ele>926.8</ele>
        <time>2017-09-03T14:23:31Z</time>
      </trkpt>
      <trkpt lat="42.99735" lon="0.83585">
        <ele>927.3</ele>
        <time>2017-09-03T14:23:35Z</time>
      </trkpt>
      <trkpt lat="42.99714" lon="0.83576">
        <ele>926.8</ele>
        <time>2017-09-03T14:23:39Z</time>
      </trkpt>
      <trkpt lat="42.99692" lon="0.83565">
        <ele>926.6</ele>
        <time>2017-09-03T14:23:43Z</time>
      </trkpt>
      <trkpt lat="42.99671" lon="0.83558">
        <ele>925.9</ele>
        <time>2017-09-03T14:23:47Z</time>
      </trkpt>
      <trkpt lat="42.99649" lon="0.83555">
        <ele>925.4</ele>
        <time>2017-09-03T14:23:51Z</time>
      </trkpt>
      <trkpt lat="42.99628" lon="0.83559">
        <ele>925.2</ele>
        <time>2017-09-03T14:23:55Z</time>
      </trkpt>
      <trkpt lat="42.99611" lon="0.8357">
        <ele>925.8</ele>
        <time>2017-09-03T14:23:59Z</time>
      </trkpt>
      <trkpt lat="42.99595" lon="0.83582">
        <ele>925.8</ele>
        <time>2017-09-03T14:24:03Z</time>
      </trkpt>
      <trkpt lat="42.99579" lon="0.83588">
        <ele>927.1</ele>
        <time>2017-09-03T14:24:07Z</time>
      </trkpt>
      <trkpt lat="42.99566" lon="0.83596">
        <ele>927.5</ele>
        <time>2017-09-03T14:24:11Z</time>
      </trkpt>
      <trkpt lat="42.99554" lon="0.83611">
        <ele>928.2</ele>
        <time>2017-09-03T14:24:15Z</time>
      </trkpt>
      <trkpt lat="42.99537" lon="0.83615">
        <ele>929.1</ele>
        <time>2017-09-03T14:24:19Z</time>
      </trkpt>
      <trkpt lat="42.99525" lon="0.83627">
        <ele>929.2</ele>
        <time>2017-09-03T14:24:23Z</time>
      </trkpt>
      <trkpt lat="42.99512" lon="0.83639">
        <ele>929.2</ele>
        <time>2017-09-03T14:24:27Z</time>
      </trkpt>
      <trkpt lat="42.99493" lon="0.83646">
        <ele>931.2</ele>
        <time>2017-09-03T14:24:31Z</time>
      </trkpt>
      <trkpt lat="42.9948" lon="0.83654">
        <ele>931.2</ele>
        <time>2017-09-03T14:24:35Z</time>
      </trkpt>
      <trkpt lat="42.99464" lon="0.83664">
        <ele>931.2</ele>
        <time>2017-09-03T14:24:39Z</time>
      </trkpt>
      <trkpt lat="42.99448" lon="0.83677">
        <ele>931.3</ele>
        <time>2017-09-03T14:24:43Z</time>
      </trkpt>
      <trkpt lat="42.99432" lon="0.83691">
        <ele>931.6</ele>
        <time>2017-09-03T14:24:47Z</time>
      </trkpt>
      <trkpt lat="42.99416" lon="0.83704">
        <ele>933</ele>
        <time>2017-09-03T14:24:51Z</time>
      </trkpt>
      <trkpt lat="42.994" lon="0.83716">
        <ele>933</ele>
        <time>2017-09-03T14:24:55Z</time>
      </trkpt>
      <trkpt lat="42.99384" lon="0.83727">
        <ele>935</ele>
        <time>2017-09-03T14:24:59Z</time>
      </trkpt>
      <trkpt lat="42.99368" lon="0.83734">
        <ele>935.4</ele>
        <time>2017-09-03T14:25:03Z</time>
      </trkpt>
      <trkpt lat="42.9935" lon="0.83735">
        <ele>935.6</ele>
        <time>2017-09-03T14:25:07Z</time>
      </trkpt>
      <trkpt lat="42.99332" lon="0.83737">
        <ele>935.1</ele>
        <time>2017-09-03T14:25:11Z</time>
      </trkpt>
      <trkpt lat="42.99311" lon="0.83738">
        <ele>935</ele>
        <time>2017-09-03T14:25:15Z</time>
      </trkpt>
      <trkpt lat="42.99285" lon="0.8374">
        <ele>935.2</ele>
        <time>2017-09-03T14:25:19Z</time>
      </trkpt>
      <trkpt lat="42.99264" lon="0.83741">
        <ele>935.5</ele>
        <time>2017-09-03T14:25:23Z</time>
      </trkpt>
      <trkpt lat="42.99246" lon="0.83737">
        <ele>936.2</ele>
        <time>2017-09-03T14:25:27Z</time>
      </trkpt>
      <trkpt lat="42.99226" lon="0.8373">
        <ele>936.1</ele>
        <time>2017-09-03T14:25:31Z</time>
      </trkpt>
      <trkpt lat="42.99209" lon="0.83717">
        <ele>936</ele>
        <time>2017-09-03T14:25:35Z</time>
      </trkpt>
      <trkpt lat="42.99203" lon="0.83693">
        <ele>936.5</ele>
        <time>2017-09-03T14:25:39Z</time>
      </trkpt>
      <trkpt lat="42.99195" lon="0.83669">
        <ele>937.5</ele>
        <time>2017-09-03T14:25:43Z</time>
      </trkpt>
      <trkpt lat="42.99183" lon="0.83657">
        <ele>938.8</ele>
        <time>2017-09-03T14:25:47Z</time>
      </trkpt>
      <trkpt lat="42.99174" lon="0.83636">
        <ele>939.5</ele>
        <time>2017-09-03T14:25:51Z</time>
      </trkpt>
      <trkpt lat="42.99165" lon="0.83613">
        <ele>940.3</ele>
        <time>2017-09-03T14:25:55Z</time>
      </trkpt>
      <trkpt lat="42.99155" lon="0.83591">
        <ele>940.5</ele>
        <time>2017-09-03T14:25:59Z</time>
      </trkpt>
      <trkpt lat="42.99153" lon="0.83567">
        <ele>941.3</ele>
        <time>2017-09-03T14:26:03Z</time>
      </trkpt>
      <trkpt lat="42.99154" lon="0.83538">
        <ele>941.3</ele>
        <time>2017-09-03T14:26:07Z</time>
      </trkpt>
      <trkpt lat="42.99155" lon="0.83514">
        <ele>941.8</ele>
        <time>2017-09-03T14:26:11Z</time>
      </trkpt>
      <trkpt lat="42.99154" lon="0.83487">
        <ele>942.5</ele>
        <time>2017-09-03T14:26:15Z</time>
      </trkpt>
      <trkpt lat="42.99154" lon="0.83464">
        <ele>943</ele>
        <time>2017-09-03T14:26:19Z</time>
      </trkpt>
      <trkpt lat="42.9915" lon="0.83439">
        <ele>944.2</ele>
        <time>2017-09-03T14:26:23Z</time>
      </trkpt>
      <trkpt lat="42.99148" lon="0.83417">
        <ele>944.2</ele>
        <time>2017-09-03T14:26:27Z</time>
      </trkpt>
      <trkpt lat="42.9914" lon="0.8339">
        <ele>944.9</ele>
        <time>2017-09-03T14:26:31Z</time>
      </trkpt>
      <trkpt lat="42.99134" lon="0.83362">
        <ele>944.6</ele>
        <time>2017-09-03T14:26:35Z</time>
      </trkpt>
      <trkpt lat="42.99125" lon="0.83339">
        <ele>945.6</ele>
        <time>2017-09-03T14:26:39Z</time>
      </trkpt>
      <trkpt lat="42.99116" lon="0.83322">
        <ele>946.1</ele>
        <time>2017-09-03T14:26:43Z</time>
      </trkpt>
      <trkpt lat="42.99105" lon="0.83308">
        <ele>946.8</ele>
        <time>2017-09-03T14:26:47Z</time>
      </trkpt>
      <trkpt lat="42.99098" lon="0.83287">
        <ele>947.7</ele>
        <time>2017-09-03T14:26:51Z</time>
      </trkpt>
      <trkpt lat="42.99088" lon="0.83269">
        <ele>947.9</ele>
        <time>2017-09-03T14:26:55Z</time>
      </trkpt>
      <trkpt lat="42.99081" lon="0.83254">
        <ele>947.7</ele>
        <time>2017-09-03T14:26:59Z</time>
      </trkpt>
      <trkpt lat="42.99078" lon="0.83228">
        <ele>947.8</ele>
        <time>2017-09-03T14:27:03Z</time>
      </trkpt>
      <trkpt lat="42.99069" lon="0.83197">
        <ele>947</ele>
        <time>2017-09-03T14:27:07Z</time>
      </trkpt>
      <trkpt lat="42.99061" lon="0.8317">
        <ele>946.8</ele>
        <time>2017-09-03T14:27:11Z</time>
      </trkpt>
      <trkpt lat="42.99052" lon="0.83143">
        <ele>947.9</ele>
        <time>2017-09-03T14:27:15Z</time>
      </trkpt>
      <trkpt lat="42.99049" lon="0.83116">
        <ele>948.5</ele>
        <time>2017-09-03T14:27:19Z</time>
      </trkpt>
      <trkpt lat="42.9905" lon="0.83087">
        <ele>949.9</ele>
        <time>2017-09-03T14:27:23Z</time>
      </trkpt>
      <trkpt lat="42.99051" lon="0.83065">
        <ele>950.9</ele>
        <time>2017-09-03T14:27:27Z</time>
      </trkpt>
      <trkpt lat="42.99059" lon="0.83051">
        <ele>952.3</ele>
        <time>2017-09-03T14:27:31Z</time>
      </trkpt>
      <trkpt lat="42.99071" lon="0.83032">
        <ele>953.3</ele>
        <time>2017-09-03T14:27:35Z</time>
      </trkpt>
      <trkpt lat="42.99077" lon="0.83006">
        <ele>953.2</ele>
        <time>2017-09-03T14:27:39Z</time>
      </trkpt>
      <trkpt lat="42.99077" lon="0.82983">
        <ele>953.2</ele>
        <time>2017-09-03T14:27:43Z</time>
      </trkpt>
      <trkpt lat="42.99079" lon="0.8296">
        <ele>952.3</ele>
        <time>2017-09-03T14:27:47Z</time>
      </trkpt>
      <trkpt lat="42.991" lon="0.82943">
        <ele>952.3</ele>
        <time>2017-09-03T14:27:51Z</time>
      </trkpt>
      <trkpt lat="42.99115" lon="0.82913">
        <ele>952.1</ele>
        <time>2017-09-03T14:27:55Z</time>
      </trkpt>
      <trkpt lat="42.99125" lon="0.82881">
        <ele>952.1</ele>
        <time>2017-09-03T14:27:59Z</time>
      </trkpt>
      <trkpt lat="42.99137" lon="0.82847">
        <ele>952</ele>
        <time>2017-09-03T14:28:03Z</time>
      </trkpt>
      <trkpt lat="42.99148" lon="0.82818">
        <ele>952.2</ele>
        <time>2017-09-03T14:28:07Z</time>
      </trkpt>
      <trkpt lat="42.9914" lon="0.82783">
        <ele>951.9</ele>
        <time>2017-09-03T14:28:11Z</time>
      </trkpt>
      <trkpt lat="42.99128" lon="0.82767">
        <ele>952.4</ele>
        <time>2017-09-03T14:28:15Z</time>
      </trkpt>
      <trkpt lat="42.99111" lon="0.82758">
        <ele>951.4</ele>
        <time>2017-09-03T14:28:19Z</time>
      </trkpt>
      <trkpt lat="42.99092" lon="0.8275">
        <ele>951</ele>
        <time>2017-09-03T14:28:23Z</time>
      </trkpt>
      <trkpt lat="42.99075" lon="0.82742">
        <ele>951</ele>
        <time>2017-09-03T14:28:27Z</time>
      </trkpt>
      <trkpt lat="42.99055" lon="0.82733">
        <ele>951.1</ele>
        <time>2017-09-03T14:28:31Z</time>
      </trkpt>
      <trkpt lat="42.99038" lon="0.82732">
        <ele>950.7</ele>
        <time>2017-09-03T14:28:35Z</time>
      </trkpt>
      <trkpt lat="42.99018" lon="0.82726">
        <ele>950</ele>
        <time>2017-09-03T14:28:39Z</time>
      </trkpt>
      <trkpt lat="42.9901" lon="0.82722">
        <ele>949.5</ele>
        <time>2017-09-03T14:28:43Z</time>
      </trkpt>
      <trkpt lat="42.98996" lon="0.82719">
        <ele>949.5</ele>
        <time>2017-09-03T14:28:47Z</time>
      </trkpt>
      <trkpt lat="42.98993" lon="0.82718">
        <ele>951.3</ele>
        <time>2017-09-03T14:28:51Z</time>
      </trkpt>
      <trkpt lat="42.98987" lon="0.82723">
        <ele>953.8</ele>
        <time>2017-09-03T14:28:55Z</time>
      </trkpt>
      <trkpt lat="42.9899" lon="0.82723">
        <ele>954.3</ele>
        <time>2017-09-03T14:28:59Z</time>
      </trkpt>
      <trkpt lat="42.98971" lon="0.82711">
        <ele>958.7</ele>
        <time>2017-09-03T14:29:31Z</time>
      </trkpt>
      <trkpt lat="42.98967" lon="0.82713">
        <ele>959.6</ele>
        <time>2017-09-03T14:29:35Z</time>
      </trkpt>
      <trkpt lat="42.98967" lon="0.82717">
        <ele>959.8</ele>
        <time>2017-09-03T14:29:39Z</time>
      </trkpt>
      <trkpt lat="42.98963" lon="0.82724">
        <ele>960.4</ele>
        <time>2017-09-03T14:29:51Z</time>
      </trkpt>
      <trkpt lat="42.9896" lon="0.82729">
        <ele>962.3</ele>
        <time>2017-09-03T14:29:55Z</time>
      </trkpt>
      <trkpt lat="42.98958" lon="0.82735">
        <ele>964.2</ele>
        <time>2017-09-03T14:29:59Z</time>
      </trkpt>
      <trkpt lat="42.98956" lon="0.82743">
        <ele>966.6</ele>
        <time>2017-09-03T14:30:03Z</time>
      </trkpt>
      <trkpt lat="42.98951" lon="0.82755">
        <ele>969.7</ele>
        <time>2017-09-03T14:30:07Z</time>
      </trkpt>
      <trkpt lat="42.98953" lon="0.82763">
        <ele>972.6</ele>
        <time>2017-09-03T14:30:11Z</time>
      </trkpt>
      <trkpt lat="42.98957" lon="0.82775">
        <ele>974.1</ele>
        <time>2017-09-03T14:30:15Z</time>
      </trkpt>
      <trkpt lat="42.98956" lon="0.82787">
        <ele>975.8</ele>
        <time>2017-09-03T14:30:19Z</time>
      </trkpt>
      <trkpt lat="42.98958" lon="0.82799">
        <ele>976.9</ele>
        <time>2017-09-03T14:30:23Z</time>
      </trkpt>
      <trkpt lat="42.98963" lon="0.82807">
        <ele>980.1</ele>
        <time>2017-09-03T14:30:27Z</time>
      </trkpt>
      <trkpt lat="42.98966" lon="0.82814">
        <ele>980.2</ele>
        <time>2017-09-03T14:30:31Z</time>
      </trkpt>
      <trkpt lat="42.9897" lon="0.8282">
        <ele>982.9</ele>
        <time>2017-09-03T14:30:35Z</time>
      </trkpt>
      <trkpt lat="42.98976" lon="0.82826">
        <ele>985</ele>
        <time>2017-09-03T14:30:39Z</time>
      </trkpt>
      <trkpt lat="42.98983" lon="0.82834">
        <ele>986.8</ele>
        <time>2017-09-03T14:30:43Z</time>
      </trkpt>
      <trkpt lat="42.98989" lon="0.8284">
        <ele>987.4</ele>
        <time>2017-09-03T14:30:47Z</time>
      </trkpt>
      <trkpt lat="42.98995" lon="0.82849">
        <ele>989.6</ele>
        <time>2017-09-03T14:30:51Z</time>
      </trkpt>
      <trkpt lat="42.98998" lon="0.82858">
        <ele>992.1</ele>
        <time>2017-09-03T14:30:55Z</time>
      </trkpt>
      <trkpt lat="42.99002" lon="0.8286">
        <ele>993.8</ele>
        <time>2017-09-03T14:30:59Z</time>
      </trkpt>
      <trkpt lat="42.99004" lon="0.8287">
        <ele>995.3</ele>
        <time>2017-09-03T14:31:03Z</time>
      </trkpt>
      <trkpt lat="42.99005" lon="0.82877">
        <ele>997</ele>
        <time>2017-09-03T14:31:07Z</time>
      </trkpt>
      <trkpt lat="42.99007" lon="0.82884">
        <ele>998.2</ele>
        <time>2017-09-03T14:31:11Z</time>
      </trkpt>
      <trkpt lat="42.99012" lon="0.82888">
        <ele>998.7</ele>
        <time>2017-09-03T14:31:15Z</time>
      </trkpt>
      <trkpt lat="42.9901" lon="0.82894">
        <ele>999</ele>
        <time>2017-09-03T14:31:19Z</time>
      </trkpt>
      <trkpt lat="42.99009" lon="0.82908">
        <ele>999.5</ele>
        <time>2017-09-03T14:31:23Z</time>
      </trkpt>
      <trkpt lat="42.99008" lon="0.82915">
        <ele>1000.8</ele>
        <time>2017-09-03T14:31:27Z</time>
      </trkpt>
      <trkpt lat="42.99009" lon="0.82921">
        <ele>1001.1</ele>
        <time>2017-09-03T14:31:31Z</time>
      </trkpt>
      <trkpt lat="42.99007" lon="0.8293">
        <ele>1000.5</ele>
        <time>2017-09-03T14:31:35Z</time>
      </trkpt>
      <trkpt lat="42.99006" lon="0.82948">
        <ele>999.1</ele>
        <time>2017-09-03T14:31:39Z</time>
      </trkpt>
      <trkpt lat="42.99005" lon="0.82953">
        <ele>998.5</ele>
        <time>2017-09-03T14:31:43Z</time>
      </trkpt>
      <trkpt lat="42.98996" lon="0.82972">
        <ele>999</ele>
        <time>2017-09-03T14:32:19Z</time>
      </trkpt>
      <trkpt lat="42.98999" lon="0.82984">
        <ele>999</ele>
        <time>2017-09-03T14:32:23Z</time>
      </trkpt>
      <trkpt lat="42.98995" lon="0.82999">
        <ele>998.7</ele>
        <time>2017-09-03T14:32:27Z</time>
      </trkpt>
      <trkpt lat="42.98992" lon="0.83012">
        <ele>997.8</ele>
        <time>2017-09-03T14:32:31Z</time>
      </trkpt>
      <trkpt lat="42.98986" lon="0.83028">
        <ele>996.9</ele>
        <time>2017-09-03T14:32:35Z</time>
      </trkpt>
      <trkpt lat="42.98983" lon="0.83051">
        <ele>996.3</ele>
        <time>2017-09-03T14:32:39Z</time>
      </trkpt>
      <trkpt lat="42.9898" lon="0.83067">
        <ele>993.3</ele>
        <time>2017-09-03T14:32:43Z</time>
      </trkpt>
      <trkpt lat="42.98981" lon="0.83082">
        <ele>992</ele>
        <time>2017-09-03T14:32:47Z</time>
      </trkpt>
      <trkpt lat="42.98979" lon="0.83096">
        <ele>990.9</ele>
        <time>2017-09-03T14:32:51Z</time>
      </trkpt>
      <trkpt lat="42.9898" lon="0.83108">
        <ele>990.9</ele>
        <time>2017-09-03T14:32:55Z</time>
      </trkpt>
      <trkpt lat="42.98981" lon="0.83119">
        <ele>990.3</ele>
        <time>2017-09-03T14:32:59Z</time>
      </trkpt>
      <trkpt lat="42.98981" lon="0.83129">
        <ele>989.3</ele>
        <time>2017-09-03T14:33:03Z</time>
      </trkpt>
      <trkpt lat="42.98974" lon="0.83136">
        <ele>990.3</ele>
        <time>2017-09-03T14:33:07Z</time>
      </trkpt>
      <trkpt lat="42.98971" lon="0.83148">
        <ele>990.2</ele>
        <time>2017-09-03T14:33:11Z</time>
      </trkpt>
      <trkpt lat="42.98973" lon="0.83163">
        <ele>989.9</ele>
        <time>2017-09-03T14:33:15Z</time>
      </trkpt>
      <trkpt lat="42.98979" lon="0.8318">
        <ele>992.3</ele>
        <time>2017-09-03T14:33:19Z</time>
      </trkpt>
      <trkpt lat="42.98986" lon="0.83199">
        <ele>994.3</ele>
        <time>2017-09-03T14:33:23Z</time>
      </trkpt>
      <trkpt lat="42.98992" lon="0.83215">
        <ele>994.9</ele>
        <time>2017-09-03T14:33:27Z</time>
      </trkpt>
      <trkpt lat="42.98993" lon="0.83232">
        <ele>995.5</ele>
        <time>2017-09-03T14:33:31Z</time>
      </trkpt>
      <trkpt lat="42.98999" lon="0.83246">
        <ele>996.4</ele>
        <time>2017-09-03T14:33:35Z</time>
      </trkpt>
      <trkpt lat="42.99002" lon="0.83255">
        <ele>997.7</ele>
        <time>2017-09-03T14:33:39Z</time>
      </trkpt>
      <trkpt lat="42.99006" lon="0.83265">
        <ele>998.7</ele>
        <time>2017-09-03T14:33:43Z</time>
      </trkpt>
      <trkpt lat="42.99012" lon="0.83277">
        <ele>998.9</ele>
        <time>2017-09-03T14:33:47Z</time>
      </trkpt>
      <trkpt lat="42.99013" lon="0.83291">
        <ele>1000</ele>
        <time>2017-09-03T14:33:51Z</time>
      </trkpt>
      <trkpt lat="42.99018" lon="0.83308">
        <ele>1000.1</ele>
        <time>2017-09-03T14:33:55Z</time>
      </trkpt>
      <trkpt lat="42.99022" lon="0.83314">
        <ele>999.8</ele>
        <time>2017-09-03T14:33:59Z</time>
      </trkpt>
      <trkpt lat="42.99035" lon="0.8333">
        <ele>999.1</ele>
        <time>2017-09-03T14:34:03Z</time>
      </trkpt>
      <trkpt lat="42.99043" lon="0.83345">
        <ele>999.8</ele>
        <time>2017-09-03T14:34:07Z</time>
      </trkpt>
      <trkpt lat="42.99047" lon="0.83361">
        <ele>998.6</ele>
        <time>2017-09-03T14:34:11Z</time>
      </trkpt>
      <trkpt lat="42.99052" lon="0.83377">
        <ele>999.5</ele>
        <time>2017-09-03T14:34:15Z</time>
      </trkpt>
      <trkpt lat="42.99058" lon="0.83391">
        <ele>999.7</ele>
        <time>2017-09-03T14:34:19Z</time>
      </trkpt>
      <trkpt lat="42.99061" lon="0.83406">
        <ele>1000.1</ele>
        <time>2017-09-03T14:34:23Z</time>
      </trkpt>
      <trkpt lat="42.99066" lon="0.83416">
        <ele>1001.1</ele>
        <time>2017-09-03T14:34:27Z</time>
      </trkpt>
      <trkpt lat="42.99063" lon="0.83426">
        <ele>1002</ele>
        <time>2017-09-03T14:34:31Z</time>
      </trkpt>
      <trkpt lat="42.99069" lon="0.83436">
        <ele>1003.8</ele>
        <time>2017-09-03T14:34:35Z</time>
      </trkpt>
      <trkpt lat="42.99076" lon="0.83446">
        <ele>1005.1</ele>
        <time>2017-09-03T14:34:39Z</time>
      </trkpt>
      <trkpt lat="42.99076" lon="0.8346">
        <ele>1005.9</ele>
        <time>2017-09-03T14:34:43Z</time>
      </trkpt>
      <trkpt lat="42.99079" lon="0.83469">
        <ele>1007.1</ele>
        <time>2017-09-03T14:34:47Z</time>
      </trkpt>
      <trkpt lat="42.99075" lon="0.83477">
        <ele>1007.5</ele>
        <time>2017-09-03T14:34:51Z</time>
      </trkpt>
      <trkpt lat="42.99072" lon="0.83493">
        <ele>1009.3</ele>
        <time>2017-09-03T14:34:55Z</time>
      </trkpt>
      <trkpt lat="42.99065" lon="0.8351">
        <ele>1010.7</ele>
        <time>2017-09-03T14:34:59Z</time>
      </trkpt>
      <trkpt lat="42.99064" lon="0.83519">
        <ele>1010.7</ele>
        <time>2017-09-03T14:35:03Z</time>
      </trkpt>
      <trkpt lat="42.99069" lon="0.83527">
        <ele>1010.4</ele>
        <time>2017-09-03T14:35:07Z</time>
      </trkpt>
      <trkpt lat="42.99069" lon="0.83533">
        <ele>1009.6</ele>
        <time>2017-09-03T14:35:11Z</time>
      </trkpt>
      <trkpt lat="42.99063" lon="0.83549">
        <ele>1008.6</ele>
        <time>2017-09-03T14:35:15Z</time>
      </trkpt>
      <trkpt lat="42.9906" lon="0.83564">
        <ele>1007.4</ele>
        <time>2017-09-03T14:35:19Z</time>
      </trkpt>
      <trkpt lat="42.99058" lon="0.83579">
        <ele>1006.3</ele>
        <time>2017-09-03T14:35:23Z</time>
      </trkpt>
      <trkpt lat="42.99056" lon="0.83588">
        <ele>1004.3</ele>
        <time>2017-09-03T14:35:27Z</time>
      </trkpt>
      <trkpt lat="42.99057" lon="0.83598">
        <ele>1005.1</ele>
        <time>2017-09-03T14:35:31Z</time>
      </trkpt>
      <trkpt lat="42.9906" lon="0.83605">
        <ele>1005.6</ele>
        <time>2017-09-03T14:35:35Z</time>
      </trkpt>
      <trkpt lat="42.99062" lon="0.83615">
        <ele>1005.6</ele>
        <time>2017-09-03T14:35:39Z</time>
      </trkpt>
      <trkpt lat="42.99068" lon="0.83625">
        <ele>1005.6</ele>
        <time>2017-09-03T14:35:43Z</time>
      </trkpt>
      <trkpt lat="42.9907" lon="0.8364">
        <ele>1004.1</ele>
        <time>2017-09-03T14:35:47Z</time>
      </trkpt>
      <trkpt lat="42.9908" lon="0.83651">
        <ele>1001.7</ele>
        <time>2017-09-03T14:35:51Z</time>
      </trkpt>
      <trkpt lat="42.99092" lon="0.83668">
        <ele>999.3</ele>
        <time>2017-09-03T14:35:55Z</time>
      </trkpt>
      <trkpt lat="42.99102" lon="0.83691">
        <ele>998.3</ele>
        <time>2017-09-03T14:35:59Z</time>
      </trkpt>
      <trkpt lat="42.99108" lon="0.83711">
        <ele>997.2</ele>
        <time>2017-09-03T14:36:03Z</time>
      </trkpt>
      <trkpt lat="42.9911" lon="0.83726">
        <ele>997.4</ele>
        <time>2017-09-03T14:36:07Z</time>
      </trkpt>
      <trkpt lat="42.99116" lon="0.83746">
        <ele>998.3</ele>
        <time>2017-09-03T14:36:11Z</time>
      </trkpt>
      <trkpt lat="42.99119" lon="0.83765">
        <ele>999.7</ele>
        <time>2017-09-03T14:36:15Z</time>
      </trkpt>
      <trkpt lat="42.99128" lon="0.83783">
        <ele>1000.6</ele>
        <time>2017-09-03T14:36:19Z</time>
      </trkpt>
      <trkpt lat="42.99134" lon="0.83795">
        <ele>1000</ele>
        <time>2017-09-03T14:36:23Z</time>
      </trkpt>
      <trkpt lat="42.99145" lon="0.83811">
        <ele>999.8</ele>
        <time>2017-09-03T14:36:27Z</time>
      </trkpt>
      <trkpt lat="42.99156" lon="0.83823">
        <ele>1000.2</ele>
        <time>2017-09-03T14:36:31Z</time>
      </trkpt>
      <trkpt lat="42.99162" lon="0.8383">
        <ele>1001.4</ele>
        <time>2017-09-03T14:36:35Z</time>
      </trkpt>
      <trkpt lat="42.9917" lon="0.83838">
        <ele>1001.8</ele>
        <time>2017-09-03T14:36:39Z</time>
      </trkpt>
      <trkpt lat="42.99185" lon="0.83845">
        <ele>1001.4</ele>
        <time>2017-09-03T14:36:43Z</time>
      </trkpt>
      <trkpt lat="42.99195" lon="0.83854">
        <ele>1001.1</ele>
        <time>2017-09-03T14:36:47Z</time>
      </trkpt>
      <trkpt lat="42.99203" lon="0.83863">
        <ele>1000.9</ele>
        <time>2017-09-03T14:36:51Z</time>
      </trkpt>
      <trkpt lat="42.99214" lon="0.83875">
        <ele>1000</ele>
        <time>2017-09-03T14:36:55Z</time>
      </trkpt>
      <trkpt lat="42.99227" lon="0.83886">
        <ele>1000.5</ele>
        <time>2017-09-03T14:36:59Z</time>
      </trkpt>
      <trkpt lat="42.99237" lon="0.83891">
        <ele>1001.9</ele>
        <time>2017-09-03T14:37:03Z</time>
      </trkpt>
      <trkpt lat="42.99248" lon="0.83902">
        <ele>1002.8</ele>
        <time>2017-09-03T14:37:07Z</time>
      </trkpt>
      <trkpt lat="42.99264" lon="0.83904">
        <ele>1001.4</ele>
        <time>2017-09-03T14:37:11Z</time>
      </trkpt>
      <trkpt lat="42.99283" lon="0.83906">
        <ele>1002.1</ele>
        <time>2017-09-03T14:37:15Z</time>
      </trkpt>
      <trkpt lat="42.99301" lon="0.8391">
        <ele>1003.1</ele>
        <time>2017-09-03T14:37:19Z</time>
      </trkpt>
      <trkpt lat="42.99324" lon="0.8391">
        <ele>1004</ele>
        <time>2017-09-03T14:37:23Z</time>
      </trkpt>
      <trkpt lat="42.99355" lon="0.83904">
        <ele>1002</ele>
        <time>2017-09-03T14:37:27Z</time>
      </trkpt>
      <trkpt lat="42.99371" lon="0.8391">
        <ele>1000</ele>
        <time>2017-09-03T14:37:31Z</time>
      </trkpt>
      <trkpt lat="42.99392" lon="0.83905">
        <ele>999</ele>
        <time>2017-09-03T14:37:35Z</time>
      </trkpt>
      <trkpt lat="42.99408" lon="0.83895">
        <ele>996.8</ele>
        <time>2017-09-03T14:37:39Z</time>
      </trkpt>
      <trkpt lat="42.99423" lon="0.83879">
        <ele>996.7</ele>
        <time>2017-09-03T14:37:43Z</time>
      </trkpt>
      <trkpt lat="42.99438" lon="0.83854">
        <ele>994.1</ele>
        <time>2017-09-03T14:37:47Z</time>
      </trkpt>
      <trkpt lat="42.99451" lon="0.83834">
        <ele>993.1</ele>
        <time>2017-09-03T14:37:51Z</time>
      </trkpt>
      <trkpt lat="42.99466" lon="0.83812">
        <ele>988.1</ele>
        <time>2017-09-03T14:37:55Z</time>
      </trkpt>
      <trkpt lat="42.99481" lon="0.83787">
        <ele>987.2</ele>
        <time>2017-09-03T14:37:59Z</time>
      </trkpt>
      <trkpt lat="42.99492" lon="0.83764">
        <ele>978.2</ele>
        <time>2017-09-03T14:38:03Z</time>
      </trkpt>
      <trkpt lat="42.99495" lon="0.83763">
        <ele>974.1</ele>
        <time>2017-09-03T14:38:07Z</time>
      </trkpt>
      <trkpt lat="42.99517" lon="0.83731">
        <ele>972.3</ele>
        <time>2017-09-03T14:39:35Z</time>
      </trkpt>
      <trkpt lat="42.99524" lon="0.83717">
        <ele>968.4</ele>
        <time>2017-09-03T14:39:39Z</time>
      </trkpt>
      <trkpt lat="42.99533" lon="0.83703">
        <ele>965.5</ele>
        <time>2017-09-03T14:39:43Z</time>
      </trkpt>
      <trkpt lat="42.99536" lon="0.83698">
        <ele>962.8</ele>
        <time>2017-09-03T14:39:47Z</time>
      </trkpt>
      <trkpt lat="42.99539" lon="0.83693">
        <ele>962.2</ele>
        <time>2017-09-03T14:39:51Z</time>
      </trkpt>
      <trkpt lat="42.99553" lon="0.8368">
        <ele>958.7</ele>
        <time>2017-09-03T14:39:55Z</time>
      </trkpt>
      <trkpt lat="42.99568" lon="0.83663">
        <ele>954.7</ele>
        <time>2017-09-03T14:39:59Z</time>
      </trkpt>
      <trkpt lat="42.99584" lon="0.83643">
        <ele>951.7</ele>
        <time>2017-09-03T14:40:03Z</time>
      </trkpt>
      <trkpt lat="42.99599" lon="0.83623">
        <ele>944.6</ele>
        <time>2017-09-03T14:40:07Z</time>
      </trkpt>
      <trkpt lat="42.99615" lon="0.83606">
        <ele>939.6</ele>
        <time>2017-09-03T14:40:11Z</time>
      </trkpt>
      <trkpt lat="42.99624" lon="0.8359">
        <ele>934.8</ele>
        <time>2017-09-03T14:40:15Z</time>
      </trkpt>
      <trkpt lat="42.99636" lon="0.83572">
        <ele>930.9</ele>
        <time>2017-09-03T14:40:19Z</time>
      </trkpt>
      <trkpt lat="42.99651" lon="0.83561">
        <ele>928.4</ele>
        <time>2017-09-03T14:40:23Z</time>
      </trkpt>
      <trkpt lat="42.99672" lon="0.83553">
        <ele>924.4</ele>
        <time>2017-09-03T14:40:27Z</time>
      </trkpt>
      <trkpt lat="42.99692" lon="0.83567">
        <ele>925</ele>
        <time>2017-09-03T14:40:31Z</time>
      </trkpt>
      <trkpt lat="42.9971" lon="0.83573">
        <ele>925.9</ele>
        <time>2017-09-03T14:40:35Z</time>
      </trkpt>
      <trkpt lat="42.99729" lon="0.83583">
        <ele>925.8</ele>
        <time>2017-09-03T14:40:39Z</time>
      </trkpt>
      <trkpt lat="42.9975" lon="0.83594">
        <ele>926</ele>
        <time>2017-09-03T14:40:43Z</time>
      </trkpt>
      <trkpt lat="42.9977" lon="0.83619">
        <ele>926.4</ele>
        <time>2017-09-03T14:40:47Z</time>
      </trkpt>
      <trkpt lat="42.99783" lon="0.83649">
        <ele>927.8</ele>
        <time>2017-09-03T14:40:51Z</time>
      </trkpt>
      <trkpt lat="42.99782" lon="0.8368">
        <ele>927.8</ele>
        <time>2017-09-03T14:40:55Z</time>
      </trkpt>
      <trkpt lat="42.99781" lon="0.83711">
        <ele>928.1</ele>
        <time>2017-09-03T14:40:59Z</time>
      </trkpt>
      <trkpt lat="42.99784" lon="0.83744">
        <ele>927</ele>
        <time>2017-09-03T14:41:03Z</time>
      </trkpt>
      <trkpt lat="42.99781" lon="0.83781">
        <ele>926.1</ele>
        <time>2017-09-03T14:41:07Z</time>
      </trkpt>
      <trkpt lat="42.99765" lon="0.83807">
        <ele>925.8</ele>
        <time>2017-09-03T14:41:11Z</time>
      </trkpt>
      <trkpt lat="42.99743" lon="0.83831">
        <ele>925.7</ele>
        <time>2017-09-03T14:41:15Z</time>
      </trkpt>
      <trkpt lat="42.99724" lon="0.83852">
        <ele>926.3</ele>
        <time>2017-09-03T14:41:19Z</time>
      </trkpt>
      <trkpt lat="42.99709" lon="0.83881">
        <ele>925.6</ele>
        <time>2017-09-03T14:41:23Z</time>
      </trkpt>
      <trkpt lat="42.99706" lon="0.83917">
        <ele>925</ele>
        <time>2017-09-03T14:41:27Z</time>
      </trkpt>
      <trkpt lat="42.99704" lon="0.8396">
        <ele>923</ele>
        <time>2017-09-03T14:41:31Z</time>
      </trkpt>
      <trkpt lat="42.99689" lon="0.83994">
        <ele>923</ele>
        <time>2017-09-03T14:41:35Z</time>
      </trkpt>
      <trkpt lat="42.99657" lon="0.84015">
        <ele>922.3</ele>
        <time>2017-09-03T14:41:39Z</time>
      </trkpt>
      <trkpt lat="42.99628" lon="0.84031">
        <ele>921.9</ele>
        <time>2017-09-03T14:41:43Z</time>
      </trkpt>
      <trkpt lat="42.99602" lon="0.84037">
        <ele>920.6</ele>
        <time>2017-09-03T14:41:47Z</time>
      </trkpt>
      <trkpt lat="42.99578" lon="0.84039">
        <ele>920.7</ele>
        <time>2017-09-03T14:41:51Z</time>
      </trkpt>
      <trkpt lat="42.99553" lon="0.8405">
        <ele>920.1</ele>
        <time>2017-09-03T14:41:55Z</time>
      </trkpt>
      <trkpt lat="42.99526" lon="0.84073">
        <ele>920</ele>
        <time>2017-09-03T14:41:59Z</time>
      </trkpt>
      <trkpt lat="42.99501" lon="0.84092">
        <ele>918.6</ele>
        <time>2017-09-03T14:42:03Z</time>
      </trkpt>
      <trkpt lat="42.99479" lon="0.84106">
        <ele>918.6</ele>
        <time>2017-09-03T14:42:07Z</time>
      </trkpt>
      <trkpt lat="42.99454" lon="0.84127">
        <ele>918.6</ele>
        <time>2017-09-03T14:42:11Z</time>
      </trkpt>
      <trkpt lat="42.99432" lon="0.84149">
        <ele>917.2</ele>
        <time>2017-09-03T14:42:15Z</time>
      </trkpt>
      <trkpt lat="42.99415" lon="0.84174">
        <ele>918.4</ele>
        <time>2017-09-03T14:42:19Z</time>
      </trkpt>
      <trkpt lat="42.99396" lon="0.84197">
        <ele>917.3</ele>
        <time>2017-09-03T14:42:23Z</time>
      </trkpt>
      <trkpt lat="42.99396" lon="0.84229">
        <ele>916.4</ele>
        <time>2017-09-03T14:42:27Z</time>
      </trkpt>
      <trkpt lat="42.99408" lon="0.84264">
        <ele>916.4</ele>
        <time>2017-09-03T14:42:31Z</time>
      </trkpt>
      <trkpt lat="42.99432" lon="0.84285">
        <ele>915.4</ele>
        <time>2017-09-03T14:42:35Z</time>
      </trkpt>
      <trkpt lat="42.99459" lon="0.84301">
        <ele>914.2</ele>
        <time>2017-09-03T14:42:39Z</time>
      </trkpt>
      <trkpt lat="42.99491" lon="0.84304">
        <ele>913</ele>
        <time>2017-09-03T14:42:43Z</time>
      </trkpt>
      <trkpt lat="42.99516" lon="0.84307">
        <ele>912.1</ele>
        <time>2017-09-03T14:42:47Z</time>
      </trkpt>
      <trkpt lat="42.99557" lon="0.84308">
        <ele>910.6</ele>
        <time>2017-09-03T14:42:51Z</time>
      </trkpt>
      <trkpt lat="42.99593" lon="0.84329">
        <ele>909.2</ele>
        <time>2017-09-03T14:42:55Z</time>
      </trkpt>
      <trkpt lat="42.99617" lon="0.84361">
        <ele>908.5</ele>
        <time>2017-09-03T14:42:59Z</time>
      </trkpt>
      <trkpt lat="42.99647" lon="0.84389">
        <ele>907.6</ele>
        <time>2017-09-03T14:43:03Z</time>
      </trkpt>
      <trkpt lat="42.99677" lon="0.84415">
        <ele>904.7</ele>
        <time>2017-09-03T14:43:07Z</time>
      </trkpt>
      <trkpt lat="42.99697" lon="0.84462">
        <ele>903.3</ele>
        <time>2017-09-03T14:43:11Z</time>
      </trkpt>
      <trkpt lat="42.99708" lon="0.84496">
        <ele>901.4</ele>
        <time>2017-09-03T14:43:15Z</time>
      </trkpt>
      <trkpt lat="42.99686" lon="0.84526">
        <ele>901</ele>
        <time>2017-09-03T14:43:19Z</time>
      </trkpt>
      <trkpt lat="42.99655" lon="0.84551">
        <ele>899.2</ele>
        <time>2017-09-03T14:43:23Z</time>
      </trkpt>
      <trkpt lat="42.99627" lon="0.84576">
        <ele>898.2</ele>
        <time>2017-09-03T14:43:27Z</time>
      </trkpt>
      <trkpt lat="42.99598" lon="0.84594">
        <ele>897.3</ele>
        <time>2017-09-03T14:43:31Z</time>
      </trkpt>
      <trkpt lat="42.99566" lon="0.84614">
        <ele>896.9</ele>
        <time>2017-09-03T14:43:35Z</time>
      </trkpt>
      <trkpt lat="42.99533" lon="0.84633">
        <ele>895.4</ele>
        <time>2017-09-03T14:43:39Z</time>
      </trkpt>
      <trkpt lat="42.995" lon="0.84655">
        <ele>894.6</ele>
        <time>2017-09-03T14:43:43Z</time>
      </trkpt>
      <trkpt lat="42.99475" lon="0.84687">
        <ele>893.4</ele>
        <time>2017-09-03T14:43:47Z</time>
      </trkpt>
      <trkpt lat="42.99448" lon="0.84703">
        <ele>892.4</ele>
        <time>2017-09-03T14:43:51Z</time>
      </trkpt>
      <trkpt lat="42.99442" lon="0.84728">
        <ele>892.1</ele>
        <time>2017-09-03T14:43:55Z</time>
      </trkpt>
      <trkpt lat="42.99461" lon="0.8476">
        <ele>890.7</ele>
        <time>2017-09-03T14:43:59Z</time>
      </trkpt>
      <trkpt lat="42.99485" lon="0.84784">
        <ele>888.4</ele>
        <time>2017-09-03T14:44:03Z</time>
      </trkpt>
      <trkpt lat="42.99476" lon="0.84818">
        <ele>884.6</ele>
        <time>2017-09-03T14:44:07Z</time>
      </trkpt>
      <trkpt lat="42.9945" lon="0.84837">
        <ele>884.5</ele>
        <time>2017-09-03T14:44:11Z</time>
      </trkpt>
      <trkpt lat="42.9944" lon="0.84864">
        <ele>883.3</ele>
        <time>2017-09-03T14:44:15Z</time>
      </trkpt>
      <trkpt lat="42.99455" lon="0.8489">
        <ele>881.8</ele>
        <time>2017-09-03T14:44:19Z</time>
      </trkpt>
      <trkpt lat="42.99485" lon="0.84912">
        <ele>881.1</ele>
        <time>2017-09-03T14:44:23Z</time>
      </trkpt>
      <trkpt lat="42.99513" lon="0.84932">
        <ele>879.3</ele>
        <time>2017-09-03T14:44:27Z</time>
      </trkpt>
      <trkpt lat="42.99552" lon="0.84937">
        <ele>879</ele>
        <time>2017-09-03T14:44:31Z</time>
      </trkpt>
      <trkpt lat="42.99591" lon="0.84943">
        <ele>875.2</ele>
        <time>2017-09-03T14:44:35Z</time>
      </trkpt>
      <trkpt lat="42.99628" lon="0.84947">
        <ele>872.8</ele>
        <time>2017-09-03T14:44:39Z</time>
      </trkpt>
      <trkpt lat="42.99662" lon="0.84951">
        <ele>870.2</ele>
        <time>2017-09-03T14:44:43Z</time>
      </trkpt>
      <trkpt lat="42.99703" lon="0.84956">
        <ele>869.2</ele>
        <time>2017-09-03T14:44:47Z</time>
      </trkpt>
      <trkpt lat="42.99745" lon="0.84973">
        <ele>866</ele>
        <time>2017-09-03T14:44:51Z</time>
      </trkpt>
      <trkpt lat="42.99788" lon="0.8499">
        <ele>863</ele>
        <time>2017-09-03T14:44:55Z</time>
      </trkpt>
      <trkpt lat="42.99827" lon="0.85005">
        <ele>860.1</ele>
        <time>2017-09-03T14:44:59Z</time>
      </trkpt>
      <trkpt lat="42.99864" lon="0.85012">
        <ele>857.8</ele>
        <time>2017-09-03T14:45:03Z</time>
      </trkpt>
      <trkpt lat="42.99894" lon="0.85015">
        <ele>856.1</ele>
        <time>2017-09-03T14:45:07Z</time>
      </trkpt>
      <trkpt lat="42.99953" lon="0.84999">
        <ele>852.7</ele>
        <time>2017-09-03T14:45:11Z</time>
      </trkpt>
      <trkpt lat="43.00004" lon="0.84977">
        <ele>850.1</ele>
        <time>2017-09-03T14:45:15Z</time>
      </trkpt>
      <trkpt lat="43.0005" lon="0.84969">
        <ele>847.1</ele>
        <time>2017-09-03T14:45:19Z</time>
      </trkpt>
      <trkpt lat="43.00099" lon="0.84959">
        <ele>846.2</ele>
        <time>2017-09-03T14:45:23Z</time>
      </trkpt>
      <trkpt lat="43.00142" lon="0.84959">
        <ele>842.3</ele>
        <time>2017-09-03T14:45:27Z</time>
      </trkpt>
      <trkpt lat="43.00182" lon="0.84966">
        <ele>839.8</ele>
        <time>2017-09-03T14:45:31Z</time>
      </trkpt>
      <trkpt lat="43.00228" lon="0.84957">
        <ele>838.2</ele>
        <time>2017-09-03T14:45:35Z</time>
      </trkpt>
      <trkpt lat="43.00265" lon="0.84931">
        <ele>837.1</ele>
        <time>2017-09-03T14:45:39Z</time>
      </trkpt>
      <trkpt lat="43.00312" lon="0.84899">
        <ele>832.7</ele>
        <time>2017-09-03T14:45:43Z</time>
      </trkpt>
      <trkpt lat="43.00354" lon="0.84886">
        <ele>830.1</ele>
        <time>2017-09-03T14:45:47Z</time>
      </trkpt>
      <trkpt lat="43.00398" lon="0.8486">
        <ele>826.8</ele>
        <time>2017-09-03T14:45:51Z</time>
      </trkpt>
      <trkpt lat="43.0044" lon="0.84826">
        <ele>823.6</ele>
        <time>2017-09-03T14:45:55Z</time>
      </trkpt>
      <trkpt lat="43.00491" lon="0.84794">
        <ele>819.5</ele>
        <time>2017-09-03T14:45:59Z</time>
      </trkpt>
      <trkpt lat="43.00539" lon="0.84773">
        <ele>816</ele>
        <time>2017-09-03T14:46:03Z</time>
      </trkpt>
      <trkpt lat="43.00585" lon="0.8476">
        <ele>813.6</ele>
        <time>2017-09-03T14:46:07Z</time>
      </trkpt>
      <trkpt lat="43.00626" lon="0.84754">
        <ele>810.8</ele>
        <time>2017-09-03T14:46:11Z</time>
      </trkpt>
      <trkpt lat="43.00675" lon="0.84746">
        <ele>810.3</ele>
        <time>2017-09-03T14:46:15Z</time>
      </trkpt>
      <trkpt lat="43.00724" lon="0.84741">
        <ele>805.6</ele>
        <time>2017-09-03T14:46:19Z</time>
      </trkpt>
      <trkpt lat="43.00768" lon="0.84725">
        <ele>803.1</ele>
        <time>2017-09-03T14:46:23Z</time>
      </trkpt>
      <trkpt lat="43.00807" lon="0.84721">
        <ele>801.5</ele>
        <time>2017-09-03T14:46:27Z</time>
      </trkpt>
      <trkpt lat="43.00837" lon="0.84745">
        <ele>799.2</ele>
        <time>2017-09-03T14:46:31Z</time>
      </trkpt>
      <trkpt lat="43.00849" lon="0.8478">
        <ele>799</ele>
        <time>2017-09-03T14:46:35Z</time>
      </trkpt>
      <trkpt lat="43.00851" lon="0.8482">
        <ele>799.5</ele>
        <time>2017-09-03T14:46:39Z</time>
      </trkpt>
      <trkpt lat="43.00843" lon="0.84862">
        <ele>798.7</ele>
        <time>2017-09-03T14:46:43Z</time>
      </trkpt>
      <trkpt lat="43.00823" lon="0.84891">
        <ele>798.1</ele>
        <time>2017-09-03T14:46:47Z</time>
      </trkpt>
      <trkpt lat="43.00793" lon="0.84911">
        <ele>798.2</ele>
        <time>2017-09-03T14:46:51Z</time>
      </trkpt>
      <trkpt lat="43.0077" lon="0.84926">
        <ele>797.1</ele>
        <time>2017-09-03T14:46:55Z</time>
      </trkpt>
      <trkpt lat="43.00748" lon="0.8495">
        <ele>797.1</ele>
        <time>2017-09-03T14:46:59Z</time>
      </trkpt>
      <trkpt lat="43.00735" lon="0.84979">
        <ele>797</ele>
        <time>2017-09-03T14:47:03Z</time>
      </trkpt>
      <trkpt lat="43.00726" lon="0.85012">
        <ele>795.7</ele>
        <time>2017-09-03T14:47:07Z</time>
      </trkpt>
      <trkpt lat="43.00709" lon="0.85045">
        <ele>793.9</ele>
        <time>2017-09-03T14:47:11Z</time>
      </trkpt>
      <trkpt lat="43.00697" lon="0.85074">
        <ele>793.8</ele>
        <time>2017-09-03T14:47:15Z</time>
      </trkpt>
      <trkpt lat="43.00682" lon="0.85111">
        <ele>791.6</ele>
        <time>2017-09-03T14:47:19Z</time>
      </trkpt>
      <trkpt lat="43.00694" lon="0.8515">
        <ele>788.6</ele>
        <time>2017-09-03T14:47:23Z</time>
      </trkpt>
      <trkpt lat="43.0072" lon="0.85177">
        <ele>786.3</ele>
        <time>2017-09-03T14:47:27Z</time>
      </trkpt>
      <trkpt lat="43.00725" lon="0.85209">
        <ele>783.6</ele>
        <time>2017-09-03T14:47:31Z</time>
      </trkpt>
      <trkpt lat="43.00725" lon="0.85242">
        <ele>781.7</ele>
        <time>2017-09-03T14:47:35Z</time>
      </trkpt>
      <trkpt lat="43.00728" lon="0.85269">
        <ele>782.6</ele>
        <time>2017-09-03T14:47:39Z</time>
      </trkpt>
      <trkpt lat="43.00726" lon="0.85289">
        <ele>782.8</ele>
        <time>2017-09-03T14:47:43Z</time>
      </trkpt>
      <trkpt lat="43.00729" lon="0.85314">
        <ele>784.8</ele>
        <time>2017-09-03T14:47:47Z</time>
      </trkpt>
      <trkpt lat="43.00739" lon="0.85334">
        <ele>786</ele>
        <time>2017-09-03T14:47:51Z</time>
      </trkpt>
      <trkpt lat="43.00738" lon="0.85386">
        <ele>783.3</ele>
        <time>2017-09-03T14:47:55Z</time>
      </trkpt>
      <trkpt lat="43.00754" lon="0.85424">
        <ele>782.8</ele>
        <time>2017-09-03T14:47:59Z</time>
      </trkpt>
      <trkpt lat="43.00763" lon="0.8546">
        <ele>781.8</ele>
        <time>2017-09-03T14:48:03Z</time>
      </trkpt>
      <trkpt lat="43.0078" lon="0.85496">
        <ele>779.7</ele>
        <time>2017-09-03T14:48:07Z</time>
      </trkpt>
      <trkpt lat="43.00791" lon="0.8554">
        <ele>778.1</ele>
        <time>2017-09-03T14:48:11Z</time>
      </trkpt>
      <trkpt lat="43.00807" lon="0.85564">
        <ele>776.7</ele>
        <time>2017-09-03T14:48:15Z</time>
      </trkpt>
      <trkpt lat="43.00819" lon="0.85591">
        <ele>775.7</ele>
        <time>2017-09-03T14:48:19Z</time>
      </trkpt>
      <trkpt lat="43.00834" lon="0.85598">
        <ele>775</ele>
        <time>2017-09-03T14:48:23Z</time>
      </trkpt>
      <trkpt lat="43.00844" lon="0.85603">
        <ele>774</ele>
        <time>2017-09-03T14:48:27Z</time>
      </trkpt>
      <trkpt lat="43.00856" lon="0.85608">
        <ele>774</ele>
        <time>2017-09-03T14:48:31Z</time>
      </trkpt>
      <trkpt lat="43.0087" lon="0.85609">
        <ele>774.6</ele>
        <time>2017-09-03T14:48:35Z</time>
      </trkpt>
      <trkpt lat="43.00882" lon="0.85618">
        <ele>775.3</ele>
        <time>2017-09-03T14:48:39Z</time>
      </trkpt>
      <trkpt lat="43.00893" lon="0.85636">
        <ele>775.8</ele>
        <time>2017-09-03T14:48:43Z</time>
      </trkpt>
      <trkpt lat="43.00911" lon="0.85654">
        <ele>774.6</ele>
        <time>2017-09-03T14:48:47Z</time>
      </trkpt>
      <trkpt lat="43.00932" lon="0.85669">
        <ele>774.6</ele>
        <time>2017-09-03T14:48:51Z</time>
      </trkpt>
      <trkpt lat="43.00948" lon="0.85689">
        <ele>773.9</ele>
        <time>2017-09-03T14:48:55Z</time>
      </trkpt>
      <trkpt lat="43.00965" lon="0.85706">
        <ele>773.4</ele>
        <time>2017-09-03T14:48:59Z</time>
      </trkpt>
      <trkpt lat="43.00985" lon="0.85716">
        <ele>773.1</ele>
        <time>2017-09-03T14:49:03Z</time>
      </trkpt>
      <trkpt lat="43.01002" lon="0.85733">
        <ele>774.2</ele>
        <time>2017-09-03T14:49:07Z</time>
      </trkpt>
      <trkpt lat="43.01015" lon="0.8575">
        <ele>774.2</ele>
        <time>2017-09-03T14:49:11Z</time>
      </trkpt>
      <trkpt lat="43.01029" lon="0.85769">
        <ele>775.2</ele>
        <time>2017-09-03T14:49:15Z</time>
      </trkpt>
      <trkpt lat="43.0104" lon="0.85781">
        <ele>776.6</ele>
        <time>2017-09-03T14:49:19Z</time>
      </trkpt>
      <trkpt lat="43.01045" lon="0.85794">
        <ele>776.6</ele>
        <time>2017-09-03T14:49:23Z</time>
      </trkpt>
      <trkpt lat="43.01047" lon="0.85797">
        <ele>776</ele>
        <time>2017-09-03T14:49:27Z</time>
      </trkpt>
      <trkpt lat="43.01045" lon="0.85794">
        <ele>775.8</ele>
        <time>2017-09-03T14:49:31Z</time>
      </trkpt>
      <trkpt lat="43.0105" lon="0.85802">
        <ele>776.3</ele>
        <time>2017-09-03T14:49:47Z</time>
      </trkpt>
      <trkpt lat="43.01058" lon="0.85808">
        <ele>777.1</ele>
        <time>2017-09-03T14:49:51Z</time>
      </trkpt>
      <trkpt lat="43.01066" lon="0.85811">
        <ele>777.3</ele>
        <time>2017-09-03T14:49:55Z</time>
      </trkpt>
      <trkpt lat="43.01074" lon="0.85814">
        <ele>777.3</ele>
        <time>2017-09-03T14:49:59Z</time>
      </trkpt>
      <trkpt lat="43.01089" lon="0.85823">
        <ele>777.7</ele>
        <time>2017-09-03T14:50:03Z</time>
      </trkpt>
      <trkpt lat="43.01105" lon="0.85834">
        <ele>777.7</ele>
        <time>2017-09-03T14:50:07Z</time>
      </trkpt>
      <trkpt lat="43.01118" lon="0.8584">
        <ele>778.1</ele>
        <time>2017-09-03T14:50:11Z</time>
      </trkpt>
      <trkpt lat="43.01132" lon="0.8584">
        <ele>778.1</ele>
        <time>2017-09-03T14:50:15Z</time>
      </trkpt>
      <trkpt lat="43.01146" lon="0.85844">
        <ele>778.6</ele>
        <time>2017-09-03T14:50:19Z</time>
      </trkpt>
      <trkpt lat="43.01156" lon="0.85846">
        <ele>778.6</ele>
        <time>2017-09-03T14:50:23Z</time>
      </trkpt>
      <trkpt lat="43.01168" lon="0.85848">
        <ele>779</ele>
        <time>2017-09-03T14:50:27Z</time>
      </trkpt>
      <trkpt lat="43.01187" lon="0.85843">
        <ele>777.9</ele>
        <time>2017-09-03T14:50:31Z</time>
      </trkpt>
      <trkpt lat="43.01205" lon="0.85842">
        <ele>777.3</ele>
        <time>2017-09-03T14:50:35Z</time>
      </trkpt>
      <trkpt lat="43.01224" lon="0.85842">
        <ele>776.4</ele>
        <time>2017-09-03T14:50:39Z</time>
      </trkpt>
      <trkpt lat="43.01246" lon="0.85844">
        <ele>773</ele>
        <time>2017-09-03T14:50:43Z</time>
      </trkpt>
      <trkpt lat="43.01281" lon="0.85841">
        <ele>770.8</ele>
        <time>2017-09-03T14:50:47Z</time>
      </trkpt>
      <trkpt lat="43.01306" lon="0.85837">
        <ele>768.1</ele>
        <time>2017-09-03T14:50:51Z</time>
      </trkpt>
      <trkpt lat="43.01333" lon="0.85845">
        <ele>764.5</ele>
        <time>2017-09-03T14:50:55Z</time>
      </trkpt>
      <trkpt lat="43.01363" lon="0.8586">
        <ele>760.9</ele>
        <time>2017-09-03T14:50:59Z</time>
      </trkpt>
      <trkpt lat="43.01402" lon="0.85866">
        <ele>755.6</ele>
        <time>2017-09-03T14:51:03Z</time>
      </trkpt>
      <trkpt lat="43.01442" lon="0.85871">
        <ele>748.7</ele>
        <time>2017-09-03T14:51:07Z</time>
      </trkpt>
      <trkpt lat="43.01476" lon="0.85875">
        <ele>742.6</ele>
        <time>2017-09-03T14:51:11Z</time>
      </trkpt>
      <trkpt lat="43.01496" lon="0.85887">
        <ele>741.5</ele>
        <time>2017-09-03T14:51:15Z</time>
      </trkpt>
      <trkpt lat="43.0151" lon="0.8591">
        <ele>737.7</ele>
        <time>2017-09-03T14:51:19Z</time>
      </trkpt>
      <trkpt lat="43.01515" lon="0.85939">
        <ele>734.2</ele>
        <time>2017-09-03T14:51:23Z</time>
      </trkpt>
      <trkpt lat="43.01509" lon="0.85976">
        <ele>730.6</ele>
        <time>2017-09-03T14:51:27Z</time>
      </trkpt>
      <trkpt lat="43.01497" lon="0.86013">
        <ele>725.9</ele>
        <time>2017-09-03T14:51:31Z</time>
      </trkpt>
      <trkpt lat="43.01501" lon="0.86032">
        <ele>722.8</ele>
        <time>2017-09-03T14:51:35Z</time>
      </trkpt>
      <trkpt lat="43.01521" lon="0.86021">
        <ele>718.9</ele>
        <time>2017-09-03T14:51:39Z</time>
      </trkpt>
      <trkpt lat="43.01544" lon="0.86008">
        <ele>716.1</ele>
        <time>2017-09-03T14:51:43Z</time>
      </trkpt>
      <trkpt lat="43.01559" lon="0.85988">
        <ele>712.8</ele>
        <time>2017-09-03T14:51:47Z</time>
      </trkpt>
      <trkpt lat="43.01574" lon="0.85967">
        <ele>710.9</ele>
        <time>2017-09-03T14:51:51Z</time>
      </trkpt>
      <trkpt lat="43.01591" lon="0.85954">
        <ele>707.8</ele>
        <time>2017-09-03T14:51:55Z</time>
      </trkpt>
      <trkpt lat="43.01607" lon="0.85954">
        <ele>706.8</ele>
        <time>2017-09-03T14:51:59Z</time>
      </trkpt>
      <trkpt lat="43.01627" lon="0.85952">
        <ele>708</ele>
        <time>2017-09-03T14:52:03Z</time>
      </trkpt>
      <trkpt lat="43.01653" lon="0.85953">
        <ele>707.1</ele>
        <time>2017-09-03T14:52:07Z</time>
      </trkpt>
      <trkpt lat="43.01675" lon="0.85951">
        <ele>706.8</ele>
        <time>2017-09-03T14:52:11Z</time>
      </trkpt>
      <trkpt lat="43.01692" lon="0.85935">
        <ele>705.8</ele>
        <time>2017-09-03T14:52:15Z</time>
      </trkpt>
      <trkpt lat="43.01704" lon="0.85919">
        <ele>707.5</ele>
        <time>2017-09-03T14:52:19Z</time>
      </trkpt>
      <trkpt lat="43.0171" lon="0.85911">
        <ele>708.9</ele>
        <time>2017-09-03T14:52:23Z</time>
      </trkpt>
      <trkpt lat="43.01716" lon="0.85903">
        <ele>709.7</ele>
        <time>2017-09-03T14:52:27Z</time>
      </trkpt>
      <trkpt lat="43.01721" lon="0.85893">
        <ele>712.3</ele>
        <time>2017-09-03T14:52:31Z</time>
      </trkpt>
      <trkpt lat="43.01725" lon="0.85883">
        <ele>713.5</ele>
        <time>2017-09-03T14:52:35Z</time>
      </trkpt>
      <trkpt lat="43.01723" lon="0.85875">
        <ele>715.1</ele>
        <time>2017-09-03T14:52:39Z</time>
      </trkpt>
      <trkpt lat="43.01725" lon="0.85866">
        <ele>715.8</ele>
        <time>2017-09-03T14:52:43Z</time>
      </trkpt>
      <trkpt lat="43.01731" lon="0.85848">
        <ele>717.2</ele>
        <time>2017-09-03T14:52:47Z</time>
      </trkpt>
      <trkpt lat="43.01733" lon="0.85833">
        <ele>718.1</ele>
        <time>2017-09-03T14:52:51Z</time>
      </trkpt>
      <trkpt lat="43.01738" lon="0.85818">
        <ele>719.3</ele>
        <time>2017-09-03T14:52:55Z</time>
      </trkpt>
      <trkpt lat="43.01747" lon="0.85809">
        <ele>720</ele>
        <time>2017-09-03T14:52:59Z</time>
      </trkpt>
      <trkpt lat="43.01752" lon="0.85803">
        <ele>720.8</ele>
        <time>2017-09-03T14:53:03Z</time>
      </trkpt>
      <trkpt lat="43.01757" lon="0.85798">
        <ele>723.4</ele>
        <time>2017-09-03T14:53:07Z</time>
      </trkpt>
      <trkpt lat="43.01763" lon="0.85797">
        <ele>725.2</ele>
        <time>2017-09-03T14:53:11Z</time>
      </trkpt>
      <trkpt lat="43.01771" lon="0.85797">
        <ele>726.8</ele>
        <time>2017-09-03T14:53:15Z</time>
      </trkpt>
      <trkpt lat="43.01779" lon="0.8579">
        <ele>727.6</ele>
        <time>2017-09-03T14:53:19Z</time>
      </trkpt>
      <trkpt lat="43.01786" lon="0.85786">
        <ele>728.1</ele>
        <time>2017-09-03T14:53:23Z</time>
      </trkpt>
      <trkpt lat="43.01792" lon="0.85778">
        <ele>729.2</ele>
        <time>2017-09-03T14:53:27Z</time>
      </trkpt>
      <trkpt lat="43.01798" lon="0.85769">
        <ele>728.7</ele>
        <time>2017-09-03T14:53:31Z</time>
      </trkpt>
      <trkpt lat="43.01802" lon="0.85754">
        <ele>729.1</ele>
        <time>2017-09-03T14:53:35Z</time>
      </trkpt>
      <trkpt lat="43.018" lon="0.85731">
        <ele>728.4</ele>
        <time>2017-09-03T14:53:39Z</time>
      </trkpt>
      <trkpt lat="43.018" lon="0.85711">
        <ele>726.3</ele>
        <time>2017-09-03T14:53:43Z</time>
      </trkpt>
      <trkpt lat="43.018" lon="0.8569">
        <ele>723.8</ele>
        <time>2017-09-03T14:53:47Z</time>
      </trkpt>
      <trkpt lat="43.01797" lon="0.85666">
        <ele>721.4</ele>
        <time>2017-09-03T14:53:51Z</time>
      </trkpt>
      <trkpt lat="43.01795" lon="0.85633">
        <ele>720.4</ele>
        <time>2017-09-03T14:53:55Z</time>
      </trkpt>
      <trkpt lat="43.01796" lon="0.85611">
        <ele>716.9</ele>
        <time>2017-09-03T14:53:59Z</time>
      </trkpt>
      <trkpt lat="43.01811" lon="0.85606">
        <ele>714.5</ele>
        <time>2017-09-03T14:54:03Z</time>
      </trkpt>
      <trkpt lat="43.01825" lon="0.85602">
        <ele>711.2</ele>
        <time>2017-09-03T14:54:07Z</time>
      </trkpt>
      <trkpt lat="43.01847" lon="0.85596">
        <ele>708.3</ele>
        <time>2017-09-03T14:54:11Z</time>
      </trkpt>
      <trkpt lat="43.01866" lon="0.85585">
        <ele>706.3</ele>
        <time>2017-09-03T14:54:15Z</time>
      </trkpt>
      <trkpt lat="43.01884" lon="0.85571">
        <ele>699.7</ele>
        <time>2017-09-03T14:54:19Z</time>
      </trkpt>
      <trkpt lat="43.019" lon="0.85547">
        <ele>693.5</ele>
        <time>2017-09-03T14:54:23Z</time>
      </trkpt>
      <trkpt lat="43.01913" lon="0.85517">
        <ele>687.5</ele>
        <time>2017-09-03T14:54:27Z</time>
      </trkpt>
      <trkpt lat="43.01921" lon="0.85492">
        <ele>682.4</ele>
        <time>2017-09-03T14:54:31Z</time>
      </trkpt>
      <trkpt lat="43.0193" lon="0.85469">
        <ele>681.4</ele>
        <time>2017-09-03T14:54:35Z</time>
      </trkpt>
      <trkpt lat="43.01946" lon="0.85443">
        <ele>672.6</ele>
        <time>2017-09-03T14:54:39Z</time>
      </trkpt>
      <trkpt lat="43.01958" lon="0.85411">
        <ele>667.7</ele>
        <time>2017-09-03T14:54:43Z</time>
      </trkpt>
      <trkpt lat="43.01979" lon="0.85377">
        <ele>660.3</ele>
        <time>2017-09-03T14:54:47Z</time>
      </trkpt>
      <trkpt lat="43.01995" lon="0.85348">
        <ele>658.6</ele>
        <time>2017-09-03T14:54:51Z</time>
      </trkpt>
      <trkpt lat="43.01999" lon="0.8532">
        <ele>648.7</ele>
        <time>2017-09-03T14:54:55Z</time>
      </trkpt>
      <trkpt lat="43.02003" lon="0.85289">
        <ele>646.7</ele>
        <time>2017-09-03T14:54:59Z</time>
      </trkpt>
      <trkpt lat="43.02006" lon="0.85276">
        <ele>643.3</ele>
        <time>2017-09-03T14:55:03Z</time>
      </trkpt>
      <trkpt lat="43.01991" lon="0.85269">
        <ele>640.5</ele>
        <time>2017-09-03T14:55:07Z</time>
      </trkpt>
      <trkpt lat="43.01974" lon="0.85264">
        <ele>637.5</ele>
        <time>2017-09-03T14:55:11Z</time>
      </trkpt>
      <trkpt lat="43.01964" lon="0.85259">
        <ele>633.2</ele>
        <time>2017-09-03T14:55:15Z</time>
      </trkpt>
      <trkpt lat="43.01952" lon="0.85249">
        <ele>631.8</ele>
        <time>2017-09-03T14:55:19Z</time>
      </trkpt>
      <trkpt lat="43.01943" lon="0.85241">
        <ele>628.4</ele>
        <time>2017-09-03T14:55:23Z</time>
      </trkpt>
      <trkpt lat="43.01936" lon="0.85212">
        <ele>626.1</ele>
        <time>2017-09-03T14:55:27Z</time>
      </trkpt>
      <trkpt lat="43.01932" lon="0.85202">
        <ele>622.9</ele>
        <time>2017-09-03T14:55:31Z</time>
      </trkpt>
      <trkpt lat="43.01928" lon="0.85196">
        <ele>622.1</ele>
        <time>2017-09-03T14:55:35Z</time>
      </trkpt>
      <trkpt lat="43.01917" lon="0.85193">
        <ele>620.8</ele>
        <time>2017-09-03T14:55:39Z</time>
      </trkpt>
      <trkpt lat="43.01909" lon="0.85181">
        <ele>619.7</ele>
        <time>2017-09-03T14:55:43Z</time>
      </trkpt>
      <trkpt lat="43.01901" lon="0.85171">
        <ele>617</ele>
        <time>2017-09-03T14:55:47Z</time>
      </trkpt>
      <trkpt lat="43.01891" lon="0.85164">
        <ele>616.1</ele>
        <time>2017-09-03T14:55:51Z</time>
      </trkpt>
      <trkpt lat="43.01877" lon="0.85153">
        <ele>612.2</ele>
        <time>2017-09-03T14:55:55Z</time>
      </trkpt>
      <trkpt lat="43.01852" lon="0.85144">
        <ele>610.1</ele>
        <time>2017-09-03T14:55:59Z</time>
      </trkpt>
      <trkpt lat="43.01828" lon="0.85136">
        <ele>605.7</ele>
        <time>2017-09-03T14:56:03Z</time>
      </trkpt>
      <trkpt lat="43.01806" lon="0.85124">
        <ele>603.3</ele>
        <time>2017-09-03T14:56:07Z</time>
      </trkpt>
      <trkpt lat="43.01783" lon="0.8512">
        <ele>601.3</ele>
        <time>2017-09-03T14:56:11Z</time>
      </trkpt>
      <trkpt lat="43.01757" lon="0.85119">
        <ele>599.3</ele>
        <time>2017-09-03T14:56:15Z</time>
      </trkpt>
      <trkpt lat="43.01726" lon="0.85124">
        <ele>596.1</ele>
        <time>2017-09-03T14:56:19Z</time>
      </trkpt>
      <trkpt lat="43.01703" lon="0.85132">
        <ele>592</ele>
        <time>2017-09-03T14:56:23Z</time>
      </trkpt>
      <trkpt lat="43.01681" lon="0.85132">
        <ele>589</ele>
        <time>2017-09-03T14:56:27Z</time>
      </trkpt>
      <trkpt lat="43.01659" lon="0.8513">
        <ele>585</ele>
        <time>2017-09-03T14:56:31Z</time>
      </trkpt>
      <trkpt lat="43.01648" lon="0.85108">
        <ele>583.9</ele>
        <time>2017-09-03T14:56:35Z</time>
      </trkpt>
      <trkpt lat="43.01648" lon="0.85088">
        <ele>581.9</ele>
        <time>2017-09-03T14:56:39Z</time>
      </trkpt>
      <trkpt lat="43.01644" lon="0.8507">
        <ele>581.1</ele>
        <time>2017-09-03T14:56:43Z</time>
      </trkpt>
      <trkpt lat="43.01637" lon="0.85052">
        <ele>579.1</ele>
        <time>2017-09-03T14:56:47Z</time>
      </trkpt>
      <trkpt lat="43.01632" lon="0.85014">
        <ele>576.5</ele>
        <time>2017-09-03T14:56:51Z</time>
      </trkpt>
      <trkpt lat="43.01635" lon="0.84994">
        <ele>573.9</ele>
        <time>2017-09-03T14:56:55Z</time>
      </trkpt>
      <trkpt lat="43.01646" lon="0.84983">
        <ele>572.7</ele>
        <time>2017-09-03T14:56:59Z</time>
      </trkpt>
      <trkpt lat="43.01658" lon="0.84984">
        <ele>573.9</ele>
        <time>2017-09-03T14:57:03Z</time>
      </trkpt>
      <trkpt lat="43.0167" lon="0.84981">
        <ele>574.2</ele>
        <time>2017-09-03T14:57:07Z</time>
      </trkpt>
      <trkpt lat="43.01685" lon="0.84976">
        <ele>575</ele>
        <time>2017-09-03T14:57:11Z</time>
      </trkpt>
      <trkpt lat="43.01706" lon="0.84969">
        <ele>575.6</ele>
        <time>2017-09-03T14:57:15Z</time>
      </trkpt>
      <trkpt lat="43.01722" lon="0.84962">
        <ele>576</ele>
        <time>2017-09-03T14:57:19Z</time>
      </trkpt>
      <trkpt lat="43.01738" lon="0.84953">
        <ele>576.6</ele>
        <time>2017-09-03T14:57:23Z</time>
      </trkpt>
      <trkpt lat="43.01759" lon="0.84941">
        <ele>576.1</ele>
        <time>2017-09-03T14:57:27Z</time>
      </trkpt>
      <trkpt lat="43.01773" lon="0.84933">
        <ele>576.7</ele>
        <time>2017-09-03T14:57:31Z</time>
      </trkpt>
      <trkpt lat="43.01795" lon="0.84916">
        <ele>577.9</ele>
        <time>2017-09-03T14:57:35Z</time>
      </trkpt>
      <trkpt lat="43.01816" lon="0.84899">
        <ele>578.3</ele>
        <time>2017-09-03T14:57:39Z</time>
      </trkpt>
      <trkpt lat="43.01832" lon="0.84889">
        <ele>578.7</ele>
        <time>2017-09-03T14:57:43Z</time>
      </trkpt>
      <trkpt lat="43.01851" lon="0.8488">
        <ele>579.4</ele>
        <time>2017-09-03T14:57:47Z</time>
      </trkpt>
      <trkpt lat="43.01865" lon="0.84871">
        <ele>579.8</ele>
        <time>2017-09-03T14:57:51Z</time>
      </trkpt>
      <trkpt lat="43.01876" lon="0.84858">
        <ele>580</ele>
        <time>2017-09-03T14:57:55Z</time>
      </trkpt>
      <trkpt lat="43.01886" lon="0.84846">
        <ele>579.7</ele>
        <time>2017-09-03T14:57:59Z</time>
      </trkpt>
      <trkpt lat="43.01906" lon="0.84831">
        <ele>578.8</ele>
        <time>2017-09-03T14:58:03Z</time>
      </trkpt>
      <trkpt lat="43.01926" lon="0.84813">
        <ele>577.8</ele>
        <time>2017-09-03T14:58:07Z</time>
      </trkpt>
      <trkpt lat="43.01949" lon="0.84789">
        <ele>578</ele>
        <time>2017-09-03T14:58:11Z</time>
      </trkpt>
      <trkpt lat="43.01967" lon="0.84777">
        <ele>577.3</ele>
        <time>2017-09-03T14:58:15Z</time>
      </trkpt>
      <trkpt lat="43.01986" lon="0.84753">
        <ele>576.1</ele>
        <time>2017-09-03T14:58:19Z</time>
      </trkpt>
      <trkpt lat="43.02013" lon="0.84724">
        <ele>572.8</ele>
        <time>2017-09-03T14:58:23Z</time>
      </trkpt>
      <trkpt lat="43.02035" lon="0.84685">
        <ele>568.8</ele>
        <time>2017-09-03T14:58:27Z</time>
      </trkpt>
      <trkpt lat="43.02065" lon="0.84638">
        <ele>566.2</ele>
        <time>2017-09-03T14:58:31Z</time>
      </trkpt>
      <trkpt lat="43.02094" lon="0.84602">
        <ele>562.1</ele>
        <time>2017-09-03T14:58:35Z</time>
      </trkpt>
      <trkpt lat="43.0212" lon="0.84573">
        <ele>558.4</ele>
        <time>2017-09-03T14:58:39Z</time>
      </trkpt>
      <trkpt lat="43.02137" lon="0.84556">
        <ele>555.8</ele>
        <time>2017-09-03T14:58:43Z</time>
      </trkpt>
      <trkpt lat="43.02139" lon="0.84547">
        <ele>554.5</ele>
        <time>2017-09-03T14:58:47Z</time>
      </trkpt>
      <trkpt lat="43.02154" lon="0.84538">
        <ele>554.4</ele>
        <time>2017-09-03T14:58:51Z</time>
      </trkpt>
      <trkpt lat="43.02179" lon="0.84524">
        <ele>554.4</ele>
        <time>2017-09-03T14:58:55Z</time>
      </trkpt>
      <trkpt lat="43.0221" lon="0.8451">
        <ele>552.5</ele>
        <time>2017-09-03T14:58:59Z</time>
      </trkpt>
      <trkpt lat="43.02247" lon="0.84489">
        <ele>550</ele>
        <time>2017-09-03T14:59:03Z</time>
      </trkpt>
      <trkpt lat="43.02286" lon="0.84463">
        <ele>546.9</ele>
        <time>2017-09-03T14:59:07Z</time>
      </trkpt>
      <trkpt lat="43.02327" lon="0.84433">
        <ele>546</ele>
        <time>2017-09-03T14:59:11Z</time>
      </trkpt>
      <trkpt lat="43.02374" lon="0.84404">
        <ele>541.7</ele>
        <time>2017-09-03T14:59:15Z</time>
      </trkpt>
      <trkpt lat="43.02418" lon="0.84388">
        <ele>538.7</ele>
        <time>2017-09-03T14:59:19Z</time>
      </trkpt>
      <trkpt lat="43.02461" lon="0.84376">
        <ele>535.4</ele>
        <time>2017-09-03T14:59:23Z</time>
      </trkpt>
      <trkpt lat="43.02501" lon="0.84376">
        <ele>533.2</ele>
        <time>2017-09-03T14:59:27Z</time>
      </trkpt>
      <trkpt lat="43.02544" lon="0.84385">
        <ele>531</ele>
        <time>2017-09-03T14:59:31Z</time>
      </trkpt>
      <trkpt lat="43.02586" lon="0.84395">
        <ele>526.3</ele>
        <time>2017-09-03T14:59:35Z</time>
      </trkpt>
      <trkpt lat="43.02627" lon="0.84402">
        <ele>522.3</ele>
        <time>2017-09-03T14:59:39Z</time>
      </trkpt>
      <trkpt lat="43.02669" lon="0.84407">
        <ele>521</ele>
        <time>2017-09-03T14:59:43Z</time>
      </trkpt>
      <trkpt lat="43.02701" lon="0.84423">
        <ele>519.5</ele>
        <time>2017-09-03T14:59:47Z</time>
      </trkpt>
      <trkpt lat="43.0273" lon="0.84431">
        <ele>515.6</ele>
        <time>2017-09-03T14:59:51Z</time>
      </trkpt>
      <trkpt lat="43.02747" lon="0.84451">
        <ele>512.5</ele>
        <time>2017-09-03T14:59:55Z</time>
      </trkpt>
      <trkpt lat="43.02771" lon="0.84475">
        <ele>509.8</ele>
        <time>2017-09-03T14:59:59Z</time>
      </trkpt>
      <trkpt lat="43.02796" lon="0.84498">
        <ele>505.2</ele>
        <time>2017-09-03T15:00:03Z</time>
      </trkpt>
      <trkpt lat="43.02823" lon="0.84525">
        <ele>503.9</ele>
        <time>2017-09-03T15:00:07Z</time>
      </trkpt>
      <trkpt lat="43.02836" lon="0.84548">
        <ele>497.5</ele>
        <time>2017-09-03T15:00:11Z</time>
      </trkpt>
      <trkpt lat="43.02828" lon="0.84584">
        <ele>494</ele>
        <time>2017-09-03T15:00:15Z</time>
      </trkpt>
      <trkpt lat="43.02814" lon="0.84605">
        <ele>491</ele>
        <time>2017-09-03T15:00:19Z</time>
      </trkpt>
      <trkpt lat="43.02817" lon="0.84617">
        <ele>491.1</ele>
        <time>2017-09-03T15:00:23Z</time>
      </trkpt>
      <trkpt lat="43.0283" lon="0.84629">
        <ele>490.8</ele>
        <time>2017-09-03T15:00:27Z</time>
      </trkpt>
      <trkpt lat="43.02838" lon="0.84645">
        <ele>490.2</ele>
        <time>2017-09-03T15:00:31Z</time>
      </trkpt>
      <trkpt lat="43.02851" lon="0.84665">
        <ele>488.7</ele>
        <time>2017-09-03T15:00:35Z</time>
      </trkpt>
      <trkpt lat="43.02861" lon="0.84692">
        <ele>487.4</ele>
        <time>2017-09-03T15:00:39Z</time>
      </trkpt>
      <trkpt lat="43.0286" lon="0.84711">
        <ele>487.4</ele>
        <time>2017-09-03T15:00:43Z</time>
      </trkpt>
      <trkpt lat="43.02857" lon="0.84729">
        <ele>489.5</ele>
        <time>2017-09-03T15:00:47Z</time>
      </trkpt>
      <trkpt lat="43.02861" lon="0.84744">
        <ele>489.8</ele>
        <time>2017-09-03T15:00:51Z</time>
      </trkpt>
      <trkpt lat="43.02866" lon="0.84762">
        <ele>490.8</ele>
        <time>2017-09-03T15:00:55Z</time>
      </trkpt>
      <trkpt lat="43.0288" lon="0.84776">
        <ele>491.4</ele>
        <time>2017-09-03T15:00:59Z</time>
      </trkpt>
      <trkpt lat="43.02879" lon="0.84797">
        <ele>492.9</ele>
        <time>2017-09-03T15:01:03Z</time>
      </trkpt>
      <trkpt lat="43.02888" lon="0.84812">
        <ele>493.2</ele>
        <time>2017-09-03T15:01:07Z</time>
      </trkpt>
      <trkpt lat="43.02903" lon="0.84833">
        <ele>492.6</ele>
        <time>2017-09-03T15:01:11Z</time>
      </trkpt>
      <trkpt lat="43.02908" lon="0.84866">
        <ele>491.5</ele>
        <time>2017-09-03T15:01:15Z</time>
      </trkpt>
      <trkpt lat="43.02913" lon="0.84895">
        <ele>491.5</ele>
        <time>2017-09-03T15:01:19Z</time>
      </trkpt>
      <trkpt lat="43.02934" lon="0.84915">
        <ele>492.7</ele>
        <time>2017-09-03T15:01:23Z</time>
      </trkpt>
      <trkpt lat="43.02937" lon="0.84942">
        <ele>493.3</ele>
        <time>2017-09-03T15:01:27Z</time>
      </trkpt>
      <trkpt lat="43.0293" lon="0.84978">
        <ele>493.9</ele>
        <time>2017-09-03T15:01:31Z</time>
      </trkpt>
      <trkpt lat="43.02942" lon="0.84998">
        <ele>494.5</ele>
        <time>2017-09-03T15:01:35Z</time>
      </trkpt>
      <trkpt lat="43.02945" lon="0.8502">
        <ele>495.2</ele>
        <time>2017-09-03T15:01:39Z</time>
      </trkpt>
      <trkpt lat="43.02947" lon="0.85038">
        <ele>495.3</ele>
        <time>2017-09-03T15:01:43Z</time>
      </trkpt>
      <trkpt lat="43.02954" lon="0.85062">
        <ele>496.7</ele>
        <time>2017-09-03T15:01:47Z</time>
      </trkpt>
      <trkpt lat="43.02964" lon="0.85078">
        <ele>497.1</ele>
        <time>2017-09-03T15:01:51Z</time>
      </trkpt>
      <trkpt lat="43.02959" lon="0.85111">
        <ele>497</ele>
        <time>2017-09-03T15:01:55Z</time>
      </trkpt>
      <trkpt lat="43.02958" lon="0.8513">
        <ele>497.6</ele>
        <time>2017-09-03T15:01:59Z</time>
      </trkpt>
      <trkpt lat="43.02962" lon="0.85149">
        <ele>497</ele>
        <time>2017-09-03T15:02:03Z</time>
      </trkpt>
      <trkpt lat="43.02968" lon="0.85162">
        <ele>498.3</ele>
        <time>2017-09-03T15:02:07Z</time>
      </trkpt>
      <trkpt lat="43.02975" lon="0.85179">
        <ele>498.8</ele>
        <time>2017-09-03T15:02:11Z</time>
      </trkpt>
      <trkpt lat="43.02967" lon="0.85206">
        <ele>498.8</ele>
        <time>2017-09-03T15:02:15Z</time>
      </trkpt>
      <trkpt lat="43.02974" lon="0.85219">
        <ele>499.6</ele>
        <time>2017-09-03T15:02:19Z</time>
      </trkpt>
      <trkpt lat="43.02975" lon="0.85234">
        <ele>501</ele>
        <time>2017-09-03T15:02:23Z</time>
      </trkpt>
      <trkpt lat="43.02979" lon="0.85253">
        <ele>501.6</ele>
        <time>2017-09-03T15:02:27Z</time>
      </trkpt>
      <trkpt lat="43.02981" lon="0.85273">
        <ele>501.9</ele>
        <time>2017-09-03T15:02:31Z</time>
      </trkpt>
      <trkpt lat="43.02982" lon="0.8529">
        <ele>501.2</ele>
        <time>2017-09-03T15:02:35Z</time>
      </trkpt>
      <trkpt lat="43.02977" lon="0.85312">
        <ele>500.9</ele>
        <time>2017-09-03T15:02:39Z</time>
      </trkpt>
      <trkpt lat="43.02972" lon="0.85333">
        <ele>500.4</ele>
        <time>2017-09-03T15:02:43Z</time>
      </trkpt>
      <trkpt lat="43.02961" lon="0.85355">
        <ele>501.5</ele>
        <time>2017-09-03T15:02:47Z</time>
      </trkpt>
      <trkpt lat="43.02955" lon="0.85368">
        <ele>503.1</ele>
        <time>2017-09-03T15:02:51Z</time>
      </trkpt>
      <trkpt lat="43.02948" lon="0.85382">
        <ele>503.4</ele>
        <time>2017-09-03T15:02:55Z</time>
      </trkpt>
      <trkpt lat="43.02947" lon="0.85388">
        <ele>504.7</ele>
        <time>2017-09-03T15:02:59Z</time>
      </trkpt>
      <trkpt lat="43.02939" lon="0.85399">
        <ele>504.5</ele>
        <time>2017-09-03T15:03:03Z</time>
      </trkpt>
      <trkpt lat="43.02926" lon="0.85412">
        <ele>506.6</ele>
        <time>2017-09-03T15:03:07Z</time>
      </trkpt>
      <trkpt lat="43.02921" lon="0.85422">
        <ele>507.5</ele>
        <time>2017-09-03T15:03:11Z</time>
      </trkpt>
      <trkpt lat="43.0291" lon="0.85443">
        <ele>508.4</ele>
        <time>2017-09-03T15:03:15Z</time>
      </trkpt>
      <trkpt lat="43.02908" lon="0.85461">
        <ele>508.4</ele>
        <time>2017-09-03T15:03:19Z</time>
      </trkpt>
      <trkpt lat="43.02898" lon="0.85473">
        <ele>508.2</ele>
        <time>2017-09-03T15:03:23Z</time>
      </trkpt>
      <trkpt lat="43.02891" lon="0.85486">
        <ele>509.3</ele>
        <time>2017-09-03T15:03:27Z</time>
      </trkpt>
      <trkpt lat="43.02881" lon="0.85498">
        <ele>510</ele>
        <time>2017-09-03T15:03:31Z</time>
      </trkpt>
      <trkpt lat="43.02872" lon="0.85512">
        <ele>511</ele>
        <time>2017-09-03T15:03:35Z</time>
      </trkpt>
      <trkpt lat="43.02865" lon="0.85529">
        <ele>511.1</ele>
        <time>2017-09-03T15:03:39Z</time>
      </trkpt>
      <trkpt lat="43.02853" lon="0.85546">
        <ele>511.2</ele>
        <time>2017-09-03T15:03:43Z</time>
      </trkpt>
      <trkpt lat="43.02843" lon="0.85569">
        <ele>509.7</ele>
        <time>2017-09-03T15:03:47Z</time>
      </trkpt>
      <trkpt lat="43.02843" lon="0.85586">
        <ele>508.9</ele>
        <time>2017-09-03T15:03:51Z</time>
      </trkpt>
      <trkpt lat="43.02844" lon="0.85606">
        <ele>508.9</ele>
        <time>2017-09-03T15:03:55Z</time>
      </trkpt>
      <trkpt lat="43.02853" lon="0.85609">
        <ele>508.5</ele>
        <time>2017-09-03T15:03:59Z</time>
      </trkpt>
      <trkpt lat="43.02856" lon="0.8562">
        <ele>508.8</ele>
        <time>2017-09-03T15:04:03Z</time>
      </trkpt>
      <trkpt lat="43.02854" lon="0.85631">
        <ele>510.1</ele>
        <time>2017-09-03T15:04:07Z</time>
      </trkpt>
      <trkpt lat="43.02854" lon="0.85641">
        <ele>510.7</ele>
        <time>2017-09-03T15:04:11Z</time>
      </trkpt>
      <trkpt lat="43.02847" lon="0.85649">
        <ele>512.5</ele>
        <time>2017-09-03T15:04:15Z</time>
      </trkpt>
      <trkpt lat="43.02837" lon="0.85657">
        <ele>513.5</ele>
        <time>2017-09-03T15:04:19Z</time>
      </trkpt>
      <trkpt lat="43.0283" lon="0.85664">
        <ele>515.2</ele>
        <time>2017-09-03T15:04:23Z</time>
      </trkpt>
      <trkpt lat="43.02822" lon="0.85675">
        <ele>516.9</ele>
        <time>2017-09-03T15:04:27Z</time>
      </trkpt>
      <trkpt lat="43.02815" lon="0.85683">
        <ele>516.9</ele>
        <time>2017-09-03T15:04:31Z</time>
      </trkpt>
      <trkpt lat="43.02813" lon="0.85687">
        <ele>519.8</ele>
        <time>2017-09-03T15:04:35Z</time>
      </trkpt>
      <trkpt lat="43.02805" lon="0.85697">
        <ele>519.8</ele>
        <time>2017-09-03T15:04:39Z</time>
      </trkpt>
      <trkpt lat="43.02798" lon="0.85708">
        <ele>522</ele>
        <time>2017-09-03T15:04:43Z</time>
      </trkpt>
      <trkpt lat="43.02793" lon="0.85716">
        <ele>523.7</ele>
        <time>2017-09-03T15:04:47Z</time>
      </trkpt>
      <trkpt lat="43.02791" lon="0.85726">
        <ele>525.2</ele>
        <time>2017-09-03T15:04:51Z</time>
      </trkpt>
      <trkpt lat="43.02791" lon="0.85727">
        <ele>526.3</ele>
        <time>2017-09-03T15:04:55Z</time>
      </trkpt>
      <trkpt lat="43.02784" lon="0.85735">
        <ele>527.9</ele>
        <time>2017-09-03T15:04:59Z</time>
      </trkpt>
      <trkpt lat="43.0278" lon="0.85743">
        <ele>528.8</ele>
        <time>2017-09-03T15:05:03Z</time>
      </trkpt>
      <trkpt lat="43.02774" lon="0.85751">
        <ele>529</ele>
        <time>2017-09-03T15:05:07Z</time>
      </trkpt>
      <trkpt lat="43.0277" lon="0.85758">
        <ele>531.4</ele>
        <time>2017-09-03T15:05:11Z</time>
      </trkpt>
      <trkpt lat="43.02762" lon="0.85769">
        <ele>533.1</ele>
        <time>2017-09-03T15:05:15Z</time>
      </trkpt>
      <trkpt lat="43.02755" lon="0.85778">
        <ele>534.3</ele>
        <time>2017-09-03T15:05:19Z</time>
      </trkpt>
      <trkpt lat="43.02748" lon="0.85786">
        <ele>535.3</ele>
        <time>2017-09-03T15:05:23Z</time>
      </trkpt>
      <trkpt lat="43.02744" lon="0.85797">
        <ele>535.9</ele>
        <time>2017-09-03T15:05:27Z</time>
      </trkpt>
      <trkpt lat="43.02739" lon="0.85805">
        <ele>536.8</ele>
        <time>2017-09-03T15:05:31Z</time>
      </trkpt>
      <trkpt lat="43.02726" lon="0.85811">
        <ele>538.4</ele>
        <time>2017-09-03T15:05:35Z</time>
      </trkpt>
      <trkpt lat="43.02715" lon="0.85819">
        <ele>539.3</ele>
        <time>2017-09-03T15:05:39Z</time>
      </trkpt>
      <trkpt lat="43.02707" lon="0.85828">
        <ele>540.7</ele>
        <time>2017-09-03T15:05:43Z</time>
      </trkpt>
      <trkpt lat="43.02695" lon="0.85833">
        <ele>540.9</ele>
        <time>2017-09-03T15:05:47Z</time>
      </trkpt>
      <trkpt lat="43.0269" lon="0.85842">
        <ele>542.3</ele>
        <time>2017-09-03T15:05:51Z</time>
      </trkpt>
      <trkpt lat="43.02685" lon="0.85847">
        <ele>542.7</ele>
        <time>2017-09-03T15:05:55Z</time>
      </trkpt>
      <trkpt lat="43.02681" lon="0.85855">
        <ele>544.7</ele>
        <time>2017-09-03T15:05:59Z</time>
      </trkpt>
      <trkpt lat="43.02672" lon="0.85862">
        <ele>545.1</ele>
        <time>2017-09-03T15:06:03Z</time>
      </trkpt>
      <trkpt lat="43.02669" lon="0.85867">
        <ele>547.4</ele>
        <time>2017-09-03T15:06:07Z</time>
      </trkpt>
      <trkpt lat="43.02663" lon="0.85873">
        <ele>549.1</ele>
        <time>2017-09-03T15:06:11Z</time>
      </trkpt>
      <trkpt lat="43.02659" lon="0.85887">
        <ele>551.1</ele>
        <time>2017-09-03T15:06:15Z</time>
      </trkpt>
      <trkpt lat="43.02653" lon="0.85896">
        <ele>551.6</ele>
        <time>2017-09-03T15:06:19Z</time>
      </trkpt>
      <trkpt lat="43.02646" lon="0.85905">
        <ele>554.2</ele>
        <time>2017-09-03T15:06:23Z</time>
      </trkpt>
      <trkpt lat="43.0264" lon="0.85916">
        <ele>555.5</ele>
        <time>2017-09-03T15:06:27Z</time>
      </trkpt>
      <trkpt lat="43.02634" lon="0.85923">
        <ele>557.4</ele>
        <time>2017-09-03T15:06:31Z</time>
      </trkpt>
      <trkpt lat="43.02627" lon="0.85933">
        <ele>559.2</ele>
        <time>2017-09-03T15:06:35Z</time>
      </trkpt>
      <trkpt lat="43.02622" lon="0.8594">
        <ele>560.5</ele>
        <time>2017-09-03T15:06:39Z</time>
      </trkpt>
      <trkpt lat="43.02613" lon="0.85947">
        <ele>562</ele>
        <time>2017-09-03T15:06:43Z</time>
      </trkpt>
      <trkpt lat="43.02606" lon="0.85949">
        <ele>564.4</ele>
        <time>2017-09-03T15:06:47Z</time>
      </trkpt>
      <trkpt lat="43.02603" lon="0.85953">
        <ele>565.6</ele>
        <time>2017-09-03T15:06:51Z</time>
      </trkpt>
      <trkpt lat="43.02595" lon="0.85959">
        <ele>567.5</ele>
        <time>2017-09-03T15:06:55Z</time>
      </trkpt>
      <trkpt lat="43.0259" lon="0.85972">
        <ele>569.2</ele>
        <time>2017-09-03T15:06:59Z</time>
      </trkpt>
      <trkpt lat="43.02587" lon="0.85975">
        <ele>571</ele>
        <time>2017-09-03T15:07:03Z</time>
      </trkpt>
      <trkpt lat="43.02581" lon="0.85981">
        <ele>572.9</ele>
        <time>2017-09-03T15:07:07Z</time>
      </trkpt>
      <trkpt lat="43.02575" lon="0.85981">
        <ele>573.9</ele>
        <time>2017-09-03T15:07:11Z</time>
      </trkpt>
      <trkpt lat="43.02568" lon="0.8598">
        <ele>575.2</ele>
        <time>2017-09-03T15:07:15Z</time>
      </trkpt>
      <trkpt lat="43.02564" lon="0.85986">
        <ele>576.6</ele>
        <time>2017-09-03T15:07:19Z</time>
      </trkpt>
      <trkpt lat="43.02559" lon="0.85994">
        <ele>578.1</ele>
        <time>2017-09-03T15:07:23Z</time>
      </trkpt>
      <trkpt lat="43.0255" lon="0.85998">
        <ele>579.1</ele>
        <time>2017-09-03T15:07:27Z</time>
      </trkpt>
      <trkpt lat="43.02542" lon="0.8601">
        <ele>580.6</ele>
        <time>2017-09-03T15:07:31Z</time>
      </trkpt>
      <trkpt lat="43.02541" lon="0.86017">
        <ele>583</ele>
        <time>2017-09-03T15:07:35Z</time>
      </trkpt>
      <trkpt lat="43.02547" lon="0.86023">
        <ele>584.7</ele>
        <time>2017-09-03T15:07:39Z</time>
      </trkpt>
      <trkpt lat="43.02553" lon="0.86026">
        <ele>586</ele>
        <time>2017-09-03T15:07:43Z</time>
      </trkpt>
      <trkpt lat="43.02565" lon="0.8603">
        <ele>586.4</ele>
        <time>2017-09-03T15:07:47Z</time>
      </trkpt>
      <trkpt lat="43.02572" lon="0.86035">
        <ele>587.5</ele>
        <time>2017-09-03T15:07:51Z</time>
      </trkpt>
      <trkpt lat="43.02577" lon="0.86043">
        <ele>588.8</ele>
        <time>2017-09-03T15:07:55Z</time>
      </trkpt>
      <trkpt lat="43.0258" lon="0.86051">
        <ele>589.4</ele>
        <time>2017-09-03T15:07:59Z</time>
      </trkpt>
      <trkpt lat="43.02584" lon="0.86061">
        <ele>590.7</ele>
        <time>2017-09-03T15:08:03Z</time>
      </trkpt>
      <trkpt lat="43.02593" lon="0.86068">
        <ele>592.1</ele>
        <time>2017-09-03T15:08:07Z</time>
      </trkpt>
      <trkpt lat="43.02599" lon="0.86078">
        <ele>593</ele>
        <time>2017-09-03T15:08:11Z</time>
      </trkpt>
      <trkpt lat="43.02607" lon="0.86087">
        <ele>594.4</ele>
        <time>2017-09-03T15:08:15Z</time>
      </trkpt>
      <trkpt lat="43.02616" lon="0.86094">
        <ele>594.5</ele>
        <time>2017-09-03T15:08:19Z</time>
      </trkpt>
      <trkpt lat="43.02623" lon="0.86101">
        <ele>595.5</ele>
        <time>2017-09-03T15:08:23Z</time>
      </trkpt>
      <trkpt lat="43.02633" lon="0.86107">
        <ele>596.8</ele>
        <time>2017-09-03T15:08:27Z</time>
      </trkpt>
      <trkpt lat="43.02644" lon="0.86109">
        <ele>597.8</ele>
        <time>2017-09-03T15:08:31Z</time>
      </trkpt>
      <trkpt lat="43.02654" lon="0.8611">
        <ele>598.2</ele>
        <time>2017-09-03T15:08:35Z</time>
      </trkpt>
      <trkpt lat="43.02663" lon="0.86104">
        <ele>599.9</ele>
        <time>2017-09-03T15:08:39Z</time>
      </trkpt>
      <trkpt lat="43.0267" lon="0.86095">
        <ele>601.4</ele>
        <time>2017-09-03T15:08:43Z</time>
      </trkpt>
      <trkpt lat="43.02679" lon="0.86089">
        <ele>602.7</ele>
        <time>2017-09-03T15:08:47Z</time>
      </trkpt>
      <trkpt lat="43.02687" lon="0.86084">
        <ele>603.9</ele>
        <time>2017-09-03T15:08:51Z</time>
      </trkpt>
      <trkpt lat="43.02693" lon="0.8608">
        <ele>604.4</ele>
        <time>2017-09-03T15:08:55Z</time>
      </trkpt>
      <trkpt lat="43.02701" lon="0.86075">
        <ele>607</ele>
        <time>2017-09-03T15:08:59Z</time>
      </trkpt>
      <trkpt lat="43.02706" lon="0.86074">
        <ele>608.2</ele>
        <time>2017-09-03T15:09:03Z</time>
      </trkpt>
      <trkpt lat="43.02715" lon="0.86073">
        <ele>609.5</ele>
        <time>2017-09-03T15:09:07Z</time>
      </trkpt>
      <trkpt lat="43.02725" lon="0.86068">
        <ele>610.8</ele>
        <time>2017-09-03T15:09:11Z</time>
      </trkpt>
      <trkpt lat="43.02733" lon="0.86067">
        <ele>612.6</ele>
        <time>2017-09-03T15:09:15Z</time>
      </trkpt>
      <trkpt lat="43.02742" lon="0.86066">
        <ele>614.1</ele>
        <time>2017-09-03T15:09:19Z</time>
      </trkpt>
      <trkpt lat="43.02752" lon="0.8606">
        <ele>615.4</ele>
        <time>2017-09-03T15:09:23Z</time>
      </trkpt>
      <trkpt lat="43.0276" lon="0.86058">
        <ele>617.5</ele>
        <time>2017-09-03T15:09:27Z</time>
      </trkpt>
      <trkpt lat="43.02768" lon="0.86064">
        <ele>618.7</ele>
        <time>2017-09-03T15:09:31Z</time>
      </trkpt>
      <trkpt lat="43.02771" lon="0.86069">
        <ele>620.6</ele>
        <time>2017-09-03T15:09:35Z</time>
      </trkpt>
      <trkpt lat="43.02773" lon="0.86079">
        <ele>622.4</ele>
        <time>2017-09-03T15:09:39Z</time>
      </trkpt>
      <trkpt lat="43.02777" lon="0.86093">
        <ele>624.7</ele>
        <time>2017-09-03T15:09:43Z</time>
      </trkpt>
      <trkpt lat="43.02773" lon="0.86104">
        <ele>625.7</ele>
        <time>2017-09-03T15:09:47Z</time>
      </trkpt>
      <trkpt lat="43.02776" lon="0.86114">
        <ele>626.2</ele>
        <time>2017-09-03T15:09:51Z</time>
      </trkpt>
      <trkpt lat="43.0279" lon="0.86123">
        <ele>626.6</ele>
        <time>2017-09-03T15:09:55Z</time>
      </trkpt>
      <trkpt lat="43.02798" lon="0.86135">
        <ele>626.9</ele>
        <time>2017-09-03T15:09:59Z</time>
      </trkpt>
      <trkpt lat="43.02806" lon="0.86142">
        <ele>626.9</ele>
        <time>2017-09-03T15:10:03Z</time>
      </trkpt>
      <trkpt lat="43.0282" lon="0.8615">
        <ele>627.3</ele>
        <time>2017-09-03T15:10:07Z</time>
      </trkpt>
      <trkpt lat="43.02827" lon="0.86156">
        <ele>627.1</ele>
        <time>2017-09-03T15:10:11Z</time>
      </trkpt>
      <trkpt lat="43.02837" lon="0.86161">
        <ele>628.3</ele>
        <time>2017-09-03T15:10:15Z</time>
      </trkpt>
      <trkpt lat="43.02853" lon="0.86168">
        <ele>628.6</ele>
        <time>2017-09-03T15:10:19Z</time>
      </trkpt>
      <trkpt lat="43.02863" lon="0.86184">
        <ele>628.5</ele>
        <time>2017-09-03T15:10:23Z</time>
      </trkpt>
      <trkpt lat="43.02862" lon="0.86209">
        <ele>627.4</ele>
        <time>2017-09-03T15:10:27Z</time>
      </trkpt>
      <trkpt lat="43.02869" lon="0.86241">
        <ele>625.8</ele>
        <time>2017-09-03T15:10:31Z</time>
      </trkpt>
      <trkpt lat="43.02872" lon="0.86278">
        <ele>622.5</ele>
        <time>2017-09-03T15:10:35Z</time>
      </trkpt>
      <trkpt lat="43.02879" lon="0.86312">
        <ele>622.5</ele>
        <time>2017-09-03T15:10:39Z</time>
      </trkpt>
      <trkpt lat="43.0289" lon="0.86352">
        <ele>617.6</ele>
        <time>2017-09-03T15:10:43Z</time>
      </trkpt>
      <trkpt lat="43.02905" lon="0.86386">
        <ele>615.2</ele>
        <time>2017-09-03T15:10:47Z</time>
      </trkpt>
      <trkpt lat="43.02917" lon="0.8643">
        <ele>611</ele>
        <time>2017-09-03T15:10:51Z</time>
      </trkpt>
      <trkpt lat="43.02939" lon="0.86473">
        <ele>608.8</ele>
        <time>2017-09-03T15:10:55Z</time>
      </trkpt>
      <trkpt lat="43.02958" lon="0.86509">
        <ele>607.4</ele>
        <time>2017-09-03T15:10:59Z</time>
      </trkpt>
      <trkpt lat="43.02978" lon="0.86545">
        <ele>602.6</ele>
        <time>2017-09-03T15:11:03Z</time>
      </trkpt>
      <trkpt lat="43.02991" lon="0.86587">
        <ele>601.6</ele>
        <time>2017-09-03T15:11:07Z</time>
      </trkpt>
      <trkpt lat="43.0301" lon="0.86624">
        <ele>594.5</ele>
        <time>2017-09-03T15:11:11Z</time>
      </trkpt>
      <trkpt lat="43.03035" lon="0.86655">
        <ele>593.1</ele>
        <time>2017-09-03T15:11:15Z</time>
      </trkpt>
      <trkpt lat="43.03061" lon="0.86685">
        <ele>591.3</ele>
        <time>2017-09-03T15:11:19Z</time>
      </trkpt>
      <trkpt lat="43.0308" lon="0.86713">
        <ele>584.7</ele>
        <time>2017-09-03T15:11:23Z</time>
      </trkpt>
      <trkpt lat="43.03093" lon="0.86736">
        <ele>583</ele>
        <time>2017-09-03T15:11:27Z</time>
      </trkpt>
      <trkpt lat="43.03128" lon="0.86736">
        <ele>579.5</ele>
        <time>2017-09-03T15:11:31Z</time>
      </trkpt>
      <trkpt lat="43.03146" lon="0.86755">
        <ele>578.5</ele>
        <time>2017-09-03T15:11:35Z</time>
      </trkpt>
      <trkpt lat="43.03171" lon="0.86756">
        <ele>574.6</ele>
        <time>2017-09-03T15:11:39Z</time>
      </trkpt>
      <trkpt lat="43.03192" lon="0.86741">
        <ele>571.5</ele>
        <time>2017-09-03T15:11:43Z</time>
      </trkpt>
      <trkpt lat="43.03225" lon="0.86728">
        <ele>567.5</ele>
        <time>2017-09-03T15:11:47Z</time>
      </trkpt>
      <trkpt lat="43.03252" lon="0.86727">
        <ele>566.1</ele>
        <time>2017-09-03T15:11:51Z</time>
      </trkpt>
      <trkpt lat="43.03286" lon="0.86742">
        <ele>560.7</ele>
        <time>2017-09-03T15:11:55Z</time>
      </trkpt>
      <trkpt lat="43.03314" lon="0.86769">
        <ele>559</ele>
        <time>2017-09-03T15:11:59Z</time>
      </trkpt>
      <trkpt lat="43.03332" lon="0.86813">
        <ele>556.4</ele>
        <time>2017-09-03T15:12:03Z</time>
      </trkpt>
      <trkpt lat="43.03352" lon="0.86853">
        <ele>555.6</ele>
        <time>2017-09-03T15:12:07Z</time>
      </trkpt>
      <trkpt lat="43.03359" lon="0.86905">
        <ele>550.1</ele>
        <time>2017-09-03T15:12:11Z</time>
      </trkpt>
      <trkpt lat="43.03361" lon="0.86933">
        <ele>545.4</ele>
        <time>2017-09-03T15:12:15Z</time>
      </trkpt>
      <trkpt lat="43.03377" lon="0.86919">
        <ele>544.3</ele>
        <time>2017-09-03T15:12:19Z</time>
      </trkpt>
      <trkpt lat="43.03381" lon="0.86899">
        <ele>543.1</ele>
        <time>2017-09-03T15:12:23Z</time>
      </trkpt>
      <trkpt lat="43.03378" lon="0.86873">
        <ele>542.6</ele>
        <time>2017-09-03T15:12:27Z</time>
      </trkpt>
      <trkpt lat="43.03374" lon="0.86837">
        <ele>540</ele>
        <time>2017-09-03T15:12:31Z</time>
      </trkpt>
      <trkpt lat="43.03363" lon="0.868">
        <ele>537.5</ele>
        <time>2017-09-03T15:12:35Z</time>
      </trkpt>
      <trkpt lat="43.03356" lon="0.86761">
        <ele>534.6</ele>
        <time>2017-09-03T15:12:39Z</time>
      </trkpt>
      <trkpt lat="43.03354" lon="0.86721">
        <ele>532.6</ele>
        <time>2017-09-03T15:12:43Z</time>
      </trkpt>
      <trkpt lat="43.03348" lon="0.86686">
        <ele>526.4</ele>
        <time>2017-09-03T15:12:47Z</time>
      </trkpt>
      <trkpt lat="43.03341" lon="0.86655">
        <ele>522.5</ele>
        <time>2017-09-03T15:12:51Z</time>
      </trkpt>
      <trkpt lat="43.03327" lon="0.86623">
        <ele>517.7</ele>
        <time>2017-09-03T15:12:55Z</time>
      </trkpt>
      <trkpt lat="43.0331" lon="0.86598">
        <ele>517.7</ele>
        <time>2017-09-03T15:12:59Z</time>
      </trkpt>
      <trkpt lat="43.03291" lon="0.86591">
        <ele>517</ele>
        <time>2017-09-03T15:13:03Z</time>
      </trkpt>
      <trkpt lat="43.03287" lon="0.86583">
        <ele>517</ele>
        <time>2017-09-03T15:13:07Z</time>
      </trkpt>
      <trkpt lat="43.03305" lon="0.86589">
        <ele>513.8</ele>
        <time>2017-09-03T15:13:11Z</time>
      </trkpt>
      <trkpt lat="43.03326" lon="0.86596">
        <ele>512.6</ele>
        <time>2017-09-03T15:13:15Z</time>
      </trkpt>
      <trkpt lat="43.03346" lon="0.86607">
        <ele>509.5</ele>
        <time>2017-09-03T15:13:19Z</time>
      </trkpt>
      <trkpt lat="43.03369" lon="0.86626">
        <ele>505.7</ele>
        <time>2017-09-03T15:13:23Z</time>
      </trkpt>
      <trkpt lat="43.03373" lon="0.86652">
        <ele>502.8</ele>
        <time>2017-09-03T15:13:27Z</time>
      </trkpt>
      <trkpt lat="43.03392" lon="0.86676">
        <ele>502.3</ele>
        <time>2017-09-03T15:13:31Z</time>
      </trkpt>
      <trkpt lat="43.03407" lon="0.86703">
        <ele>499.8</ele>
        <time>2017-09-03T15:13:35Z</time>
      </trkpt>
      <trkpt lat="43.03419" lon="0.86723">
        <ele>499.2</ele>
        <time>2017-09-03T15:13:39Z</time>
      </trkpt>
      <trkpt lat="43.0343" lon="0.86752">
        <ele>497.5</ele>
        <time>2017-09-03T15:13:43Z</time>
      </trkpt>
      <trkpt lat="43.03442" lon="0.86786">
        <ele>494.7</ele>
        <time>2017-09-03T15:13:47Z</time>
      </trkpt>
      <trkpt lat="43.03457" lon="0.8681">
        <ele>492.9</ele>
        <time>2017-09-03T15:13:51Z</time>
      </trkpt>
      <trkpt lat="43.03468" lon="0.8683">
        <ele>492.6</ele>
        <time>2017-09-03T15:13:55Z</time>
      </trkpt>
      <trkpt lat="43.03477" lon="0.86846">
        <ele>489</ele>
        <time>2017-09-03T15:13:59Z</time>
      </trkpt>
      <trkpt lat="43.03485" lon="0.86868">
        <ele>488.7</ele>
        <time>2017-09-03T15:14:03Z</time>
      </trkpt>
      <trkpt lat="43.0349" lon="0.86891">
        <ele>485.4</ele>
        <time>2017-09-03T15:14:07Z</time>
      </trkpt>
      <trkpt lat="43.03497" lon="0.86904">
        <ele>483.8</ele>
        <time>2017-09-03T15:14:11Z</time>
      </trkpt>
      <trkpt lat="43.03511" lon="0.86906">
        <ele>483.8</ele>
        <time>2017-09-03T15:14:15Z</time>
      </trkpt>
      <trkpt lat="43.03515" lon="0.86896">
        <ele>482.6</ele>
        <time>2017-09-03T15:14:19Z</time>
      </trkpt>
      <trkpt lat="43.03512" lon="0.86879">
        <ele>480.9</ele>
        <time>2017-09-03T15:14:23Z</time>
      </trkpt>
      <trkpt lat="43.03503" lon="0.86849">
        <ele>477.4</ele>
        <time>2017-09-03T15:14:27Z</time>
      </trkpt>
      <trkpt lat="43.03491" lon="0.86813">
        <ele>476.4</ele>
        <time>2017-09-03T15:14:31Z</time>
      </trkpt>
      <trkpt lat="43.03488" lon="0.86772">
        <ele>474.7</ele>
        <time>2017-09-03T15:14:35Z</time>
      </trkpt>
      <trkpt lat="43.03473" lon="0.86741">
        <ele>471.5</ele>
        <time>2017-09-03T15:14:39Z</time>
      </trkpt>
      <trkpt lat="43.03466" lon="0.86709">
        <ele>468.9</ele>
        <time>2017-09-03T15:14:43Z</time>
      </trkpt>
      <trkpt lat="43.03466" lon="0.86676">
        <ele>468.4</ele>
        <time>2017-09-03T15:14:47Z</time>
      </trkpt>
      <trkpt lat="43.03464" lon="0.86628">
        <ele>465.8</ele>
        <time>2017-09-03T15:14:51Z</time>
      </trkpt>
      <trkpt lat="43.03468" lon="0.86584">
        <ele>464.7</ele>
        <time>2017-09-03T15:14:55Z</time>
      </trkpt>
      <trkpt lat="43.03485" lon="0.86543">
        <ele>462</ele>
        <time>2017-09-03T15:14:59Z</time>
      </trkpt>
      <trkpt lat="43.03508" lon="0.86511">
        <ele>461.1</ele>
        <time>2017-09-03T15:15:03Z</time>
      </trkpt>
      <trkpt lat="43.0353" lon="0.8649">
        <ele>457.2</ele>
        <time>2017-09-03T15:15:07Z</time>
      </trkpt>
      <trkpt lat="43.03557" lon="0.86472">
        <ele>456.1</ele>
        <time>2017-09-03T15:15:11Z</time>
      </trkpt>
      <trkpt lat="43.03577" lon="0.8646">
        <ele>453.8</ele>
        <time>2017-09-03T15:15:15Z</time>
      </trkpt>
      <trkpt lat="43.03594" lon="0.86449">
        <ele>453.6</ele>
        <time>2017-09-03T15:15:19Z</time>
      </trkpt>
      <trkpt lat="43.03619" lon="0.86439">
        <ele>453.2</ele>
        <time>2017-09-03T15:15:23Z</time>
      </trkpt>
      <trkpt lat="43.03644" lon="0.86432">
        <ele>452.6</ele>
        <time>2017-09-03T15:15:27Z</time>
      </trkpt>
      <trkpt lat="43.03664" lon="0.86429">
        <ele>452.8</ele>
        <time>2017-09-03T15:15:31Z</time>
      </trkpt>
      <trkpt lat="43.03683" lon="0.86427">
        <ele>453.4</ele>
        <time>2017-09-03T15:15:35Z</time>
      </trkpt>
      <trkpt lat="43.0371" lon="0.86416">
        <ele>452.7</ele>
        <time>2017-09-03T15:15:39Z</time>
      </trkpt>
      <trkpt lat="43.03735" lon="0.86392">
        <ele>452.6</ele>
        <time>2017-09-03T15:15:43Z</time>
      </trkpt>
      <trkpt lat="43.0376" lon="0.86384">
        <ele>452.2</ele>
        <time>2017-09-03T15:15:47Z</time>
      </trkpt>
      <trkpt lat="43.03787" lon="0.86373">
        <ele>451.7</ele>
        <time>2017-09-03T15:15:51Z</time>
      </trkpt>
      <trkpt lat="43.03812" lon="0.86358">
        <ele>451.4</ele>
        <time>2017-09-03T15:15:55Z</time>
      </trkpt>
      <trkpt lat="43.03832" lon="0.8634">
        <ele>450.9</ele>
        <time>2017-09-03T15:15:59Z</time>
      </trkpt>
      <trkpt lat="43.03847" lon="0.8631">
        <ele>450.5</ele>
        <time>2017-09-03T15:16:03Z</time>
      </trkpt>
      <trkpt lat="43.03859" lon="0.86287">
        <ele>449.7</ele>
        <time>2017-09-03T15:16:07Z</time>
      </trkpt>
      <trkpt lat="43.0387" lon="0.86261">
        <ele>449.2</ele>
        <time>2017-09-03T15:16:11Z</time>
      </trkpt>
      <trkpt lat="43.0389" lon="0.86236">
        <ele>450</ele>
        <time>2017-09-03T15:16:15Z</time>
      </trkpt>
      <trkpt lat="43.03913" lon="0.86209">
        <ele>450.3</ele>
        <time>2017-09-03T15:16:19Z</time>
      </trkpt>
      <trkpt lat="43.0393" lon="0.86193">
        <ele>450.3</ele>
        <time>2017-09-03T15:16:23Z</time>
      </trkpt>
      <trkpt lat="43.0395" lon="0.86162">
        <ele>449.2</ele>
        <time>2017-09-03T15:16:27Z</time>
      </trkpt>
      <trkpt lat="43.03964" lon="0.86134">
        <ele>448.8</ele>
        <time>2017-09-03T15:16:31Z</time>
      </trkpt>
      <trkpt lat="43.03972" lon="0.86111">
        <ele>448.2</ele>
        <time>2017-09-03T15:16:35Z</time>
      </trkpt>
      <trkpt lat="43.0398" lon="0.86085">
        <ele>448.1</ele>
        <time>2017-09-03T15:16:39Z</time>
      </trkpt>
      <trkpt lat="43.03999" lon="0.86058">
        <ele>446.7</ele>
        <time>2017-09-03T15:16:43Z</time>
      </trkpt>
      <trkpt lat="43.04005" lon="0.8604">
        <ele>446.7</ele>
        <time>2017-09-03T15:16:47Z</time>
      </trkpt>
      <trkpt lat="43.04022" lon="0.86003">
        <ele>447.3</ele>
        <time>2017-09-03T15:16:51Z</time>
      </trkpt>
      <trkpt lat="43.04039" lon="0.85967">
        <ele>445.6</ele>
        <time>2017-09-03T15:16:55Z</time>
      </trkpt>
      <trkpt lat="43.0406" lon="0.85928">
        <ele>442.9</ele>
        <time>2017-09-03T15:16:59Z</time>
      </trkpt>
      <trkpt lat="43.04068" lon="0.85871">
        <ele>439.7</ele>
        <time>2017-09-03T15:17:03Z</time>
      </trkpt>
      <trkpt lat="43.04054" lon="0.85838">
        <ele>439.6</ele>
        <time>2017-09-03T15:17:07Z</time>
      </trkpt>
      <trkpt lat="43.0407" lon="0.85801">
        <ele>435.9</ele>
        <time>2017-09-03T15:17:11Z</time>
      </trkpt>
      <trkpt lat="43.04088" lon="0.85781">
        <ele>436.9</ele>
        <time>2017-09-03T15:17:15Z</time>
      </trkpt>
      <trkpt lat="43.04109" lon="0.85761">
        <ele>438.1</ele>
        <time>2017-09-03T15:17:19Z</time>
      </trkpt>
      <trkpt lat="43.0412" lon="0.85746">
        <ele>438.3</ele>
        <time>2017-09-03T15:17:23Z</time>
      </trkpt>
      <trkpt lat="43.04137" lon="0.85727">
        <ele>440.1</ele>
        <time>2017-09-03T15:17:27Z</time>
      </trkpt>
      <trkpt lat="43.04158" lon="0.85721">
        <ele>441.6</ele>
        <time>2017-09-03T15:17:31Z</time>
      </trkpt>
      <trkpt lat="43.04174" lon="0.8574">
        <ele>441.8</ele>
        <time>2017-09-03T15:17:35Z</time>
      </trkpt>
      <trkpt lat="43.04193" lon="0.85761">
        <ele>442.5</ele>
        <time>2017-09-03T15:17:39Z</time>
      </trkpt>
      <trkpt lat="43.0421" lon="0.85782">
        <ele>442.3</ele>
        <time>2017-09-03T15:17:43Z</time>
      </trkpt>
      <trkpt lat="43.04222" lon="0.85808">
        <ele>442.7</ele>
        <time>2017-09-03T15:17:47Z</time>
      </trkpt>
      <trkpt lat="43.04231" lon="0.85836">
        <ele>442.3</ele>
        <time>2017-09-03T15:17:51Z</time>
      </trkpt>
      <trkpt lat="43.0424" lon="0.85869">
        <ele>442.3</ele>
        <time>2017-09-03T15:17:55Z</time>
      </trkpt>
      <trkpt lat="43.04258" lon="0.85892">
        <ele>442.2</ele>
        <time>2017-09-03T15:17:59Z</time>
      </trkpt>
      <trkpt lat="43.04269" lon="0.85923">
        <ele>442.2</ele>
        <time>2017-09-03T15:18:03Z</time>
      </trkpt>
      <trkpt lat="43.04268" lon="0.85959">
        <ele>441.7</ele>
        <time>2017-09-03T15:18:07Z</time>
      </trkpt>
      <trkpt lat="43.04281" lon="0.85997">
        <ele>441.1</ele>
        <time>2017-09-03T15:18:11Z</time>
      </trkpt>
      <trkpt lat="43.04306" lon="0.86021">
        <ele>440.6</ele>
        <time>2017-09-03T15:18:15Z</time>
      </trkpt>
      <trkpt lat="43.0433" lon="0.86042">
        <ele>440.1</ele>
        <time>2017-09-03T15:18:19Z</time>
      </trkpt>
      <trkpt lat="43.04355" lon="0.86065">
        <ele>439.5</ele>
        <time>2017-09-03T15:18:23Z</time>
      </trkpt>
      <trkpt lat="43.04378" lon="0.86083">
        <ele>439.8</ele>
        <time>2017-09-03T15:18:27Z</time>
      </trkpt>
      <trkpt lat="43.04404" lon="0.86088">
        <ele>439.4</ele>
        <time>2017-09-03T15:18:31Z</time>
      </trkpt>
      <trkpt lat="43.04438" lon="0.86084">
        <ele>438.1</ele>
        <time>2017-09-03T15:18:35Z</time>
      </trkpt>
      <trkpt lat="43.04467" lon="0.86108">
        <ele>436.7</ele>
        <time>2017-09-03T15:18:39Z</time>
      </trkpt>
      <trkpt lat="43.04493" lon="0.86131">
        <ele>436.7</ele>
        <time>2017-09-03T15:18:43Z</time>
      </trkpt>
      <trkpt lat="43.0452" lon="0.86148">
        <ele>436.2</ele>
        <time>2017-09-03T15:18:47Z</time>
      </trkpt>
      <trkpt lat="43.04547" lon="0.86162">
        <ele>435.9</ele>
        <time>2017-09-03T15:18:51Z</time>
      </trkpt>
      <trkpt lat="43.04574" lon="0.86171">
        <ele>435.8</ele>
        <time>2017-09-03T15:18:55Z</time>
      </trkpt>
      <trkpt lat="43.04592" lon="0.862">
        <ele>434.6</ele>
        <time>2017-09-03T15:18:59Z</time>
      </trkpt>
      <trkpt lat="43.04608" lon="0.86237">
        <ele>432.2</ele>
        <time>2017-09-03T15:19:03Z</time>
      </trkpt>
      <trkpt lat="43.04622" lon="0.86281">
        <ele>430.6</ele>
        <time>2017-09-03T15:19:07Z</time>
      </trkpt>
      <trkpt lat="43.04636" lon="0.86326">
        <ele>430.6</ele>
        <time>2017-09-03T15:19:11Z</time>
      </trkpt>
      <trkpt lat="43.04656" lon="0.86364">
        <ele>428.4</ele>
        <time>2017-09-03T15:19:15Z</time>
      </trkpt>
      <trkpt lat="43.04678" lon="0.86406">
        <ele>427.4</ele>
        <time>2017-09-03T15:19:19Z</time>
      </trkpt>
      <trkpt lat="43.04702" lon="0.86447">
        <ele>425.2</ele>
        <time>2017-09-03T15:19:23Z</time>
      </trkpt>
      <trkpt lat="43.04725" lon="0.86481">
        <ele>424.1</ele>
        <time>2017-09-03T15:19:27Z</time>
      </trkpt>
      <trkpt lat="43.0475" lon="0.86514">
        <ele>424.3</ele>
        <time>2017-09-03T15:19:31Z</time>
      </trkpt>
      <trkpt lat="43.04773" lon="0.86539">
        <ele>424.9</ele>
        <time>2017-09-03T15:19:35Z</time>
      </trkpt>
      <trkpt lat="43.04802" lon="0.86552">
        <ele>424.5</ele>
        <time>2017-09-03T15:19:39Z</time>
      </trkpt>
      <trkpt lat="43.04825" lon="0.86567">
        <ele>425</ele>
        <time>2017-09-03T15:19:43Z</time>
      </trkpt>
      <trkpt lat="43.04842" lon="0.86583">
        <ele>425.1</ele>
        <time>2017-09-03T15:19:47Z</time>
      </trkpt>
      <trkpt lat="43.04858" lon="0.86599">
        <ele>426.1</ele>
        <time>2017-09-03T15:19:51Z</time>
      </trkpt>
      <trkpt lat="43.04876" lon="0.86617">
        <ele>426.7</ele>
        <time>2017-09-03T15:19:55Z</time>
      </trkpt>
      <trkpt lat="43.04887" lon="0.86635">
        <ele>427.1</ele>
        <time>2017-09-03T15:19:59Z</time>
      </trkpt>
      <trkpt lat="43.04899" lon="0.86651">
        <ele>427.5</ele>
        <time>2017-09-03T15:20:03Z</time>
      </trkpt>
      <trkpt lat="43.04911" lon="0.86673">
        <ele>428.6</ele>
        <time>2017-09-03T15:20:07Z</time>
      </trkpt>
      <trkpt lat="43.04923" lon="0.86693">
        <ele>428.8</ele>
        <time>2017-09-03T15:20:11Z</time>
      </trkpt>
      <trkpt lat="43.04936" lon="0.86715">
        <ele>430</ele>
        <time>2017-09-03T15:20:15Z</time>
      </trkpt>
      <trkpt lat="43.04946" lon="0.86737">
        <ele>430.6</ele>
        <time>2017-09-03T15:20:19Z</time>
      </trkpt>
      <trkpt lat="43.04957" lon="0.86759">
        <ele>430.7</ele>
        <time>2017-09-03T15:20:23Z</time>
      </trkpt>
      <trkpt lat="43.04965" lon="0.86782">
        <ele>432.1</ele>
        <time>2017-09-03T15:20:27Z</time>
      </trkpt>
      <trkpt lat="43.04977" lon="0.86805">
        <ele>432.4</ele>
        <time>2017-09-03T15:20:31Z</time>
      </trkpt>
      <trkpt lat="43.04988" lon="0.86827">
        <ele>432.9</ele>
        <time>2017-09-03T15:20:35Z</time>
      </trkpt>
      <trkpt lat="43.04992" lon="0.86853">
        <ele>434.4</ele>
        <time>2017-09-03T15:20:39Z</time>
      </trkpt>
      <trkpt lat="43.05001" lon="0.86877">
        <ele>434.3</ele>
        <time>2017-09-03T15:20:43Z</time>
      </trkpt>
      <trkpt lat="43.05007" lon="0.869">
        <ele>434.9</ele>
        <time>2017-09-03T15:20:47Z</time>
      </trkpt>
      <trkpt lat="43.05013" lon="0.86926">
        <ele>435.2</ele>
        <time>2017-09-03T15:20:51Z</time>
      </trkpt>
      <trkpt lat="43.05024" lon="0.86938">
        <ele>435.5</ele>
        <time>2017-09-03T15:20:55Z</time>
      </trkpt>
      <trkpt lat="43.05029" lon="0.86921">
        <ele>436.8</ele>
        <time>2017-09-03T15:20:59Z</time>
      </trkpt>
      <trkpt lat="43.05032" lon="0.86896">
        <ele>437.7</ele>
        <time>2017-09-03T15:21:03Z</time>
      </trkpt>
      <trkpt lat="43.05038" lon="0.86876">
        <ele>438</ele>
        <time>2017-09-03T15:21:07Z</time>
      </trkpt>
      <trkpt lat="43.05043" lon="0.86858">
        <ele>438.6</ele>
        <time>2017-09-03T15:21:11Z</time>
      </trkpt>
      <trkpt lat="43.05046" lon="0.86843">
        <ele>439.7</ele>
        <time>2017-09-03T15:21:15Z</time>
      </trkpt>
      <trkpt lat="43.05052" lon="0.86828">
        <ele>440.1</ele>
        <time>2017-09-03T15:21:19Z</time>
      </trkpt>
      <trkpt lat="43.05058" lon="0.86811">
        <ele>440.1</ele>
        <time>2017-09-03T15:21:23Z</time>
      </trkpt>
      <trkpt lat="43.05065" lon="0.86787">
        <ele>440.5</ele>
        <time>2017-09-03T15:21:27Z</time>
      </trkpt>
      <trkpt lat="43.05071" lon="0.8676">
        <ele>440.5</ele>
        <time>2017-09-03T15:21:31Z</time>
      </trkpt>
      <trkpt lat="43.05074" lon="0.86733">
        <ele>441.5</ele>
        <time>2017-09-03T15:21:35Z</time>
      </trkpt>
      <trkpt lat="43.05077" lon="0.86709">
        <ele>441.9</ele>
        <time>2017-09-03T15:21:39Z</time>
      </trkpt>
      <trkpt lat="43.05083" lon="0.86683">
        <ele>442.1</ele>
        <time>2017-09-03T15:21:43Z</time>
      </trkpt>
      <trkpt lat="43.05088" lon="0.8666">
        <ele>442.6</ele>
        <time>2017-09-03T15:21:47Z</time>
      </trkpt>
      <trkpt lat="43.05094" lon="0.86636">
        <ele>443.8</ele>
        <time>2017-09-03T15:21:51Z</time>
      </trkpt>
      <trkpt lat="43.05099" lon="0.86609">
        <ele>443.6</ele>
        <time>2017-09-03T15:21:55Z</time>
      </trkpt>
      <trkpt lat="43.05105" lon="0.86578">
        <ele>444.3</ele>
        <time>2017-09-03T15:21:59Z</time>
      </trkpt>
      <trkpt lat="43.05114" lon="0.86548">
        <ele>443.7</ele>
        <time>2017-09-03T15:22:03Z</time>
      </trkpt>
      <trkpt lat="43.05119" lon="0.86522">
        <ele>443.3</ele>
        <time>2017-09-03T15:22:07Z</time>
      </trkpt>
      <trkpt lat="43.05125" lon="0.86502">
        <ele>442.8</ele>
        <time>2017-09-03T15:22:11Z</time>
      </trkpt>
      <trkpt lat="43.05133" lon="0.86476">
        <ele>443.7</ele>
        <time>2017-09-03T15:22:15Z</time>
      </trkpt>
      <trkpt lat="43.05139" lon="0.86448">
        <ele>443.8</ele>
        <time>2017-09-03T15:22:19Z</time>
      </trkpt>
      <trkpt lat="43.05147" lon="0.86418">
        <ele>443.6</ele>
        <time>2017-09-03T15:22:23Z</time>
      </trkpt>
      <trkpt lat="43.05155" lon="0.86387">
        <ele>443.9</ele>
        <time>2017-09-03T15:22:27Z</time>
      </trkpt>
      <trkpt lat="43.05165" lon="0.86359">
        <ele>443.3</ele>
        <time>2017-09-03T15:22:31Z</time>
      </trkpt>
      <trkpt lat="43.05177" lon="0.86328">
        <ele>442.1</ele>
        <time>2017-09-03T15:22:35Z</time>
      </trkpt>
      <trkpt lat="43.05189" lon="0.86298">
        <ele>442.1</ele>
        <time>2017-09-03T15:22:39Z</time>
      </trkpt>
      <trkpt lat="43.05194" lon="0.86265">
        <ele>441.9</ele>
        <time>2017-09-03T15:22:43Z</time>
      </trkpt>
      <trkpt lat="43.05193" lon="0.86233">
        <ele>442.2</ele>
        <time>2017-09-03T15:22:47Z</time>
      </trkpt>
      <trkpt lat="43.05193" lon="0.86202">
        <ele>442.4</ele>
        <time>2017-09-03T15:22:51Z</time>
      </trkpt>
      <trkpt lat="43.05191" lon="0.8617">
        <ele>441.7</ele>
        <time>2017-09-03T15:22:55Z</time>
      </trkpt>
      <trkpt lat="43.05192" lon="0.86139">
        <ele>441.7</ele>
        <time>2017-09-03T15:22:59Z</time>
      </trkpt>
      <trkpt lat="43.05195" lon="0.8611">
        <ele>442.3</ele>
        <time>2017-09-03T15:23:03Z</time>
      </trkpt>
      <trkpt lat="43.052" lon="0.86081">
        <ele>442.4</ele>
        <time>2017-09-03T15:23:07Z</time>
      </trkpt>
      <trkpt lat="43.05203" lon="0.86051">
        <ele>442.8</ele>
        <time>2017-09-03T15:23:11Z</time>
      </trkpt>
      <trkpt lat="43.05201" lon="0.86019">
        <ele>443.7</ele>
        <time>2017-09-03T15:23:15Z</time>
      </trkpt>
      <trkpt lat="43.05198" lon="0.8599">
        <ele>443.7</ele>
        <time>2017-09-03T15:23:19Z</time>
      </trkpt>
      <trkpt lat="43.05194" lon="0.8596">
        <ele>443.6</ele>
        <time>2017-09-03T15:23:23Z</time>
      </trkpt>
      <trkpt lat="43.0519" lon="0.85927">
        <ele>444.1</ele>
        <time>2017-09-03T15:23:27Z</time>
      </trkpt>
      <trkpt lat="43.05184" lon="0.85893">
        <ele>443.6</ele>
        <time>2017-09-03T15:23:31Z</time>
      </trkpt>
      <trkpt lat="43.05179" lon="0.85858">
        <ele>443.3</ele>
        <time>2017-09-03T15:23:35Z</time>
      </trkpt>
      <trkpt lat="43.05172" lon="0.85827">
        <ele>442.8</ele>
        <time>2017-09-03T15:23:39Z</time>
      </trkpt>
      <trkpt lat="43.05167" lon="0.85794">
        <ele>442.1</ele>
        <time>2017-09-03T15:23:43Z</time>
      </trkpt>
      <trkpt lat="43.05158" lon="0.85762">
        <ele>442.5</ele>
        <time>2017-09-03T15:23:47Z</time>
      </trkpt>
      <trkpt lat="43.0515" lon="0.85732">
        <ele>442.4</ele>
        <time>2017-09-03T15:23:51Z</time>
      </trkpt>
      <trkpt lat="43.05142" lon="0.85703">
        <ele>442.2</ele>
        <time>2017-09-03T15:23:55Z</time>
      </trkpt>
      <trkpt lat="43.05135" lon="0.85676">
        <ele>443.2</ele>
        <time>2017-09-03T15:23:59Z</time>
      </trkpt>
      <trkpt lat="43.05129" lon="0.85654">
        <ele>443.2</ele>
        <time>2017-09-03T15:24:03Z</time>
      </trkpt>
      <trkpt lat="43.05124" lon="0.8563">
        <ele>444.2</ele>
        <time>2017-09-03T15:24:07Z</time>
      </trkpt>
      <trkpt lat="43.05117" lon="0.85605">
        <ele>444.8</ele>
        <time>2017-09-03T15:24:11Z</time>
      </trkpt>
      <trkpt lat="43.05115" lon="0.85579">
        <ele>445</ele>
        <time>2017-09-03T15:24:15Z</time>
      </trkpt>
      <trkpt lat="43.05113" lon="0.85556">
        <ele>446.1</ele>
        <time>2017-09-03T15:24:19Z</time>
      </trkpt>
      <trkpt lat="43.05104" lon="0.85539">
        <ele>446.1</ele>
        <time>2017-09-03T15:24:23Z</time>
      </trkpt>
      <trkpt lat="43.05083" lon="0.85535">
        <ele>445.9</ele>
        <time>2017-09-03T15:24:27Z</time>
      </trkpt>
      <trkpt lat="43.05059" lon="0.85529">
        <ele>445.5</ele>
        <time>2017-09-03T15:24:31Z</time>
      </trkpt>
      <trkpt lat="43.05033" lon="0.85528">
        <ele>445.5</ele>
        <time>2017-09-03T15:24:35Z</time>
      </trkpt>
      <trkpt lat="43.05012" lon="0.85525">
        <ele>446.7</ele>
        <time>2017-09-03T15:24:39Z</time>
      </trkpt>
      <trkpt lat="43.0499" lon="0.85523">
        <ele>445.9</ele>
        <time>2017-09-03T15:24:43Z</time>
      </trkpt>
      <trkpt lat="43.04967" lon="0.85523">
        <ele>445.4</ele>
        <time>2017-09-03T15:24:47Z</time>
      </trkpt>
      <trkpt lat="43.0495" lon="0.85521">
        <ele>446.3</ele>
        <time>2017-09-03T15:24:51Z</time>
      </trkpt>
      <trkpt lat="43.04932" lon="0.85521">
        <ele>445.5</ele>
        <time>2017-09-03T15:24:55Z</time>
      </trkpt>
      <trkpt lat="43.04908" lon="0.85524">
        <ele>443.8</ele>
        <time>2017-09-03T15:24:59Z</time>
      </trkpt>
      <trkpt lat="43.04884" lon="0.85524">
        <ele>443.5</ele>
        <time>2017-09-03T15:25:03Z</time>
      </trkpt>
      <trkpt lat="43.04859" lon="0.85521">
        <ele>443.3</ele>
        <time>2017-09-03T15:25:07Z</time>
      </trkpt>
      <trkpt lat="43.04833" lon="0.85517">
        <ele>442.2</ele>
        <time>2017-09-03T15:25:11Z</time>
      </trkpt>
      <trkpt lat="43.04806" lon="0.85507">
        <ele>441.9</ele>
        <time>2017-09-03T15:25:15Z</time>
      </trkpt>
      <trkpt lat="43.04782" lon="0.85497">
        <ele>441.5</ele>
        <time>2017-09-03T15:25:19Z</time>
      </trkpt>
      <trkpt lat="43.0476" lon="0.85485">
        <ele>440.6</ele>
        <time>2017-09-03T15:25:23Z</time>
      </trkpt>
      <trkpt lat="43.0474" lon="0.85473">
        <ele>440.2</ele>
        <time>2017-09-03T15:25:27Z</time>
      </trkpt>
      <trkpt lat="43.04719" lon="0.85458">
        <ele>440.6</ele>
        <time>2017-09-03T15:25:31Z</time>
      </trkpt>
      <trkpt lat="43.04699" lon="0.8544">
        <ele>440.6</ele>
        <time>2017-09-03T15:25:35Z</time>
      </trkpt>
      <trkpt lat="43.04684" lon="0.85417">
        <ele>440.7</ele>
        <time>2017-09-03T15:25:39Z</time>
      </trkpt>
      <trkpt lat="43.04665" lon="0.85396">
        <ele>440.4</ele>
        <time>2017-09-03T15:25:43Z</time>
      </trkpt>
      <trkpt lat="43.04651" lon="0.85377">
        <ele>440.1</ele>
        <time>2017-09-03T15:25:47Z</time>
      </trkpt>
      <trkpt lat="43.04659" lon="0.85351">
        <ele>439.7</ele>
        <time>2017-09-03T15:25:51Z</time>
      </trkpt>
      <trkpt lat="43.04669" lon="0.85327">
        <ele>440.8</ele>
        <time>2017-09-03T15:25:55Z</time>
      </trkpt>
      <trkpt lat="43.0468" lon="0.85306">
        <ele>441</ele>
        <time>2017-09-03T15:25:59Z</time>
      </trkpt>
      <trkpt lat="43.04691" lon="0.85293">
        <ele>442.3</ele>
        <time>2017-09-03T15:26:03Z</time>
      </trkpt>
      <trkpt lat="43.04705" lon="0.85283">
        <ele>443.6</ele>
        <time>2017-09-03T15:26:07Z</time>
      </trkpt>
      <trkpt lat="43.04717" lon="0.85271">
        <ele>445.1</ele>
        <time>2017-09-03T15:26:11Z</time>
      </trkpt>
      <trkpt lat="43.04727" lon="0.8526">
        <ele>446.3</ele>
        <time>2017-09-03T15:26:15Z</time>
      </trkpt>
      <trkpt lat="43.04742" lon="0.85247">
        <ele>446.6</ele>
        <time>2017-09-03T15:26:19Z</time>
      </trkpt>
      <trkpt lat="43.04754" lon="0.85231">
        <ele>448.8</ele>
        <time>2017-09-03T15:26:23Z</time>
      </trkpt>
      <trkpt lat="43.0476" lon="0.85215">
        <ele>450.1</ele>
        <time>2017-09-03T15:26:27Z</time>
      </trkpt>
      <trkpt lat="43.04764" lon="0.85195">
        <ele>451.5</ele>
        <time>2017-09-03T15:26:31Z</time>
      </trkpt>
      <trkpt lat="43.04761" lon="0.85176">
        <ele>452.1</ele>
        <time>2017-09-03T15:26:35Z</time>
      </trkpt>
      <trkpt lat="43.04759" lon="0.85153">
        <ele>452.1</ele>
        <time>2017-09-03T15:26:39Z</time>
      </trkpt>
      <trkpt lat="43.04765" lon="0.85137">
        <ele>451.9</ele>
        <time>2017-09-03T15:26:43Z</time>
      </trkpt>
      <trkpt lat="43.04774" lon="0.85131">
        <ele>452.6</ele>
        <time>2017-09-03T15:26:47Z</time>
      </trkpt>
      <trkpt lat="43.04782" lon="0.85127">
        <ele>453.5</ele>
        <time>2017-09-03T15:26:51Z</time>
      </trkpt>
      <trkpt lat="43.04788" lon="0.85122">
        <ele>453.8</ele>
        <time>2017-09-03T15:26:55Z</time>
      </trkpt>
      <trkpt lat="43.04797" lon="0.85111">
        <ele>455.4</ele>
        <time>2017-09-03T15:26:59Z</time>
      </trkpt>
      <trkpt lat="43.048" lon="0.85109">
        <ele>457.2</ele>
        <time>2017-09-03T15:27:03Z</time>
      </trkpt>
      <trkpt lat="43.04806" lon="0.85106">
        <ele>458.2</ele>
        <time>2017-09-03T15:27:07Z</time>
      </trkpt>
      <trkpt lat="43.04815" lon="0.85104">
        <ele>458.6</ele>
        <time>2017-09-03T15:27:11Z</time>
      </trkpt>
      <trkpt lat="43.04823" lon="0.851">
        <ele>461</ele>
        <time>2017-09-03T15:27:15Z</time>
      </trkpt>
      <trkpt lat="43.04827" lon="0.851">
        <ele>462.5</ele>
        <time>2017-09-03T15:27:19Z</time>
      </trkpt>
      <trkpt lat="43.04833" lon="0.85105">
        <ele>463.9</ele>
        <time>2017-09-03T15:27:23Z</time>
      </trkpt>
      <trkpt lat="43.04845" lon="0.85099">
        <ele>464.8</ele>
        <time>2017-09-03T15:27:27Z</time>
      </trkpt>
      <trkpt lat="43.04853" lon="0.85091">
        <ele>466.4</ele>
        <time>2017-09-03T15:27:31Z</time>
      </trkpt>
      <trkpt lat="43.04863" lon="0.85085">
        <ele>467.4</ele>
        <time>2017-09-03T15:27:35Z</time>
      </trkpt>
      <trkpt lat="43.04869" lon="0.8508">
        <ele>469.3</ele>
        <time>2017-09-03T15:27:39Z</time>
      </trkpt>
      <trkpt lat="43.04878" lon="0.85075">
        <ele>470.5</ele>
        <time>2017-09-03T15:27:43Z</time>
      </trkpt>
      <trkpt lat="43.04886" lon="0.85068">
        <ele>471</ele>
        <time>2017-09-03T15:27:47Z</time>
      </trkpt>
      <trkpt lat="43.04893" lon="0.85061">
        <ele>471.5</ele>
        <time>2017-09-03T15:27:51Z</time>
      </trkpt>
      <trkpt lat="43.04899" lon="0.85056">
        <ele>473.2</ele>
        <time>2017-09-03T15:27:55Z</time>
      </trkpt>
      <trkpt lat="43.04906" lon="0.85047">
        <ele>474.1</ele>
        <time>2017-09-03T15:27:59Z</time>
      </trkpt>
      <trkpt lat="43.04914" lon="0.85037">
        <ele>474.1</ele>
        <time>2017-09-03T15:28:03Z</time>
      </trkpt>
      <trkpt lat="43.04919" lon="0.85026">
        <ele>474.1</ele>
        <time>2017-09-03T15:28:07Z</time>
      </trkpt>
      <trkpt lat="43.04917" lon="0.85003">
        <ele>475.3</ele>
        <time>2017-09-03T15:28:11Z</time>
      </trkpt>
      <trkpt lat="43.04911" lon="0.84983">
        <ele>476.2</ele>
        <time>2017-09-03T15:28:15Z</time>
      </trkpt>
      <trkpt lat="43.04905" lon="0.84963">
        <ele>476.4</ele>
        <time>2017-09-03T15:28:19Z</time>
      </trkpt>
      <trkpt lat="43.04895" lon="0.84936">
        <ele>477.4</ele>
        <time>2017-09-03T15:28:23Z</time>
      </trkpt>
      <trkpt lat="43.04881" lon="0.84912">
        <ele>477.7</ele>
        <time>2017-09-03T15:28:27Z</time>
      </trkpt>
      <trkpt lat="43.04867" lon="0.84887">
        <ele>478.3</ele>
        <time>2017-09-03T15:28:31Z</time>
      </trkpt>
      <trkpt lat="43.04856" lon="0.84863">
        <ele>478.3</ele>
        <time>2017-09-03T15:28:35Z</time>
      </trkpt>
      <trkpt lat="43.04844" lon="0.84839">
        <ele>478.2</ele>
        <time>2017-09-03T15:28:39Z</time>
      </trkpt>
      <trkpt lat="43.04833" lon="0.84816">
        <ele>478.2</ele>
        <time>2017-09-03T15:28:43Z</time>
      </trkpt>
      <trkpt lat="43.04821" lon="0.84794">
        <ele>476.2</ele>
        <time>2017-09-03T15:28:47Z</time>
      </trkpt>
      <trkpt lat="43.04811" lon="0.84771">
        <ele>478.6</ele>
        <time>2017-09-03T15:28:51Z</time>
      </trkpt>
      <trkpt lat="43.04801" lon="0.84752">
        <ele>478.5</ele>
        <time>2017-09-03T15:28:55Z</time>
      </trkpt>
      <trkpt lat="43.04796" lon="0.84734">
        <ele>480.2</ele>
        <time>2017-09-03T15:28:59Z</time>
      </trkpt>
      <trkpt lat="43.04784" lon="0.84715">
        <ele>481.2</ele>
        <time>2017-09-03T15:29:03Z</time>
      </trkpt>
      <trkpt lat="43.04776" lon="0.84695">
        <ele>481.7</ele>
        <time>2017-09-03T15:29:07Z</time>
      </trkpt>
      <trkpt lat="43.04765" lon="0.84678">
        <ele>481.3</ele>
        <time>2017-09-03T15:29:11Z</time>
      </trkpt>
      <trkpt lat="43.04755" lon="0.84655">
        <ele>482.2</ele>
        <time>2017-09-03T15:29:15Z</time>
      </trkpt>
      <trkpt lat="43.04743" lon="0.84635">
        <ele>482.2</ele>
        <time>2017-09-03T15:29:19Z</time>
      </trkpt>
      <trkpt lat="43.0473" lon="0.84614">
        <ele>483.4</ele>
        <time>2017-09-03T15:29:23Z</time>
      </trkpt>
      <trkpt lat="43.04716" lon="0.84593">
        <ele>484.1</ele>
        <time>2017-09-03T15:29:27Z</time>
      </trkpt>
      <trkpt lat="43.04699" lon="0.84577">
        <ele>484.3</ele>
        <time>2017-09-03T15:29:31Z</time>
      </trkpt>
      <trkpt lat="43.04683" lon="0.84558">
        <ele>484</ele>
        <time>2017-09-03T15:29:35Z</time>
      </trkpt>
      <trkpt lat="43.04667" lon="0.84539">
        <ele>484.2</ele>
        <time>2017-09-03T15:29:39Z</time>
      </trkpt>
      <trkpt lat="43.04652" lon="0.84521">
        <ele>484.1</ele>
        <time>2017-09-03T15:29:43Z</time>
      </trkpt>
      <trkpt lat="43.04637" lon="0.84499">
        <ele>484.2</ele>
        <time>2017-09-03T15:29:47Z</time>
      </trkpt>
      <trkpt lat="43.0462" lon="0.84479">
        <ele>484.7</ele>
        <time>2017-09-03T15:29:51Z</time>
      </trkpt>
      <trkpt lat="43.04606" lon="0.84459">
        <ele>485.8</ele>
        <time>2017-09-03T15:29:55Z</time>
      </trkpt>
      <trkpt lat="43.04592" lon="0.84443">
        <ele>485.6</ele>
        <time>2017-09-03T15:29:59Z</time>
      </trkpt>
      <trkpt lat="43.04576" lon="0.84427">
        <ele>486.6</ele>
        <time>2017-09-03T15:30:03Z</time>
      </trkpt>
      <trkpt lat="43.04563" lon="0.8441">
        <ele>487</ele>
        <time>2017-09-03T15:30:07Z</time>
      </trkpt>
      <trkpt lat="43.0455" lon="0.8439">
        <ele>487.9</ele>
        <time>2017-09-03T15:30:11Z</time>
      </trkpt>
      <trkpt lat="43.04537" lon="0.84373">
        <ele>488.6</ele>
        <time>2017-09-03T15:30:15Z</time>
      </trkpt>
      <trkpt lat="43.04523" lon="0.84355">
        <ele>489.3</ele>
        <time>2017-09-03T15:30:19Z</time>
      </trkpt>
      <trkpt lat="43.04507" lon="0.84335">
        <ele>489.4</ele>
        <time>2017-09-03T15:30:23Z</time>
      </trkpt>
      <trkpt lat="43.04496" lon="0.84319">
        <ele>490.2</ele>
        <time>2017-09-03T15:30:27Z</time>
      </trkpt>
      <trkpt lat="43.04485" lon="0.84303">
        <ele>490</ele>
        <time>2017-09-03T15:30:31Z</time>
      </trkpt>
      <trkpt lat="43.04474" lon="0.84288">
        <ele>491.1</ele>
        <time>2017-09-03T15:30:35Z</time>
      </trkpt>
      <trkpt lat="43.04464" lon="0.84277">
        <ele>491.6</ele>
        <time>2017-09-03T15:30:39Z</time>
      </trkpt>
      <trkpt lat="43.0445" lon="0.84283">
        <ele>491.9</ele>
        <time>2017-09-03T15:30:43Z</time>
      </trkpt>
      <trkpt lat="43.04435" lon="0.84304">
        <ele>491.6</ele>
        <time>2017-09-03T15:30:47Z</time>
      </trkpt>
      <trkpt lat="43.04419" lon="0.84328">
        <ele>491.4</ele>
        <time>2017-09-03T15:30:51Z</time>
      </trkpt>
      <trkpt lat="43.04404" lon="0.84353">
        <ele>491</ele>
        <time>2017-09-03T15:30:55Z</time>
      </trkpt>
      <trkpt lat="43.04389" lon="0.84381">
        <ele>490.7</ele>
        <time>2017-09-03T15:30:59Z</time>
      </trkpt>
      <trkpt lat="43.04374" lon="0.84408">
        <ele>490.4</ele>
        <time>2017-09-03T15:31:03Z</time>
      </trkpt>
      <trkpt lat="43.04357" lon="0.84434">
        <ele>491</ele>
        <time>2017-09-03T15:31:07Z</time>
      </trkpt>
      <trkpt lat="43.0434" lon="0.84457">
        <ele>491</ele>
        <time>2017-09-03T15:31:11Z</time>
      </trkpt>
      <trkpt lat="43.04324" lon="0.84481">
        <ele>491.2</ele>
        <time>2017-09-03T15:31:15Z</time>
      </trkpt>
      <trkpt lat="43.04314" lon="0.84504">
        <ele>491.8</ele>
        <time>2017-09-03T15:31:19Z</time>
      </trkpt>
      <trkpt lat="43.04305" lon="0.8453">
        <ele>491.9</ele>
        <time>2017-09-03T15:31:23Z</time>
      </trkpt>
      <trkpt lat="43.04298" lon="0.8456">
        <ele>492</ele>
        <time>2017-09-03T15:31:27Z</time>
      </trkpt>
      <trkpt lat="43.04293" lon="0.84582">
        <ele>492.1</ele>
        <time>2017-09-03T15:31:31Z</time>
      </trkpt>
      <trkpt lat="43.04281" lon="0.84585">
        <ele>493.1</ele>
        <time>2017-09-03T15:31:35Z</time>
      </trkpt>
      <trkpt lat="43.04265" lon="0.8459">
        <ele>494.7</ele>
        <time>2017-09-03T15:31:39Z</time>
      </trkpt>
      <trkpt lat="43.0425" lon="0.84602">
        <ele>496.1</ele>
        <time>2017-09-03T15:31:43Z</time>
      </trkpt>
      <trkpt lat="43.04234" lon="0.84604">
        <ele>496.9</ele>
        <time>2017-09-03T15:31:47Z</time>
      </trkpt>
      <trkpt lat="43.04224" lon="0.84588">
        <ele>498.2</ele>
        <time>2017-09-03T15:31:51Z</time>
      </trkpt>
      <trkpt lat="43.04217" lon="0.84571">
        <ele>498.3</ele>
        <time>2017-09-03T15:31:55Z</time>
      </trkpt>
      <trkpt lat="43.04213" lon="0.84565">
        <ele>498.8</ele>
        <time>2017-09-03T15:31:59Z</time>
      </trkpt>
      <trkpt lat="43.04211" lon="0.84563">
        <ele>499</ele>
        <time>2017-09-03T15:32:03Z</time>
      </trkpt>
    </trkseg>
  </trk>
  <rte>
      <rtept lat="43.04211" lon="0.84566">
        <ele>490</ele>
      </rtept>
      <rtept lat="43.04211" lon="0.84563">
        <ele>490.2</ele>
      </rtept>
    </rte>
</gpx>